[[{"header":{"parameterUnit":"m.s-1","parameterCategory":1,"la1":30.6,"la2":28.766,"lo1":-90.7593,"lo2":-88.6598,"dy":0.0162,"dx":0.0183,"nx":116,"ny":114,"refTime":"2024-03-14T18:00:00:Z","depth":0,"parameterNumber":2,"parameterNumberName":"U-component_of_WINDS"},"data":[0.0,0.0,0.0,0.0,0.0,0.0,0.0,0.0,0.0,0.0,0.0,0.0,0.0,0.0,0.0,0.0,0.0,0.0,0.0,0.0,0.0,0.0,0.0,0.0,0.0,0.0,0.0,0.0,0.0,0.0,0.0,0.0,0.0,0.0,0.0,0.0,0.0,0.0,0.0,0.0,0.0,0.0,0.0,0.0,0.0,0.0,0.0,0.0,0.0,0.0,0.0,0.0,0.0,0.0,0.0,0.0,0.0,0.0,0.0,0.0,0.0,0.0,0.0,0.0,0.0,0.0,0.0,0.0,0.0,0.0,0.0,0.0,0.0,0.0,0.0,0.0,0.0,0.0,0.0,0.0,0.0,0.0,0.0,0.0,0.0,0.0,0.0,0.0,0.0,0.0,0.0,0.0,0.0,0.0,0.0,0.0,0.0,0.0,0.0,0.0,0.0,0.0,0.0,0.0,0.0,0.0,0.0,0.0,0.0,0.0,0.0,0.0,0.0,0.0,0.0,0.0,0.0,0.0,0.0,0.0,0.0,0.0,0.0,0.0,0.0,0.0,0.0,0.0,0.0,0.0,0.0,0.0,0.0,0.0,0.0,0.0,0.0,0.0,0.0,0.0,0.0,0.0,0.0,0.0,0.0,0.0,0.0,0.0,0.0,0.0,0.0,0.0,0.0,0.0,0.0,0.0,0.0,0.0,0.0,0.0,0.0,0.0,0.0,0.0,0.0,0.0,0.0,0.0,0.0,0.0,0.0,0.0,0.0,0.0,0.0,0.0,0.0,0.0,0.0,0.0,0.0,0.0,0.0,0.0,0.0,0.0,0.0,0.0,0.0,0.0,0.0,0.0,0.0,0.0,0.0,0.0,0.0,0.0,0.0,0.0,0.0,0.0,0.0,0.0,0.0,0.0,0.0,0.0,0.0,0.0,0.0,0.0,0.0,0.0,0.0,0.0,0.0,0.0,0.0,0.0,0.0,0.0,0.0,0.0,0.0,0.0,0.0,0.0,0.0,0.0,0.0,0.0,0.0,0.0,0.0,0.0,0.0,0.0,0.0,0.0,0.0,0.0,0.0,0.0,0.0,0.0,0.0,0.0,0.0,0.0,0.0,0.0,0.0,0.0,0.0,0.0,0.0,0.0,0.0,0.0,0.0,0.0,0.0,0.0,0.0,0.0,0.0,0.0,0.0,0.0,0.0,0.0,0.0,0.0,0.0,0.0,0.0,0.0,0.0,0.0,0.0,0.0,0.0,0.0,0.0,0.0,0.0,0.0,0.0,0.0,0.0,0.0,0.0,0.0,0.0,0.0,0.0,0.0,0.0,0.0,0.0,0.0,0.0,0.0,0.0,0.0,0.0,0.0,0.0,0.0,0.0,0.0,0.0,0.0,0.0,0.0,0.0,0.0,0.0,0.0,0.0,0.0,0.0,0.0,0.0,0.0,0.0,0.0,0.0,0.0,0.0,0.0,0.0,0.0,0.0,0.0,0.0,0.0,0.0,0.0,0.0,0.0,0.0,0.0,0.0,0.0,0.0,0.0,0.0,0.0,0.0,0.0,0.0,0.0,0.0,0.0,0.0,0.0,0.0,0.0,0.0,0.0,0.0,0.0,0.0,0.0,0.0,0.0,0.0,0.0,0.0,0.0,0.0,0.0,0.0,0.0,0.0,0.0,0.0,0.0,0.0,0.0,0.0,0.0,0.0,0.0,0.0,0.0,0.0,0.0,0.0,0.0,0.0,0.0,0.0,0.0,0.0,0.0,0.0,0.0,0.0,0.0,0.0,0.0,0.0,0.0,0.0,0.0,0.0,0.0,0.0,0.0,0.0,0.0,0.0,0.0,0.0,0.0,0.0,0.0,0.0,0.0,0.0,0.0,0.0,0.0,0.0,0.0,0.0,0.0,0.0,0.0,0.0,0.0,0.0,0.0,0.0,0.0,0.0,0.0,0.0,0.0,0.0,0.0,0.0,0.0,0.0,0.0,0.0,0.0,0.0,0.0,0.0,0.0,0.0,0.0,0.0,0.0,0.0,0.0,0.0,0.0,0.0,0.0,0.0,0.0,0.0,0.0,0.0,0.0,0.0,0.0,0.0,0.0,0.0,0.0,0.0,0.0,0.0,0.0,0.0,0.0,0.0,0.0,0.0,0.0,0.0,0.0,0.0,0.0,0.0,0.0,0.0,0.0,0.0,0.0,0.0,0.0,0.0,0.0,0.0,0.0,0.0,0.0,0.0,0.0,0.0,0.0,0.0,0.0,0.0,0.0,0.0,0.0,0.0,0.0,0.0,0.0,0.0,0.0,0.0,0.0,0.0,0.0,0.0,0.0,0.0,0.0,0.0,0.0,0.0,0.0,0.0,0.0,0.0,0.0,0.0,0.0,0.0,0.0,0.0,0.0,0.0,0.0,0.0,0.0,0.0,0.0,0.0,0.0,0.0,0.0,0.0,0.0,0.0,0.0,0.0,0.0,0.0,0.0,0.0,0.0,0.0,0.0,0.0,0.0,0.0,0.0,0.0,0.0,0.0,0.0,0.0,0.0,0.0,0.0,0.0,0.0,0.0,0.0,0.0,0.0,0.0,0.0,0.0,0.0,0.0,0.0,0.0,0.0,0.0,0.0,0.0,0.0,0.0,0.0,0.0,0.0,0.0,0.0,0.0,0.0,0.0,0.0,0.0,0.0,0.0,0.0,0.0,0.0,0.0,0.0,0.0,0.0,0.0,0.0,0.0,0.0,0.0,0.0,0.0,0.0,0.0,0.0,0.0,0.0,0.0,0.0,0.0,0.0,0.0,0.0,0.0,0.0,0.0,0.0,0.0,0.0,0.0,0.0,0.0,0.0,0.0,0.0,0.0,0.0,0.0,0.0,0.0,0.0,0.0,0.0,0.0,0.0,0.0,0.0,0.0,0.0,0.0,0.0,0.0,0.0,0.0,0.0,0.0,0.0,0.0,0.0,0.0,0.0,0.0,0.0,0.0,0.0,0.0,0.0,0.0,0.0,0.0,0.0,0.0,0.0,0.0,0.0,0.0,0.0,0.0,0.0,0.0,0.0,0.0,0.0,0.0,0.0,0.0,0.0,0.0,0.0,0.0,0.0,0.0,0.0,0.0,0.0,0.0,0.0,0.0,0.0,0.0,0.0,0.0,0.0,0.0,0.0,0.0,0.0,0.0,0.0,0.0,0.0,0.0,0.0,0.0,0.0,0.0,0.0,0.0,0.0,0.0,0.0,0.0,0.0,0.0,0.0,0.0,0.0,0.0,0.0,0.0,0.0,0.0,0.0,0.0,0.0,0.0,0.0,0.0,0.0,0.0,0.0,0.0,0.0,0.0,0.0,0.0,0.0,0.0,0.0,0.0,0.0,0.0,0.0,0.0,0.0,0.0,0.0,0.0,0.0,0.0,0.0,0.0,0.0,0.0,0.0,0.0,0.0,0.0,0.0,0.0,0.0,0.0,0.0,0.0,0.0,0.0,0.0,0.0,0.0,0.0,0.0,0.0,0.0,0.0,0.0,0.0,0.0,0.0,0.0,0.0,0.0,0.0,0.0,0.0,0.0,0.0,0.0,0.0,0.0,0.0,0.0,0.0,0.0,0.0,0.0,0.0,0.0,0.0,0.0,0.0,0.0,0.0,0.0,0.0,0.0,0.0,0.0,0.0,0.0,0.0,0.0,0.0,0.0,0.0,0.0,0.0,0.0,0.0,0.0,0.0,0.0,0.0,0.0,0.0,0.0,0.0,0.0,0.0,0.0,0.0,0.0,0.0,0.0,0.0,0.0,0.0,0.0,0.0,0.0,0.0,0.0,0.0,0.0,0.0,0.0,0.0,0.0,0.0,0.0,0.0,0.0,0.0,0.0,0.0,0.0,0.0,0.0,0.0,0.0,0.0,0.0,0.0,0.0,0.0,0.0,0.0,0.0,0.0,0.0,0.0,0.0,0.0,0.0,0.0,0.0,0.0,0.0,0.0,0.0,0.0,0.0,0.0,0.0,0.0,0.0,0.0,0.0,0.0,0.0,0.0,0.0,0.0,0.0,0.0,0.0,0.0,0.0,0.0,0.0,0.0,0.0,0.0,0.0,0.0,0.0,0.0,0.0,0.0,0.0,0.0,0.0,0.0,0.0,0.0,0.0,0.0,0.0,0.0,0.0,0.0,0.0,0.0,0.0,0.0,0.0,0.0,0.0,0.0,0.0,0.0,0.0,0.0,0.0,0.0,0.0,0.0,0.0,0.0,0.0,0.0,0.0,0.0,0.0,0.0,0.0,0.0,0.0,0.0,0.0,0.0,0.0,0.0,0.0,0.0,0.0,0.0,0.0,0.0,0.0,0.0,0.0,0.0,0.0,0.0,0.0,0.0,0.0,0.0,0.0,0.0,0.0,0.0,0.0,0.0,0.0,0.0,0.0,0.0,0.0,0.0,0.0,0.0,0.0,0.0,0.0,0.0,0.0,0.0,0.0,0.0,0.0,0.0,0.0,0.0,0.0,0.0,0.0,0.0,0.0,0.0,0.0,0.0,0.0,0.0,0.0,0.0,0.0,0.0,0.0,0.0,0.0,0.0,0.0,0.0,0.0,0.0,0.0,0.0,0.0,0.0,0.0,0.0,0.0,0.0,0.0,0.0,0.0,0.0,0.0,0.0,0.0,0.0,0.0,0.0,0.0,0.0,0.0,0.0,0.0,0.0,0.0,0.0,0.0,0.0,0.0,0.0,0.0,0.0,0.0,0.0,0.0,0.0,0.0,0.0,0.0,0.0,0.0,0.0,0.0,0.0,0.0,0.0,0.0,0.0,0.0,0.0,0.0,0.0,0.0,0.0,0.0,0.0,0.0,0.0,0.0,0.0,0.0,0.0,0.0,0.0,0.0,0.0,0.0,0.0,0.0,0.0,0.0,0.0,0.0,0.0,0.0,0.0,0.0,0.0,0.0,0.0,0.0,0.0,0.0,0.0,0.0,0.0,0.0,0.0,0.0,0.0,0.0,0.0,0.0,0.0,0.0,0.0,0.0,0.0,0.0,0.0,0.0,0.0,0.0,0.0,0.0,0.0,0.0,0.0,0.0,0.0,0.0,0.0,0.0,0.0,0.0,0.0,0.0,0.0,0.0,0.0,0.0,0.0,0.0,0.0,0.0,0.0,0.0,0.0,0.0,0.0,0.0,0.0,0.0,0.0,0.0,0.0,0.0,0.0,0.0,0.0,0.0,0.0,0.0,0.0,0.0,0.0,0.0,0.0,0.0,0.0,0.0,0.0,0.0,0.0,0.0,0.0,0.0,0.0,0.0,0.0,0.0,0.0,0.0,0.0,0.0,0.0,0.0,0.0,0.0,0.0,0.0,0.0,0.0,0.0,0.0,0.0,0.0,0.0,0.0,0.0,0.0,0.0,0.0,0.0,0.0,0.0,0.0,0.0,0.0,0.0,0.0,0.0,0.0,0.0,0.0,0.0,0.0,0.0,0.0,0.0,0.0,0.0,0.0,0.0,0.0,0.0,0.0,0.0,0.0,0.0,0.0,0.0,0.0,0.0,0.0,0.0,0.0,0.0,0.0,0.0,0.0,0.0,0.0,0.0,0.0,0.0,0.0,0.0,0.0,0.0,0.0,0.0,0.0,0.0,0.0,0.0,0.0,0.0,0.0,0.0,0.0,0.0,0.0,0.0,0.0,0.0,0.0,0.0,0.0,0.0,0.0,0.0,0.0,0.0,0.0,0.0,0.0,0.0,0.0,0.0,0.0,0.0,0.0,0.0,0.0,0.0,0.0,0.0,0.0,0.0,0.0,0.0,0.0,0.0,0.0,0.0,0.0,0.0,0.0,0.0,0.0,0.0,0.0,0.0,0.0,0.0,0.0,0.0,0.0,0.0,0.0,0.0,0.0,0.0,0.0,0.0,0.0,0.0,0.0,0.0,0.0,0.0,0.0,0.0,0.0,0.0,0.0,0.0,0.0,0.0,0.0,0.0,0.0,0.0,0.0,0.0,0.0,0.0,0.0,0.0,0.0,0.0,0.0,0.0,0.0,0.0,0.0,0.0,0.0,0.0,0.0,0.0,0.0,0.0,0.0,0.0,0.0,0.0,0.0,0.0,0.0,0.0,0.0,0.0,0.0,-4.5624,-4.5523,0.0,0.0,0.0,0.0,0.0,0.0,0.0,0.0,0.0,0.0,0.0,0.0,0.0,0.0,0.0,0.0,0.0,0.0,0.0,0.0,0.0,0.0,0.0,0.0,0.0,0.0,-3.4349,-3.516,-3.5453,-3.5595,-3.5639,-3.5616,-3.5977,-3.6246,-3.6392,-3.7065,-3.8021,-3.9307,-3.9738,-4.0319,-4.1072,-4.1242,-4.103,-4.0507,0.0,0.0,0.0,0.0,0.0,0.0,0.0,0.0,0.0,0.0,0.0,0.0,0.0,0.0,0.0,0.0,0.0,0.0,0.0,0.0,0.0,0.0,0.0,0.0,0.0,0.0,0.0,0.0,0.0,0.0,0.0,0.0,0.0,0.0,0.0,0.0,0.0,0.0,0.0,0.0,0.0,0.0,0.0,0.0,0.0,0.0,0.0,0.0,0.0,0.0,0.0,0.0,0.0,0.0,0.0,0.0,0.0,0.0,0.0,0.0,0.0,0.0,0.0,0.0,0.0,0.0,0.0,0.0,0.0,0.0,-4.504,-4.5267,0.0,0.0,0.0,0.0,0.0,0.0,0.0,0.0,0.0,0.0,0.0,0.0,0.0,0.0,0.0,0.0,0.0,0.0,0.0,0.0,0.0,0.0,0.0,-3.28,-3.4251,-3.5684,-3.639,-3.6703,-3.6617,-3.6859,-3.6569,-3.5633,-3.6366,-3.6722,-3.6557,-3.7237,-3.8456,-4.0211,-4.0358,-4.1084,-4.2289,-4.2932,-4.2351,-4.0782,-4.0593,0.0,0.0,0.0,0.0,0.0,0.0,0.0,0.0,0.0,0.0,0.0,0.0,0.0,0.0,0.0,0.0,0.0,0.0,0.0,0.0,0.0,0.0,0.0,0.0,0.0,0.0,0.0,0.0,0.0,0.0,0.0,0.0,0.0,0.0,0.0,0.0,0.0,0.0,0.0,0.0,0.0,0.0,0.0,0.0,0.0,0.0,0.0,0.0,0.0,0.0,0.0,0.0,0.0,0.0,0.0,0.0,0.0,0.0,0.0,0.0,0.0,0.0,0.0,-4.2983,-4.3749,-4.4483,-4.4427,-4.4082,-4.3547,-4.4317,-4.4757,-4.4978,-4.519,0.0,0.0,0.0,0.0,0.0,0.0,0.0,0.0,0.0,0.0,0.0,0.0,0.0,0.0,0.0,0.0,0.0,0.0,0.0,0.0,0.0,-3.3979,-3.5738,-3.7248,-3.7396,-3.7409,-3.7428,-3.765,-3.7127,-3.5667,-3.6366,-3.6903,-3.7094,-3.7417,-3.8339,-3.9871,-4.1193,-4.2363,-4.3393,-4.3377,-4.3291,-4.3103,-4.1879,-4.0729,-3.9625,0.0,0.0,0.0,0.0,0.0,0.0,0.0,0.0,0.0,0.0,0.0,0.0,0.0,0.0,0.0,0.0,0.0,0.0,0.0,0.0,0.0,0.0,0.0,0.0,0.0,0.0,0.0,0.0,0.0,0.0,0.0,0.0,0.0,0.0,0.0,0.0,0.0,0.0,0.0,0.0,0.0,-4.511,-4.5827,0.0,0.0,0.0,0.0,0.0,0.0,0.0,0.0,0.0,0.0,0.0,0.0,0.0,-3.995,-3.9878,-4.0872,-4.1434,-4.156,-4.2858,-4.3535,-4.3656,-4.3662,-4.3588,-4.3509,-4.3629,0.0,-4.3622,-4.4456,0.0,0.0,0.0,0.0,0.0,0.0,0.0,0.0,0.0,0.0,0.0,0.0,0.0,0.0,0.0,0.0,0.0,0.0,0.0,0.0,0.0,-3.5964,-3.7694,-3.9036,-3.9244,-3.9111,-3.869,-3.8563,-3.8041,-3.6935,-3.7229,-3.7538,-3.7824,-3.7893,-3.8958,-4.1088,-4.3279,-4.4332,-4.4335,-4.4234,-4.4255,-4.4326,-4.2851,-4.1647,-4.064,-3.8827,0.0,0.0,0.0,0.0,0.0,0.0,0.0,0.0,0.0,0.0,0.0,0.0,0.0,0.0,0.0,0.0,0.0,0.0,0.0,0.0,0.0,0.0,0.0,0.0,0.0,0.0,0.0,0.0,0.0,0.0,0.0,0.0,0.0,0.0,0.0,0.0,0.0,0.0,0.0,-4.5049,-4.5317,-4.5121,-4.5116,-4.4809,0.0,0.0,0.0,0.0,0.0,0.0,0.0,0.0,0.0,-3.9515,-3.9651,-3.9631,-3.9347,-4.052,-4.1304,-4.1629,-4.259,-4.3214,-4.3515,-4.3515,-4.3515,-4.3515,-4.3515,-4.3459,-4.3453,-4.4064,-4.4146,-4.3983,0.0,0.0,0.0,0.0,-4.3541,-4.3062,0.0,0.0,0.0,0.0,0.0,0.0,0.0,0.0,0.0,0.0,0.0,0.0,-3.5471,-3.7513,-3.9271,-4.0555,-4.0794,-4.056,-3.9851,-3.96,-3.8945,-3.7669,-3.7912,-3.8082,-3.812,-3.8549,-3.9869,-4.2109,-4.4139,-4.4938,-4.4571,-4.4664,-4.4771,-4.486,-4.3994,-4.2853,-4.1435,-3.9682,-3.8418,-3.7544,0.0,0.0,0.0,0.0,0.0,0.0,0.0,0.0,0.0,0.0,0.0,0.0,0.0,0.0,0.0,0.0,0.0,0.0,0.0,0.0,0.0,0.0,0.0,0.0,0.0,0.0,0.0,0.0,0.0,0.0,0.0,0.0,0.0,0.0,0.0,0.0,0.0,-4.4696,-4.4927,-4.4221,-4.4557,-4.44,0.0,0.0,0.0,0.0,0.0,0.0,-4.1111,-4.0815,-4.0237,-3.9276,-3.9621,-3.9682,-3.9494,-4.0574,-4.1446,-4.2041,-4.2617,-4.3105,-4.3515,-4.3515,-4.3515,-4.3515,-4.3515,-4.3515,-4.3513,-4.3756,-4.3677,-4.3432,-4.4161,-4.4038,-4.3517,-4.3976,-4.3732,-4.3216,0.0,0.0,0.0,0.0,0.0,0.0,0.0,0.0,0.0,0.0,0.0,-3.4915,-3.5696,-3.7986,-4.0055,-4.1605,-4.1499,-4.1166,-4.0674,-4.0734,-3.9617,-3.6971,-3.7968,-3.8257,-3.7644,-3.9374,-4.0886,-4.2109,-4.236,-4.2882,-4.3684,-4.4174,-4.4487,-4.4653,-4.567,-4.4472,-4.1634,-4.0765,-3.9746,-3.8672,-3.8188,0.0,0.0,0.0,0.0,0.0,0.0,0.0,0.0,0.0,0.0,0.0,0.0,0.0,0.0,0.0,0.0,0.0,0.0,0.0,0.0,0.0,0.0,0.0,0.0,0.0,0.0,0.0,0.0,0.0,0.0,0.0,0.0,0.0,0.0,0.0,0.0,0.0,0.0,-4.3179,-4.4687,0.0,0.0,0.0,0.0,-4.2311,-4.187,-4.1379,-4.0767,-4.0664,-4.0317,-3.9702,-3.9949,-4.0317,-4.0804,-4.1451,-4.2059,-4.2655,-4.3214,-4.3462,-4.3515,-4.3515,-4.3515,-4.3515,-4.3515,-4.3515,-4.3515,-4.3513,-4.3512,-4.3525,-4.3893,-4.3994,-4.3879,-4.3148,-4.2864,-4.2675,0.0,0.0,0.0,0.0,0.0,0.0,0.0,0.0,-3.0238,-3.1351,-3.338,-3.5116,-3.6263,-3.8722,-4.0842,-4.2253,-4.2289,-4.2011,-4.1449,-4.0656,-3.9612,-3.8275,-3.8494,-3.9148,-4.0215,-4.0952,-4.1902,-4.3125,-4.3571,-4.3944,-4.4236,-4.4041,-4.3983,-4.3997,-4.3316,-4.2723,-4.2239,-4.2659,-4.1302,-3.8947,-3.9121,-3.8894,0.0,0.0,0.0,0.0,0.0,0.0,0.0,0.0,0.0,0.0,0.0,0.0,0.0,0.0,0.0,0.0,0.0,0.0,0.0,0.0,0.0,0.0,0.0,0.0,0.0,0.0,0.0,0.0,0.0,0.0,0.0,0.0,0.0,0.0,0.0,0.0,0.0,-4.3948,-4.4449,0.0,-4.2719,-4.3166,-4.3291,-4.2632,-4.2723,-4.2578,-4.2014,-4.1596,-4.1086,-4.0481,-4.0548,-4.0703,-4.0903,-4.1512,-4.2101,-4.2693,-4.2902,-4.3178,-4.3515,-4.3515,-4.3515,-4.3515,-4.3515,-4.3303,-4.2976,-4.2976,-4.2976,-4.2958,-4.27,-4.2813,-4.3122,-4.283,-4.2635,-4.2408,0.0,0.0,0.0,0.0,0.0,0.0,0.0,0.0,-3.0762,-3.2068,-3.3901,-3.5602,-3.7008,-3.9307,-4.1135,-4.2006,-4.2282,-4.2142,-4.1534,-4.0662,-3.9888,-3.93,-3.9224,-3.9857,-4.1229,-4.1446,-4.1976,-4.2867,-4.3218,-4.3361,-4.3331,-4.2924,-4.2718,-4.2674,-4.1499,-4.1168,-4.1582,-4.2499,-4.1576,-3.9539,-3.994,-3.9738,-3.9164,0.0,0.0,0.0,0.0,0.0,0.0,0.0,0.0,0.0,0.0,0.0,0.0,0.0,0.0,0.0,0.0,0.0,0.0,0.0,0.0,0.0,0.0,0.0,0.0,0.0,0.0,0.0,0.0,0.0,0.0,0.0,0.0,0.0,0.0,-4.4407,-4.4947,-4.4006,-4.4393,-4.4211,-4.2889,-4.3371,-4.3538,-4.3073,-4.3319,-4.3268,-4.2731,-4.2322,-4.1832,-4.1206,-4.1183,-4.1313,-4.1512,-4.1895,-4.2402,-4.2976,-4.2976,-4.316,-4.3515,-4.3515,-4.341,-4.3232,-4.3232,-4.2902,-4.2382,-4.2183,-4.194,-4.1744,-4.1768,-4.2162,-4.2675,-4.2368,-4.2268,-4.2213,0.0,0.0,0.0,0.0,0.0,0.0,0.0,-3.0343,-3.1161,-3.3429,-3.4936,-3.6389,-3.7847,-3.9742,-4.0903,-4.0903,-4.1446,-4.1534,-4.0949,-4.0909,-4.0585,-3.9901,-4.0102,-4.0319,-4.055,-4.0883,-4.1131,-4.1267,-4.107,-4.0917,-4.0828,-4.0785,-4.0727,-4.0626,-4.0385,-4.003,-3.9621,-4.0189,-4.0465,-4.0516,-4.0693,-4.066,-4.0546,0.0,0.0,0.0,0.0,0.0,0.0,0.0,0.0,0.0,0.0,0.0,0.0,0.0,0.0,0.0,0.0,0.0,0.0,0.0,0.0,0.0,0.0,0.0,0.0,0.0,0.0,0.0,0.0,0.0,0.0,0.0,0.0,0.0,-4.3357,-4.386,-4.4047,-4.3278,-4.4605,-4.4997,-4.3498,-4.4108,-4.4313,-4.3601,-4.3497,-4.3286,-4.2786,-4.2711,-4.244,-4.1853,-4.1832,-4.2121,-4.2693,-4.2731,-4.2976,-4.3515,-4.3515,-4.3515,-4.3515,-4.3515,-4.3214,-4.2711,-4.2711,-4.2342,-4.1746,-4.1155,-4.047,-3.9909,-4.1235,-4.2103,-4.2512,-4.1681,-4.1741,-4.1992,0.0,0.0,0.0,0.0,0.0,0.0,0.0,-3.1202,-3.2346,-3.3547,-3.5364,-3.6912,-3.7896,-3.9742,-4.0903,-4.0903,-4.1446,-4.1534,-4.0949,-4.081,-4.0986,-4.1452,-4.099,-4.1703,-4.3832,-4.2883,-4.2512,-4.2808,-4.1047,-3.9832,-3.9174,-3.9692,-3.8873,-3.6926,-3.6037,-3.6872,-3.8961,-3.9122,-3.9699,-4.0585,-4.16,-4.159,-4.1091,0.0,0.0,0.0,0.0,0.0,0.0,0.0,0.0,0.0,0.0,0.0,0.0,0.0,0.0,0.0,0.0,0.0,0.0,0.0,0.0,0.0,0.0,0.0,0.0,0.0,0.0,0.0,0.0,0.0,0.0,0.0,-4.3715,-4.4272,-4.4033,-4.4724,-4.5171,-4.494,-4.5325,-4.5246,-4.4336,-4.4461,-4.4543,-4.4393,-4.3828,-4.3684,-4.4127,-4.3228,-4.2616,-4.246,-4.246,-4.2519,-4.2711,-4.3105,-4.3357,-4.3515,-4.3515,-4.3515,-4.3515,-4.3515,-4.3214,-4.2711,-4.2711,-4.2121,-4.1133,-4.0972,-4.0249,-3.9313,-4.0223,-4.0488,-4.0404,-4.0702,-4.0708,-4.0414,0.0,0.0,0.0,0.0,0.0,0.0,0.0,-3.2242,-3.3481,-3.4804,-3.6332,-3.7703,-3.8778,-3.9881,-4.0577,-4.0577,-4.0891,-4.0938,-4.0577,-4.1088,-4.1467,-4.1717,-4.2026,-4.2884,-4.4322,-4.3539,-4.2973,-4.2726,-4.1274,-3.9965,-3.884,-3.8812,-3.825,-3.7178,-3.626,-3.7299,-3.9668,-3.8991,-3.925,-4.0219,-4.1247,-4.1478,-4.1254,-4.1855,-4.2507,-4.3026,-4.2244,-4.2665,-4.3518,-4.3002,0.0,0.0,0.0,0.0,0.0,0.0,0.0,0.0,0.0,0.0,0.0,0.0,0.0,0.0,0.0,0.0,0.0,0.0,0.0,0.0,0.0,0.0,0.0,0.0,-4.406,-4.4432,-4.4778,-4.5287,-4.5594,-4.5594,-4.5594,-4.5342,-4.4676,-4.49,-4.4997,-4.4707,-4.4268,-4.4213,-4.4673,-4.3634,-4.3032,-4.3032,-4.3032,-4.3032,-4.3032,-4.3339,-4.3515,-4.3515,-4.3515,-4.3515,-4.3515,-4.3515,-4.3069,-4.2322,-4.2322,-4.1484,-4.0113,-4.0113,-3.93,-3.8183,0.0,0.0,0.0,0.0,-3.991,-3.9331,0.0,0.0,0.0,0.0,0.0,0.0,0.0,-3.3305,-3.4626,-3.6558,-3.7546,-3.8607,-3.9952,-4.0096,-4.0096,-4.0096,-4.0096,-4.0146,-4.0279,-4.1558,-4.2079,-4.1609,-4.316,-4.3867,-4.3485,-4.343,-4.2954,-4.2033,-4.1464,-4.052,-3.9265,-3.8273,-3.8315,-3.9219,-3.8862,-3.9602,-4.1021,-3.977,-3.9345,-3.9552,-4.0226,-4.0742,-4.1131,-4.1171,-4.2197,-4.3589,-4.3498,-4.4008,-4.4717,-4.4717,0.0,0.0,0.0,0.0,0.0,0.0,0.0,0.0,0.0,0.0,0.0,0.0,0.0,0.0,0.0,0.0,0.0,0.0,0.0,0.0,0.0,0.0,0.0,0.0,-4.4399,-4.4675,-4.549,-4.5594,-4.5586,-4.5559,-4.5531,-4.5273,-4.4606,-4.5254,-4.5462,-4.4743,-4.4691,-4.4691,-4.4691,-4.3938,0.0,0.0,0.0,-4.3515,-4.3515,-4.3515,-4.3515,-4.3515,-4.3515,-4.3515,-4.3515,-4.3515,-4.2922,-4.1895,-4.1832,-4.0834,-3.9292,-3.9151,-3.8235,-3.7081,-3.8323,-3.9062,-3.9459,-3.9682,-3.9258,-3.856,0.0,0.0,0.0,0.0,0.0,0.0,0.0,-3.4071,-3.5605,-3.6658,-3.7927,-3.9086,-4.0003,-4.0096,-4.0096,-4.0096,-4.0096,-4.049,-4.142,-4.205,-4.285,-4.3909,-4.4238,-4.4622,-4.5134,-4.4045,-4.3451,-4.3404,-4.0611,-3.9207,-3.9117,-3.8692,-3.7955,-3.6983,-3.8163,-3.9591,-4.115,-4.2155,-4.1134,-3.8961,-4.0058,-4.0542,-4.0685,-4.1053,-4.1903,-4.2875,-4.2689,-4.3557,-4.4782,-4.4782,-4.4584,-4.4443,-4.5028,-4.4492,0.0,0.0,0.0,0.0,0.0,0.0,0.0,0.0,0.0,0.0,0.0,0.0,0.0,0.0,0.0,0.0,0.0,0.0,0.0,-4.3847,-4.4496,-4.5101,-4.5549,-4.5594,-4.5504,-4.5232,-4.5201,-4.4912,-4.419,-4.4849,-4.5135,-4.4726,-4.4691,-4.4691,-4.4691,-4.3938,-4.3515,-4.3515,-4.3515,-4.3515,-4.3515,-4.3515,-4.3515,-4.3515,-4.3515,0.0,-4.3515,-4.3515,-4.3142,-4.25,-4.2,-4.1594,-4.1179,-4.0031,-3.8955,-3.7985,-3.7672,-3.8187,-3.9086,-3.896,-3.8414,-3.7731,0.0,0.0,0.0,0.0,0.0,0.0,0.0,-3.5056,-3.6603,-3.7722,-3.9128,-4.0057,-4.0084,-4.0432,-4.0348,-3.9575,-3.9876,-4.0415,-4.1156,-4.2086,-4.3003,-4.3919,-4.4662,-4.5134,-4.5352,-4.4662,-4.3963,-4.3297,-4.1594,-4.0391,-3.9704,-3.9562,-3.8917,-3.788,-3.8447,-3.9843,-4.1833,-4.2987,-4.2555,-4.1009,-4.0002,-3.9591,-3.9692,-4.0524,-4.1769,-4.3039,-4.2936,-4.4001,-4.5445,-4.5445,-4.5426,-4.5465,-4.5823,-4.5481,-4.4989,0.0,0.0,0.0,0.0,0.0,0.0,0.0,0.0,0.0,0.0,0.0,0.0,0.0,0.0,-4.2807,-4.2455,0.0,-4.3632,-4.4342,-4.4829,-4.5222,-4.5559,-4.5594,-4.555,-4.5362,-4.5201,-4.4877,-4.4346,-4.5222,-4.5484,-4.4745,-4.5443,-4.5553,-4.4728,-4.4323,-4.392,-4.3497,-4.3515,-4.3515,-4.3515,-4.3515,-4.3515,-4.3515,-4.3515,-4.3515,-4.3515,-4.3515,-4.3214,-4.2656,-4.1914,-4.1243,-4.0568,-3.948,-3.8766,-3.8343,-3.8201,-3.8277,-3.8469,-3.8627,-3.845,-3.8028,0.0,0.0,0.0,0.0,0.0,0.0,0.0,-3.5998,-3.7455,-3.874,-4.0248,-4.091,-4.0176,-4.0771,-4.0632,-3.9259,-3.9825,-4.0431,-4.08,-4.2104,-4.305,-4.3407,-4.4696,-4.5273,-4.5019,-4.4772,-4.4134,-4.3025,-4.2653,-4.1869,-4.07,-4.0535,-4.0196,-3.9713,-3.9202,-4.0325,-4.2626,-4.2586,-4.2931,-4.3277,-4.0666,-3.9626,-3.9752,-4.0706,-4.1893,-4.3086,-4.3408,-4.4464,-4.5741,-4.6004,-4.6108,-4.6108,-4.6108,-4.603,-4.5873,-4.5584,-4.5452,0.0,0.0,0.0,0.0,0.0,0.0,0.0,0.0,-4.3216,-4.2624,-4.3067,-4.315,-4.3178,-4.327,-4.3367,-4.3758,-4.4832,-4.4988,-4.514,-4.5531,-4.5594,-4.5671,-4.5825,-4.5408,-4.4966,-4.4618,-4.5552,-4.5795,-4.4866,-4.5938,-4.6067,-4.4764,-4.4562,-4.4176,-4.3533,-4.3515,-4.3515,-4.3515,-4.3515,-4.3515,-4.3515,-4.3515,-4.3515,-4.3515,-4.3515,-4.3268,-4.2828,-4.2103,-4.1082,-3.983,-3.9342,-3.897,-3.8721,-3.9102,-3.877,-3.8099,-3.8546,-3.8597,-3.8358,0.0,0.0,0.0,0.0,0.0,0.0,0.0,0.0,-3.7971,-3.8788,-4.0244,-4.0924,-4.018,-4.0772,-4.0874,-4.0045,-4.048,-4.1052,-4.1644,-4.2594,-4.3367,-4.3894,-4.4444,-4.4695,-4.4644,-4.3618,-4.3318,-4.3867,-4.2142,-4.1548,-4.2049,-4.1352,-4.0978,-4.0879,-4.0235,-4.1215,-4.3196,-4.0419,-4.0888,-4.3463,-4.3115,-4.2965,-4.2978,-4.3103,-4.2557,-4.1925,-4.3475,-4.415,-4.4505,-4.5696,-4.6108,-4.6108,-4.6108,-4.6084,-4.6047,-4.5896,-4.5833,-4.558,-4.4428,-4.2446,-4.1463,-4.4812,-4.4511,-4.3845,0.0,-4.4922,-4.3986,-4.4028,-4.4057,-4.3813,-4.302,-4.3203,-4.3735,-4.4535,-4.4663,-4.4884,-4.5513,-4.5594,-4.5893,-4.6663,-4.5781,-4.4966,-4.4618,-4.5042,-4.5289,-4.5148,-4.5046,-4.4874,-4.4727,-4.4011,-4.3589,-4.3515,-4.3515,-4.3515,-4.3515,-4.3515,-4.3515,-4.3515,-4.3515,-4.3515,-4.3515,-4.3515,-4.348,-4.341,-4.33,-4.2468,-4.123,-4.1684,-4.1016,-3.9735,-3.9784,-3.9323,-3.8627,-3.8692,-3.8248,-3.7529,0.0,0.0,0.0,0.0,0.0,0.0,0.0,0.0,0.0,-3.9501,-4.0531,-4.1081,-4.0775,-4.0638,-4.0615,-4.0738,-4.0542,-4.0862,-4.1922,-4.2113,-4.2595,-4.3492,-4.3894,-4.4135,-4.4247,-4.3834,-4.3881,-4.4413,-4.3128,-4.2678,-4.2989,-4.2649,-4.2498,-4.2445,-4.0808,-4.1,-4.2462,-4.1776,-4.2264,-4.35,-4.3506,-4.2704,-4.1591,-4.2268,-4.203,-4.1542,-4.3083,-4.4001,0.0,-4.537,-4.5702,-4.5839,-4.6038,-4.6149,-4.6201,-4.6147,-4.608,-4.5852,-4.5157,-4.2786,-4.1366,-4.4995,-4.5376,-4.5083,-4.5985,-4.5302,-4.4571,-4.4835,-4.4863,-4.4638,-4.3958,-4.3998,-4.4308,-4.4806,-4.4896,-4.5063,-4.5522,-4.6028,-4.649,-4.6846,-4.6877,-4.6717,-4.6368,-4.6744,-4.6801,-4.6331,-4.6581,-4.6343,-4.5391,-4.5021,-4.4522,-4.3823,-4.3788,-4.3693,-4.3496,-4.3515,-4.3515,-4.3515,-4.3515,-4.3515,-4.3515,-4.3515,-4.3239,-4.28,-4.28,-4.201,-4.0854,-4.1861,-4.1438,-4.0157,-4.0482,-4.0102,-3.9331,-3.8872,-3.8487,-3.8083,0.0,0.0,0.0,0.0,0.0,0.0,0.0,0.0,0.0,0.0,-4.105,-4.1577,-4.1788,-4.115,-4.0909,-4.1456,-4.1027,-4.1103,-4.2044,-4.1833,-4.2086,-4.3068,-4.3337,-4.3724,-4.4266,-4.4162,-4.4427,-4.5039,-4.46,-4.4217,-4.3925,-4.3632,-4.3504,-4.3403,-4.1129,-4.139,-4.3636,-4.4465,-4.4821,-4.4746,-4.3857,-4.2131,-4.0177,-4.1007,-4.1354,-4.1517,-4.281,-4.3713,-4.439,-4.5065,-4.5409,-4.5589,-4.593,-4.6115,-4.6198,-4.6198,-4.5941,-4.5604,-4.5195,-4.3222,-4.2019,-4.4955,-4.5784,-4.5903,-4.6028,-4.541,-4.4934,-4.5297,-4.5254,-4.5037,-4.4668,-4.4646,-4.4768,-4.5044,-4.513,-4.5341,-4.5876,-4.6509,-4.7058,-4.7528,-4.8105,-4.8462,-4.8449,-4.8244,-4.785,-4.7263,-4.7408,-4.7018,-4.5863,-4.5585,-4.5026,-4.4035,-4.4102,-4.4004,-4.3646,-4.3761,-4.3807,-4.3807,-4.3695,-4.3629,-4.3629,-4.3548,-4.3167,-4.2635,-4.2635,-4.2079,-4.1215,-4.1748,-4.1404,-4.0525,-4.0449,-4.0084,-3.9496,-3.8909,-3.8707,-3.856,0.0,0.0,0.0,0.0,0.0,0.0,0.0,0.0,0.0,0.0,0.0,0.0,0.0,-4.2682,-4.2226,-4.2252,-4.2236,-4.2202,-4.2113,-4.2074,-4.2329,-4.289,-4.2912,-4.3586,-4.4951,-4.4273,-4.455,-4.5865,-4.636,-4.6067,-4.5041,-4.3981,-4.3502,-4.3398,-4.1114,-4.3089,-4.8102,-4.8138,-4.8152,-4.7876,-4.4757,-4.2139,-4.0097,-4.0143,-4.0845,-4.1905,-4.2868,-4.3218,-4.3463,-4.4845,-4.5306,-4.5371,-4.5788,-4.5907,-4.5912,-4.5912,-4.53,-4.4518,-4.3926,-4.3536,-4.3726,-4.546,-4.5849,-4.5821,-4.5879,-4.5523,-4.5215,-4.5293,-4.4984,-4.4691,-4.4613,-4.4755,-4.4944,-4.5084,-4.521,-4.5654,-4.6712,-4.6885,-4.7509,-4.9125,-4.9356,-4.9683,-5.0529,-4.8796,-4.7575,-4.7491,-4.648,-4.5844,-4.5798,-4.507,-4.4438,-4.3998,-4.4392,-4.4392,-4.4001,-4.4378,-4.4585,-4.4553,-4.4161,-4.3967,-4.3971,-4.3646,-4.3496,-4.346,-4.346,-4.3442,-4.3296,-4.1756,-4.1113,-4.0914,-3.9371,-3.8762,-3.8726,-3.8707,-3.8707,-3.8469,0.0,0.0,0.0,0.0,0.0,0.0,0.0,0.0,0.0,0.0,0.0,0.0,0.0,0.0,0.0,0.0,-4.2574,-4.2494,-4.2943,-4.2509,-4.2284,-4.2376,-4.2852,-4.3254,-4.3611,-4.4671,-4.5773,-4.6916,-4.8577,-4.8676,-4.7182,-4.5753,-4.5642,-4.6657,-4.5887,-4.7774,-5.1542,-5.1544,-5.0279,-4.7892,-4.3144,-4.0764,-4.0106,-4.0096,-4.0336,-4.0797,0.0,-4.2528,-4.3068,-4.439,-4.4876,-4.5007,-4.5641,-4.5852,-4.5916,-4.6001,-4.5345,-4.4554,-4.4349,-4.4678,-4.5183,-4.571,-4.574,-4.5708,-4.5805,-4.5701,-4.5609,-4.5631,-4.5526,-4.5403,-4.5276,-4.5326,-4.54,-4.5546,-4.5522,-4.5835,-4.6827,-4.7386,-4.8125,-4.926,-4.9913,-5.0385,-5.0673,-5.0075,-4.966,-4.963,-4.8476,-4.7658,-4.7346,-4.6107,-4.543,-4.5514,-4.4921,-4.4804,-4.519,-4.4791,-4.4593,-4.4612,-4.419,-4.4001,-4.4001,-4.3646,-4.3515,-4.3515,-4.3515,-4.3515,-4.346,-4.291,-4.2066,-4.104,-4.049,-3.9643,-3.8707,-3.8707,-3.8707,-3.856,0.0,0.0,0.0,0.0,0.0,0.0,0.0,0.0,0.0,0.0,0.0,0.0,0.0,0.0,0.0,0.0,0.0,-4.32,-4.3375,-4.2963,-4.2641,-4.256,-4.3014,-4.3437,-4.381,-4.4887,-4.6083,-4.7406,-4.8805,-4.938,-4.9169,-4.8115,-4.8509,-5.0065,-5.0047,-5.1225,-5.3198,-5.3209,-5.0787,-4.6574,-4.1963,-4.0329,-4.061,-4.0231,-4.0229,0.0,-4.1464,-4.2183,-4.2884,-4.399,-4.4518,-4.4763,-4.5357,-4.5479,-4.5371,-4.5189,-4.4497,-4.3902,-4.4453,-4.4833,-4.5219,-4.5777,-4.5813,-4.5716,-4.5796,-4.5803,-4.5751,-4.5587,-4.558,-4.5583,-4.5461,-4.5481,-4.5599,-4.5761,-4.5733,-4.6093,-4.7307,-4.7841,-4.8548,-4.9721,-5.0366,-5.0712,-5.0712,-5.0712,-5.0577,-5.0269,-4.9484,-4.8567,-4.751,-4.6523,-4.5824,-4.5502,-4.4909,-4.4857,-4.5366,-4.4972,-4.4726,-4.4612,-4.4332,-4.4076,-4.382,-4.3597,-4.3515,-4.3515,-4.3515,-4.3515,-4.346,-4.2873,-4.2029,-4.104,-4.0471,-3.9625,-3.8707,-3.8707,-3.8524,-3.8193,0.0,0.0,0.0,0.0,0.0,0.0,0.0,0.0,0.0,0.0,0.0,0.0,0.0,0.0,0.0,0.0,0.0,0.0,-4.3494,-4.3443,-4.3426,-4.3392,-4.3426,-4.4068,-4.5347,-4.4898,-4.5499,-4.7263,-4.7255,-4.8473,-5.08,-5.0797,-5.1648,-5.3191,-5.3195,-5.3205,-5.3182,-5.2893,-4.96,-4.4324,-4.1366,-4.0739,-4.1485,-4.0519,-4.0476,-4.0972,-4.163,-4.2218,-4.2828,-4.3701,-4.4276,-4.467,-4.5007,-4.4792,-4.4298,-4.3656,-4.2861,-4.2579,-4.4177,-4.4108,-4.3994,-4.5679,-4.5992,-4.5881,-4.5815,-4.5796,-4.5665,-4.5194,-4.5208,-4.5246,-4.5131,-4.5267,-4.5495,-4.5827,-4.5859,-4.643,-4.8089,-4.8235,-4.8759,-5.0385,-5.0616,-5.0635,-5.0635,-5.0635,-5.0308,-4.9529,-4.9442,-4.8566,-4.6582,-4.6423,-4.5722,-4.4266,-4.4522,-4.4707,-4.472,-4.4962,-4.4931,-4.4637,-4.458,-4.4194,-4.3531,-4.3515,-4.3515,-4.3515,-4.3515,-4.3478,-4.3331,-4.1846,-4.1168,-4.0948,-3.9423,-3.8799,-3.8762,-3.8726,-3.8212,-3.7566,0.0,0.0,0.0,0.0,0.0,0.0,0.0,0.0,0.0,0.0,0.0,0.0,0.0,0.0,0.0,0.0,0.0,0.0,-4.4327,-4.4282,-4.4028,-4.3426,-4.3978,-4.4111,-4.3722,-4.4861,-4.5428,-4.5297,-4.7943,-4.9797,-5.0787,-5.081,-5.1659,-5.3202,-5.3199,-5.3196,-5.2926,-4.8614,-4.5941,-4.4406,-4.2123,-4.1359,-4.1553,-4.1084,-4.0895,-4.1042,-4.2212,-4.2644,-4.2828,-4.3701,-4.4423,-4.4996,-4.5074,-4.4388,-4.3621,-4.4083,-4.2772,-4.1714,-4.4167,-4.4158,-4.3874,-4.5667,-4.5959,-4.5814,-4.579,-4.5711,-4.5556,-4.5171,-4.5131,-4.5144,-4.5107,-4.5137,-4.5533,-4.6658,-4.6723,-4.7042,-4.8278,-4.8814,-4.899,-4.8798,-4.9336,-4.9721,-4.9721,-4.9721,-4.9913,-5.0346,-5.0095,-4.9532,-4.8663,-4.8083,-4.7574,-4.7065,-4.6275,-4.6012,-4.6319,-4.5515,-4.5063,-4.4985,-4.4414,-4.4061,-4.3865,-4.3595,-4.3515,-4.3515,-4.3515,-4.3149,-4.2616,-4.28,-4.2176,-4.1058,-4.0636,-4.012,-3.9515,-3.8927,-3.8579,-3.8395,0.0,0.0,0.0,0.0,0.0,0.0,0.0,0.0,0.0,0.0,0.0,0.0,0.0,0.0,0.0,0.0,0.0,0.0,0.0,-4.4615,-4.4533,-4.4338,-4.4759,-4.478,-4.4311,-4.5467,-4.5951,-4.5714,-4.7731,-4.9058,-4.97,-4.9706,-5.0178,-5.1049,-5.1044,-5.0738,-4.9978,-4.6196,-4.4617,0.0,0.0,-4.2308,-4.2358,-4.1854,-4.1783,-4.199,-4.2665,-4.2987,-4.3178,-4.4033,-4.4547,-4.4851,-4.4595,-4.4177,-4.3789,-4.3892,-4.2989,-4.2373,-4.4339,-4.4445,-4.4351,-4.5817,-4.6053,-4.592,-4.5864,-4.5655,-4.5352,-4.4958,-4.4745,-4.4663,-4.4861,-4.5169,-4.5799,-4.7003,-4.7389,-4.7753,-4.8413,-4.8748,-4.8703,-4.8172,-4.8394,-4.8662,-4.8827,-4.9047,-4.9429,-5.0087,-5.0272,-5.0016,-4.9224,-4.8424,-4.7718,-4.7098,-4.6092,-4.5719,-4.6109,-4.5449,-4.503,-4.4872,-4.429,-4.3924,-4.3772,-4.358,-4.3515,-4.3515,-4.3515,-4.3239,-4.2818,-4.2928,-4.2231,-4.1058,-4.0726,-4.0084,-3.9313,-3.8872,-3.8487,-3.8212,0.0,0.0,0.0,0.0,0.0,0.0,0.0,0.0,0.0,0.0,0.0,0.0,0.0,0.0,0.0,0.0,0.0,0.0,0.0,0.0,0.0,0.0,-4.5416,-4.5558,-4.5959,-4.6312,-4.6684,-4.7111,-4.7208,-4.7593,-4.8251,-4.8284,-4.8302,-4.8286,-4.8123,-4.7434,-4.631,-4.5117,-4.4591,-4.4514,-4.3529,-4.3247,-4.3325,0.0,0.0,0.0,-4.3049,0.0,0.0,0.0,-4.4665,-4.4537,-4.4132,-4.4211,-4.433,-4.351,-4.3309,-4.3568,-4.4517,-4.4755,-4.5004,-4.6008,-4.6145,-4.6027,-4.5899,-4.5575,-4.515,-4.4682,-4.4318,-4.4175,-4.454,-4.5217,-4.608,-4.7192,-4.7895,-4.8354,-4.8479,-4.8487,-4.8307,-4.7825,-4.7613,-4.7618,-4.7914,-4.8369,-4.8805,-4.9202,-4.9933,-4.9959,-4.9014,-4.8258,-4.7255,-4.5994,-4.5168,-4.4884,-4.515,-4.5074,-4.4884,-4.4593,-4.415,-4.3772,-4.3515,-4.3515,-4.3515,-4.3515,-4.3515,-4.3441,-4.3277,-4.269,-4.1992,-4.1168,-4.0377,-3.9625,-3.9001,-3.8781,-3.8267,-3.7768,0.0,0.0,0.0,0.0,0.0,0.0,0.0,0.0,0.0,0.0,-4.4181,-4.4615,0.0,0.0,0.0,0.0,0.0,0.0,0.0,0.0,0.0,0.0,-4.5027,-4.5411,-4.685,-4.6955,-4.7021,-4.7091,-4.7765,-4.8063,-4.7975,-4.8213,-4.8292,-4.8247,-4.7201,-4.6591,-4.6307,-4.5122,-4.4593,-4.454,-4.3701,-4.3375,-4.3375,0.0,0.0,0.0,0.0,0.0,0.0,0.0,-4.4665,-4.4648,-4.488,-4.4668,-4.4256,-4.3819,-4.3431,-4.3349,-4.429,-4.455,-4.4777,-4.5737,-4.591,-4.5858,-4.5814,-4.5464,-4.5036,-4.467,-4.454,-4.4514,-4.458,-4.495,-4.5889,-4.7937,-4.8298,-4.8357,-4.8487,-4.8998,-4.8539,-4.6294,-4.6627,-4.704,-4.7096,-4.7194,-4.7559,-4.8269,-4.8471,-4.8779,-4.9298,-4.9163,-4.8356,-4.6762,-4.5889,-4.5448,-4.5513,-4.4966,-4.4644,-4.458,-4.3915,-4.3565,-4.3515,-4.3515,-4.3515,-4.3515,-4.3515,-4.3112,-4.2543,-4.3075,-4.2818,-4.2011,-4.1222,-4.0802,-4.0508,-3.9203,-3.8615,-3.8505,0.0,0.0,0.0,0.0,0.0,0.0,0.0,-4.3995,-4.413,-4.4553,-4.5263,-4.5461,-4.4682,-4.4615,-4.4615,0.0,0.0,0.0,0.0,0.0,0.0,0.0,0.0,0.0,0.0,-4.7715,-4.7715,-4.772,0.0,-4.8233,-4.8103,-4.8656,-4.849,-4.7642,-4.7159,-4.6547,-4.5898,-4.5328,-4.4883,-4.4581,-4.4181,-4.4012,0.0,0.0,0.0,0.0,0.0,0.0,0.0,0.0,-4.521,-4.4397,-4.5012,-4.4971,-4.4671,-4.4518,-4.4451,-4.4501,-4.504,-4.5183,-4.5279,-4.5774,-4.5839,-4.5757,-4.558,-4.5188,-4.4732,-4.4359,-4.4276,-4.4346,-4.4553,-4.5226,-4.6167,-4.7545,-4.8513,-4.8919,-4.8452,-4.8754,-4.8348,-4.6495,-4.5934,-4.5833,-4.6194,-4.6287,-4.6655,-4.7433,-4.7855,-4.8279,-4.8702,-4.8336,-4.7528,-4.6259,-4.5825,-4.5513,-4.5342,-4.4861,-4.4501,-4.4276,-4.3742,-4.3515,-4.3515,-4.3515,-4.3515,-4.3515,-4.3515,-4.3277,-4.2947,-4.3332,-4.302,-4.2213,-4.1407,-4.0838,-4.0341,-3.9148,-3.8432,-3.8138,0.0,0.0,0.0,0.0,0.0,0.0,0.0,-4.4096,-4.4333,-4.5551,-4.6346,-4.6295,-4.4987,-4.4987,-4.4953,0.0,0.0,0.0,0.0,0.0,0.0,0.0,0.0,0.0,0.0,0.0,0.0,-4.8306,-4.8306,0.0,0.0,0.0,0.0,0.0,-4.7209,-4.6566,-4.5485,-4.5372,-4.5025,0.0,0.0,-4.4615,0.0,0.0,0.0,0.0,0.0,0.0,0.0,0.0,-4.5525,-4.4026,-4.4843,-4.5045,-4.4988,-4.4988,-4.5232,-4.553,-4.5711,-4.5761,-4.5776,-4.5828,-4.5738,-4.558,-4.532,-4.4851,-4.4419,-4.4175,-4.4117,-4.4247,-4.4631,-4.5502,-4.6359,-4.7008,-4.83,-4.9028,-4.8392,-4.8252,-4.7895,-4.7005,-4.5674,-4.4988,-4.5448,-4.5601,-4.59,-4.6474,-4.7174,-4.7644,-4.7836,-4.7067,-4.6317,-4.5614,-4.5594,-4.5438,-4.5096,-4.4776,-4.4406,-4.4001,-4.3662,-4.3515,-4.3515,-4.3515,-4.3515,-4.3515,-4.3515,-4.3515,-4.3515,-4.3515,-4.313,-4.2488,-4.168,-4.0873,-4.0065,-3.9258,-3.845,-3.786,0.0,0.0,0.0,0.0,0.0,0.0,0.0,-4.4654,-4.5551,-4.5686,-4.6346,-4.6481,-4.5686,-4.6194,-4.6041,0.0,0.0,0.0,0.0,0.0,0.0,0.0,0.0,0.0,0.0,0.0,0.0,-4.8306,-4.8306,0.0,0.0,0.0,0.0,0.0,0.0,-4.6119,-4.5459,-4.4906,0.0,0.0,0.0,0.0,0.0,0.0,0.0,0.0,0.0,-4.5066,-4.5009,0.0,0.0,-4.3695,-4.4486,-4.4705,-4.465,-4.465,-4.4884,-4.5222,-4.5521,-4.562,-4.5629,-4.5627,-4.54,-4.5171,-4.512,-4.4568,-4.4146,-4.4474,-4.454,-4.4644,-4.4988,-4.539,-4.5982,-4.6932,-4.7289,-4.7647,-4.8214,-4.7723,-4.7229,-4.6928,-4.6088,-4.5419,-4.518,-4.5162,-4.5189,-4.5262,-4.5621,-4.6182,-4.6962,-4.6182,-4.5691,-4.5594,-4.5594,-4.5438,-4.5096,-4.4776,-4.4406,-4.4001,-4.3662,-4.3515,-4.3515,-4.3515,-4.3515,-4.3515,-4.3515,-4.3515,-4.3515,-4.3515,-4.346,-4.3296,-4.2506,-4.1699,-4.0875,-4.0084,-3.9276,-3.8597,0.0,0.0,0.0,0.0,0.0,0.0,-4.4587,-4.4925,-4.5517,-4.687,-4.7665,-4.8003,-4.7716,-4.7953,-4.7158,-4.4818,0.0,0.0,0.0,0.0,0.0,0.0,0.0,0.0,0.0,0.0,-4.8021,-4.9797,-4.8791,0.0,0.0,0.0,0.0,0.0,0.0,-4.552,-4.4961,-4.4692,0.0,0.0,0.0,0.0,0.0,0.0,0.0,0.0,0.0,0.0,-4.5805,-4.6411,-4.5883,0.0,-4.4764,-4.4675,0.0,-4.431,-4.4638,-4.5118,-4.5253,-4.5438,-4.5594,-4.5594,-4.5285,-4.4908,-4.4628,-4.4453,-4.4332,-4.4266,-4.4587,-4.4943,-4.5074,-4.5362,-4.5725,-4.6124,-4.6762,0.0,-4.7496,-4.7331,-4.7144,-4.6982,-4.5802,-4.5022,-4.5096,-4.4701,-4.4548,-4.4769,-4.4931,-4.5152,-4.5495,-4.5563,-4.5594,-4.5594,-4.5594,-4.5342,-4.4793,-4.4676,-4.4294,-4.3693,-4.3546,-4.3515,-4.3515,-4.3515,-4.3515,-4.3515,-4.3515,-4.3515,-4.3515,-4.3515,-4.3515,-4.3369,-4.2084,-4.137,-4.093,-3.9662,-3.8964,-3.8707,0.0,0.0,0.0,0.0,0.0,-4.2658,-4.4722,-4.4773,-4.5326,-4.7327,-4.8037,-4.8511,-4.8951,-4.8426,-4.7433,-4.5993,-4.5111,0.0,0.0,0.0,0.0,0.0,0.0,0.0,0.0,0.0,-4.8311,-5.0806,-4.9462,-4.9056,0.0,0.0,-4.7194,-4.6664,0.0,0.0,0.0,0.0,0.0,0.0,0.0,0.0,0.0,0.0,0.0,0.0,0.0,0.0,0.0,0.0,0.0,0.0,0.0,0.0,0.0,0.0,-4.4455,-4.4973,-4.503,-4.5301,-4.5596,-4.5601,-4.535,-4.4984,-4.4504,-4.4506,-4.4553,-4.4354,-4.4738,-4.5118,-4.5232,-4.5438,-4.5594,0.0,0.0,-4.6863,-4.6989,-4.6889,-4.6868,-4.6984,-4.5755,-4.4954,-4.5085,-4.4548,-4.4266,-4.4419,-4.4527,-4.4593,-4.4593,-4.5044,-4.5293,-4.5293,-4.5293,-4.5022,-4.4433,-4.4414,-4.4106,-4.3515,-4.3515,-4.3515,-4.3515,-4.3515,-4.3515,-4.3515,-4.3515,-4.3515,-4.3515,-4.3515,-4.3515,-4.3404,-4.2249,-4.1645,-4.1315,-4.0194,-3.9519,-3.919,0.0,0.0,0.0,0.0,0.0,0.0,-4.3189,-4.4079,-4.5139,-4.6616,-4.6802,-4.7378,-4.8849,-4.7056,-4.6578,-4.8661,-4.6253,0.0,0.0,0.0,0.0,0.0,0.0,0.0,0.0,0.0,-4.9365,-5.0806,-5.0259,-4.9407,-4.8317,-4.8285,-4.7957,-4.7363,0.0,0.0,0.0,0.0,0.0,0.0,0.0,0.0,-4.4682,0.0,0.0,0.0,0.0,0.0,0.0,0.0,0.0,0.0,0.0,-4.4158,-4.3582,0.0,-4.4276,-4.4662,-4.4864,-4.5241,-4.5599,-4.5594,-4.5595,-4.5481,-4.499,-4.4742,-4.4682,-4.503,-4.5096,-4.5201,-4.5522,-4.5594,-4.5594,-4.5594,-4.577,0.0,-4.6891,-4.636,-4.6183,-4.6907,-4.6182,-4.5448,-4.5129,-4.4781,-4.4433,-4.4046,-4.4378,-4.4593,-4.4593,-4.4624,-4.4606,-4.4606,-4.4606,-4.4419,-4.4016,-4.4016,-4.3852,-4.3515,-4.3515,-4.3515,-4.3515,-4.3515,-4.3515,-4.3515,-4.3515,-4.3515,-4.3515,-4.3515,-4.3515,-4.3515,-4.3478,-4.2983,-4.2286,-4.2268,-4.1406,-4.0355,0.0,0.0,0.0,0.0,0.0,0.0,0.0,-4.3639,-4.4147,-4.5173,-4.616,-4.7175,-4.8156,-4.7175,-4.7106,-4.8775,-4.7133,0.0,0.0,0.0,0.0,0.0,0.0,0.0,0.0,0.0,-4.708,-4.9505,-5.0206,-5.0176,-4.9435,-4.8239,-4.7593,-4.7363,-4.6687,-4.6046,0.0,0.0,0.0,0.0,0.0,-4.4841,-4.5267,0.0,0.0,0.0,0.0,0.0,0.0,0.0,0.0,0.0,0.0,0.0,0.0,-4.3778,-4.3912,-4.4228,-4.4382,-4.4661,-4.5033,-4.5496,-4.5598,-4.5557,-4.5412,-4.5087,-4.4859,-4.5055,-4.5273,-4.5466,-4.5577,-4.5594,-4.5594,-4.5594,-4.577,0.0,-4.6224,-4.6046,-4.5891,-4.5906,-4.5076,-4.4368,-4.405,-4.3915,-4.3791,-4.3679,-4.3775,-4.3855,-4.3855,-4.3855,-4.408,-4.458,-4.4593,-4.4419,-4.3998,-4.4001,-4.3818,-4.3515,-4.3515,-4.3515,-4.3515,-4.3515,-4.3515,-4.3515,-4.3515,-4.3515,-4.3515,-4.3515,-4.3515,-4.346,-4.2892,-4.2525,-4.2231,-4.168,-4.1363,-4.1179,0.0,0.0,0.0,0.0,0.0,0.0,0.0,-4.2564,-4.2963,-4.4012,-4.4942,-4.6126,-4.772,-4.7219,-4.7561,-4.9569,-4.8862,0.0,0.0,0.0,0.0,0.0,0.0,0.0,-4.7639,-4.741,-4.7832,-4.891,-5.0772,-5.1208,-5.0259,-4.8967,-4.8335,-4.8208,-4.7532,-4.6714,0.0,0.0,0.0,0.0,-4.5267,-4.5494,-4.5908,0.0,0.0,0.0,0.0,0.0,0.0,0.0,0.0,0.0,0.0,0.0,0.0,0.0,-4.3852,-4.3987,-4.3957,-4.4455,-4.5082,-4.5496,-4.5601,-4.5599,-4.5599,-4.5379,-4.5197,-4.5273,-4.5448,-4.5594,-4.5594,-4.5594,-4.562,-4.5665,-4.5794,-4.601,-4.6334,-4.6114,-4.5758,-4.5345,-4.4664,-4.4091,-4.3726,-4.3677,-4.3629,-4.3496,-4.3515,-4.3515,-4.3515,-4.3515,-4.3712,-4.4184,-4.418,-4.4046,-4.382,-4.382,-4.371,-4.3515,-4.3515,-4.3515,-4.3515,-4.3515,-4.3515,-4.3515,-4.3515,-4.3563,0.0,-4.3677,-4.3775,-4.3878,-4.3358,-4.3172,-4.3116,-4.2615,-4.2417,-4.2427,0.0,0.0,0.0,0.0,0.0,0.0,0.0,-4.1375,-4.1875,-4.3271,-4.3447,-4.4502,-4.742,-4.7052,-4.7788,-5.074,0.0,0.0,0.0,0.0,0.0,0.0,0.0,0.0,-4.8933,-5.0751,-5.0795,-4.8861,-5.1763,-5.2455,-5.1055,-5.0395,-4.9939,-4.9613,-4.8953,-4.7842,-4.643,0.0,0.0,0.0,-4.6407,-4.643,0.0,0.0,0.0,0.0,0.0,0.0,0.0,0.0,0.0,0.0,0.0,0.0,0.0,0.0,0.0,0.0,0.0,-4.453,-4.5538,-4.5579,-4.5601,-4.5594,-4.5594,-4.5594,0.0,-4.5594,-4.5594,-4.5594,-4.5594,-4.5603,-4.5668,-4.5776,-4.5861,-4.6196,-4.7011,-4.6401,-4.5634,-4.5038,-4.4738,-4.4387,-4.3908,-4.3933,-4.3852,-4.3513,-4.3515,-4.3515,-4.3515,-4.3515,-4.3515,-4.3515,-4.3515,-4.3515,-4.3515,-4.3515,-4.3515,-4.3515,-4.3515,-4.3515,-4.3515,-4.3513,-4.3513,-4.3496,-4.3565,-4.3742,-4.3998,-4.4028,-4.4261,-4.4593,-4.4593,-4.4593,-4.4593,-4.4593,-4.4301,-4.3956,0.0,0.0,0.0,0.0,0.0,0.0,0.0,0.0,0.0,0.0,-4.372,-4.4068,-4.5885,-4.5891,-4.6953,0.0,0.0,0.0,0.0,0.0,0.0,0.0,0.0,0.0,-4.9039,-5.0486,-5.0339,-4.8432,-5.1632,-5.3349,-5.3609,-5.1992,-5.0803,-5.0043,-4.9577,-4.8559,-4.711,-4.6454,0.0,0.0,-4.6407,-4.671,0.0,0.0,0.0,0.0,-4.7332,-4.7003,0.0,0.0,0.0,0.0,0.0,0.0,0.0,0.0,-4.4001,-4.4042,-4.4285,0.0,-4.4968,-4.5477,-4.5589,-4.5594,0.0,-4.5594,0.0,0.0,0.0,0.0,-4.5594,-4.5669,-4.5749,-4.5796,-4.5938,-4.6119,-4.6321,-4.5866,-4.5075,-4.3874,-4.396,-4.3759,-4.2797,-4.3262,-4.358,-4.3515,-4.3515,-4.3515,-4.3515,-4.3515,-4.3515,-4.3515,-4.3515,-4.3515,-4.3515,-4.3515,-4.3515,-4.3515,-4.3515,-4.3515,-4.3515,-4.3775,-4.3742,-4.3531,-4.4095,-4.4209,-4.4013,-4.4318,-4.4514,-4.4593,-4.4593,-4.4593,-4.4593,-4.4593,-4.468,-4.4786,0.0,0.0,0.0,0.0,0.0,0.0,0.0,0.0,0.0,0.0,0.0,-4.4267,-4.5373,-4.6347,0.0,0.0,0.0,0.0,0.0,0.0,0.0,0.0,0.0,-5.1645,-5.0002,-5.1335,-5.157,-5.0545,-5.3106,-5.441,-5.4461,-5.3274,-5.1898,-5.0417,-4.9162,-4.8295,-4.7777,-4.7132,-4.7021,-4.7263,-4.7263,0.0,0.0,0.0,0.0,0.0,-4.7645,-4.7131,0.0,-4.5516,-4.5021,-4.4597,0.0,0.0,0.0,0.0,-4.4489,-4.4587,-4.4951,-4.4838,-4.4768,-4.5436,-4.5594,-4.5594,-4.5594,0.0,0.0,0.0,0.0,0.0,-4.5594,-4.5715,-4.5809,-4.5842,-4.599,-4.6074,-4.6013,-4.5945,-4.546,-4.4273,-4.4045,-4.3757,-4.3148,-4.3339,-4.3515,-4.3515,-4.3515,-4.3515,-4.3515,-4.3515,-4.3515,-4.3515,-4.3515,-4.3515,-4.3515,-4.3515,-4.3515,-4.3515,-4.3515,-4.3515,-4.3515,-4.3695,-4.3758,-4.3758,-4.415,-4.4387,-4.4516,-4.4745,-4.4919,-4.5055,-4.5055,-4.5055,-4.5055,-4.5055,-4.5171,-4.5312,0.0,0.0,0.0,0.0,0.0,0.0,0.0,0.0,0.0,0.0,0.0,0.0,0.0,0.0,0.0,0.0,0.0,0.0,0.0,0.0,0.0,0.0,-5.2776,-5.2651,-5.145,-5.2593,-5.3198,-5.3185,-5.4632,-5.51,-5.4669,-5.4129,-5.2789,-5.0708,-4.865,-4.7945,-4.8267,-4.7756,-4.7818,-4.8306,-4.8306,0.0,0.0,0.0,0.0,0.0,0.0,0.0,0.0,-4.5993,-4.5259,-4.4614,-4.4156,0.0,0.0,0.0,0.0,0.0,-4.5504,-4.518,-4.4878,-4.5464,-4.5601,-4.5607,-4.5607,0.0,0.0,0.0,0.0,0.0,-4.5637,-4.574,-4.583,-4.5927,-4.615,-4.6289,-4.6266,-4.6452,-4.6214,-4.5216,-4.4542,-4.4076,-4.3845,-4.3684,-4.3565,-4.3496,-4.3515,-4.3515,-4.3515,-4.3515,-4.3515,-4.3515,-4.3515,-4.3515,-4.3515,-4.3515,-4.3515,-4.3515,-4.3515,-4.3515,-4.3496,-4.3614,-4.3788,-4.4016,-4.4171,-4.4568,-4.5096,-4.5169,-4.5342,-4.5594,-4.5594,-4.5594,-4.5594,-4.5594,-4.5594,-4.5594,0.0,0.0,0.0,0.0,0.0,0.0,0.0,0.0,0.0,0.0,0.0,0.0,0.0,0.0,0.0,0.0,0.0,0.0,0.0,0.0,0.0,-5.2984,-5.3127,-5.3091,-5.2892,-5.3091,-5.3188,-5.3185,-5.3456,-5.4238,-5.5465,-5.4015,-5.2417,-5.0747,-4.9713,-4.8888,-4.8287,-4.8191,-4.8229,-4.8306,-4.8306,0.0,0.0,0.0,0.0,0.0,0.0,0.0,0.0,-4.5168,-4.48,-4.4614,-4.4156,0.0,0.0,0.0,0.0,0.0,-4.5504,-4.553,-4.5464,-4.5566,-4.5592,-4.5601,-4.5601,0.0,0.0,0.0,0.0,0.0,0.0,-4.5836,-4.5931,-4.6045,-4.6718,-4.7368,-4.7869,-4.7344,-4.6463,-4.525,-4.4992,-4.4405,-4.3117,-4.3561,-4.3804,-4.3513,-4.3515,-4.3515,-4.3515,-4.3515,-4.3515,-4.3515,-4.3515,-4.3515,-4.3515,-4.3515,-4.3515,-4.3515,-4.3515,-4.3515,-4.3513,-4.4154,-4.4261,-4.4043,-4.495,-4.5263,-4.5118,-4.541,-4.5559,-4.5594,-4.5594,-4.5594,-4.5594,-4.5594,-4.5594,-4.5594,0.0,0.0,0.0,0.0,0.0,0.0,0.0,0.0,0.0,0.0,0.0,0.0,0.0,0.0,0.0,0.0,0.0,0.0,0.0,0.0,-5.3185,-5.3185,-5.3185,-5.3185,-5.3185,-5.3185,-5.3201,-5.3195,-5.4067,-5.4447,-5.4297,-5.2676,-5.1518,-5.0747,-4.9462,-4.8673,-4.8306,-4.8306,-4.8306,-4.8306,0.0,0.0,0.0,0.0,0.0,0.0,0.0,0.0,0.0,0.0,-4.5453,-4.4944,-4.4485,0.0,0.0,0.0,0.0,0.0,-4.5559,-4.5594,-4.5594,-4.5594,-4.5603,-4.5667,-4.5911,0.0,0.0,0.0,0.0,0.0,-4.5783,-4.6244,-4.6794,-4.7402,-4.7832,-4.7979,-4.765,-4.7254,-4.6599,-4.5496,-4.5222,-4.4756,-4.3861,-4.3907,-4.3865,-4.3531,-4.3515,-4.3515,-4.3515,-4.3515,-4.3515,-4.3515,-4.3515,-4.3515,-4.3515,-4.3515,-4.3515,-4.3515,-4.3515,-4.3515,-4.3513,-4.405,-4.429,-4.4359,-4.5033,-4.5342,-4.5371,-4.555,-4.5594,-4.5594,-4.5594,-4.5594,-4.5594,-4.5594,-4.5594,-4.5594,0.0,0.0,0.0,0.0,0.0,0.0,0.0,0.0,0.0,0.0,0.0,0.0,0.0,0.0,0.0,0.0,0.0,0.0,0.0,0.0,-5.3185,-5.3185,-5.3185,-5.3185,-5.3185,-5.3203,-5.357,-5.4326,-5.5173,-5.4783,-5.3173,-5.184,-5.1069,-5.0747,-4.926,-4.8489,-4.8306,-4.8306,-4.8306,-4.8306,0.0,0.0,0.0,0.0,0.0,0.0,0.0,0.0,0.0,0.0,0.0,0.0,0.0,0.0,0.0,-4.5677,-4.5594,-4.5594,-4.5594,-4.5594,-4.5603,-4.5596,0.0,0.0,-4.6211,-4.6294,-4.6232,-4.5979,-4.5862,-4.5832,-4.5867,-4.6647,-4.7524,-4.8237,-4.8521,-4.8339,-4.7395,-4.7093,-4.6712,-4.5997,-4.5496,-4.5044,-4.4631,-4.4318,-4.3974,-4.3531,-4.3515,-4.3515,-4.3515,-4.3515,-4.3515,-4.3515,-4.3515,-4.3515,-4.3515,-4.3515,-4.3515,-4.3515,-4.3515,-4.3515,-4.3513,-4.3943,-4.4304,-4.4618,-4.5041,-4.5352,-4.5594,-4.5594,-4.5594,-4.5594,-4.5594,-4.5594,-4.5594,-4.5594,-4.5594,-4.5594,0.0,0.0,0.0,0.0,0.0,0.0,0.0,0.0,0.0,0.0,0.0,0.0,0.0,0.0,0.0,0.0,0.0,0.0,0.0,0.0,-5.3185,-5.3185,-5.3185,-5.3185,-5.3185,-5.3213,-5.4663,-5.7657,-5.6276,-5.4785,-5.3206,-5.2696,-5.188,-5.0765,-4.9884,-4.9058,-4.8306,-4.8306,-4.8306,-4.8306,-4.8306,0.0,0.0,0.0,0.0,0.0,0.0,0.0,0.0,0.0,0.0,0.0,0.0,0.0,-4.5227,-4.5523,-4.5594,-4.5594,-4.5594,-4.5594,-4.5607,-4.5599,-4.5925,0.0,-4.6292,-4.6307,-4.6299,-4.6279,-4.6079,-4.592,-4.6064,-4.6899,-4.7515,-4.7346,-4.7994,-4.8411,-4.8079,-4.7373,-4.6892,-4.6817,-4.6077,-4.5322,-4.4657,-4.4567,-4.4252,-4.3548,-4.3515,-4.3515,-4.3515,-4.3515,-4.3515,-4.3515,-4.3515,-4.3515,-4.3515,-4.3515,-4.3515,-4.3515,-4.3515,-4.3515,-4.3513,-4.4223,-4.4567,-4.465,-4.5283,-4.5577,-4.5594,-4.5594,-4.5594,-4.5594,-4.5594,-4.5594,-4.5594,-4.5594,-4.5594,-4.5594,0.0,0.0,0.0,0.0,0.0,0.0,0.0,0.0,0.0,0.0,0.0,0.0,0.0,0.0,0.0,0.0,0.0,0.0,0.0,-5.2747,-5.3185,-5.3185,-5.3185,-5.3185,-5.3185,-5.4182,-5.5779,-5.8002,-5.6051,-5.4588,-5.3564,-5.2364,-5.1409,-5.0693,-4.9633,-4.8971,-4.8657,-4.842,-4.8306,-4.8306,-4.8306,-4.8306,0.0,0.0,0.0,0.0,0.0,0.0,0.0,0.0,-4.589,-4.6057,-4.5677,-4.5854,-4.6139,-4.5722,-4.5594,-4.5594,-4.5594,-4.5594,-4.5607,-4.5594,-4.5723,0.0,0.0,-4.6296,-4.6302,-4.6302,-4.6156,-4.6215,-4.6809,-4.7219,-4.7598,-4.795,-4.8273,-4.8239,-4.7456,-4.7077,-4.6701,-4.6163,-4.5806,-4.5342,-4.4676,-4.4593,-4.4294,-4.3565,-4.3515,-4.3515,-4.3515,-4.3515,-4.3515,-4.3515,-4.3515,-4.3515,-4.3515,-4.3515,-4.3515,-4.3515,-4.3515,-4.3515,-4.3513,-4.3986,-4.4359,-4.4637,-4.5096,-4.541,-4.5594,-4.5594,-4.5594,-4.5594,-4.5594,-4.5594,-4.5594,-4.5594,-4.5594,-4.5594,0.0,0.0,0.0,0.0,0.0,0.0,0.0,0.0,0.0,0.0,0.0,0.0,0.0,0.0,0.0,0.0,0.0,0.0,-5.1555,-5.238,-5.2931,-5.3185,-5.3185,-5.3185,-5.3185,-5.4537,-5.5963,-5.7486,-5.56,-5.4246,-5.3349,-5.1711,-5.0833,-5.0647,-4.9559,-4.9011,-4.888,-4.8604,-4.8421,-4.8306,-4.8306,-4.8306,0.0,0.0,0.0,0.0,0.0,0.0,0.0,0.0,-4.5729,-4.6026,-4.5757,-4.6043,-4.6374,-4.5787,-4.5541,-4.5476,-4.5568,-4.5599,-4.5598,-4.5599,0.0,0.0,-4.6044,-4.6187,-4.6289,-4.6188,-4.6093,-4.6211,-4.6816,-4.7148,-4.7412,-4.7606,-4.7888,-4.7681,-4.6647,-4.649,-4.6278,-4.5671,-4.5594,-4.5342,-4.4676,-4.4593,-4.4294,-4.3565,-4.3515,-4.3515,-4.3515,-4.3515,-4.3515,-4.3515,-4.3515,-4.3515,-4.3515,-4.3515,-4.3515,-4.3515,-4.3515,-4.3515,-4.3513,-4.3989,-4.4332,-4.4618,-4.5074,-4.54,-4.5594,-4.5594,-4.5594,-4.5594,-4.5594,-4.5594,-4.5594,-4.5594,-4.5594,-4.5594,0.0,0.0,0.0,0.0,0.0,0.0,0.0,0.0,0.0,0.0,0.0,0.0,0.0,0.0,0.0,0.0,0.0,0.0,-5.0747,-5.1555,-5.2362,-5.3148,-5.3185,-5.3185,-5.3185,-5.3995,-5.5067,-5.6382,-5.503,-5.3734,-5.2437,-5.0853,-5.0308,-5.064,-4.9847,-4.9261,-4.8895,-4.8876,-4.8656,-4.8288,-4.8288,-4.8288,-4.8345,0.0,0.0,0.0,0.0,0.0,0.0,0.0,-4.6522,-4.5734,-4.6618,-4.6288,-4.5586,-4.5586,-4.5352,-4.518,-4.5504,-4.5592,-4.5598,-4.559,0.0,-4.6163,-4.5702,-4.5957,-4.6229,-4.5943,-4.5894,-4.5899,-4.5899,-4.6608,-4.6878,-4.5945,-4.6526,-4.6742,-4.5744,-4.5594,-4.5594,-4.5594,-4.5594,-4.5342,-4.4676,-4.4593,-4.4294,-4.3565,-4.3515,-4.3515,-4.3515,-4.3515,-4.3515,-4.3515,-4.3515,-4.3515,-4.3515,-4.3515,-4.3515,-4.3515,-4.3515,-4.3515,-4.3513,-4.427,-4.458,-4.4631,-4.5293,-4.5586,-4.5605,-4.5594,-4.5594,-4.5594,-4.5594,-4.5594,-4.5594,-4.5594,-4.5594,-4.5594,0.0,0.0,0.0,0.0,0.0,0.0,0.0,0.0,0.0,0.0,0.0,0.0,0.0,0.0,0.0,0.0,0.0,0.0,-4.9996,-5.1224,-5.2105,-5.2344,-5.2913,-5.3185,-5.3185,-5.3995,-5.4308,-5.4145,-5.3425,-5.2121,-5.0316,-5.0128,-4.9626,-4.8868,-4.8964,-4.8593,-4.7894,-4.765,-4.7811,-4.8244,-4.8244,-4.8599,-4.9174,0.0,0.0,0.0,0.0,0.0,0.0,0.0,0.0,0.0,-4.5195,-4.5098,-4.4908,-4.4908,-4.4988,-4.508,-4.4925,-4.5235,-4.5595,-4.5601,-4.5708,-4.5761,-4.5631,-4.5828,0.0,-4.5916,-4.5905,-4.5899,-4.5899,-4.6117,-4.6173,-4.5848,-4.6016,-4.6051,-4.5667,-4.5594,-4.5594,-4.5594,-4.5594,-4.5342,-4.4676,-4.4593,-4.4294,-4.3565,-4.3515,-4.3515,-4.3515,-4.3515,-4.3515,-4.3515,-4.3515,-4.3515,-4.3515,-4.3515,-4.3515,-4.3515,-4.3515,-4.3515,-4.3515,-4.3728,-4.3943,-4.4204,-4.4695,-4.5022,-4.5282,-4.5504,-4.5594,-4.5594,-4.5594,-4.5594,-4.5594,-4.5594,-4.5594,-4.5594,0.0,0.0,0.0,0.0,0.0,0.0,0.0,0.0,0.0,0.0,-5.1061,-5.1171,0.0,0.0,0.0,0.0,0.0,0.0,0.0,-5.051,-5.1336,-5.1958,-5.2454,-5.2876,-5.3185,-5.3683,-5.3371,-5.2252,-5.2416,-5.1439,-4.9408,-4.9473,-4.901,-4.8115,-4.8409,-4.8143,-4.7491,-4.7283,-4.7411,-4.7759,-4.806,-4.8508,-4.8994,0.0,0.0,0.0,0.0,0.0,0.0,0.0,0.0,0.0,-4.4726,0.0,-4.4637,-4.4745,-4.4849,-4.4916,-4.4982,-4.5192,-4.5478,-4.5799,-4.5792,-4.57,-4.562,-4.5687,-4.5802,-4.5841,-4.5817,-4.5776,-4.5776,-4.5776,-4.5777,-4.5725,-4.573,-4.5685,-4.5612,-4.5594,-4.5594,-4.5594,-4.5594,-4.5342,-4.4676,-4.4593,-4.4294,-4.3565,-4.3515,-4.3515,-4.3515,-4.3515,-4.3515,-4.3515,-4.3515,-4.3515,-4.3515,-4.3515,-4.3515,-4.3515,-4.3515,-4.3515,-4.3496,-4.3629,-4.382,-4.4028,-4.458,-4.4908,-4.5137,-4.5457,-4.5594,-4.5594,-4.5594,-4.559,-4.5601,-4.5598,-4.5592,-4.5568,0.0,0.0,-4.6892,-4.6232,0.0,0.0,0.0,0.0,0.0,0.0,-4.961,-4.9886,0.0,0.0,0.0,0.0,0.0,0.0,0.0,0.0,-5.0363,-5.183,-5.2032,-5.2454,-5.3167,-5.3133,-5.2344,-5.0802,-5.1844,-5.1245,-4.9163,-4.8884,-4.843,-4.7875,-4.7971,-4.773,-4.7339,-4.7339,-4.72,-4.7049,-4.778,-4.8134,-4.8218,-4.8597,0.0,0.0,0.0,0.0,0.0,0.0,0.0,0.0,-4.4851,-4.4501,-4.4553,-4.4853,-4.48,-4.4751,-4.5361,-4.5355,-4.5357,-4.6119,-4.6085,-4.5848,-4.5661,-4.5545,-4.5525,-4.5641,-4.558,-4.546,-4.5383,-4.5364,-4.5364,-4.5364,-4.5441,-4.5479,-4.5479,-4.5556,-4.5594,-4.5594,-4.5594,-4.5352,-4.4707,-4.4606,-4.4308,-4.3597,-4.3513,-4.3515,-4.3515,-4.3515,-4.3515,-4.3515,-4.3515,-4.3515,-4.3515,-4.3515,-4.3515,-4.3515,-4.3515,-4.3515,-4.3496,-4.382,-4.4001,-4.4087,-4.475,-4.5085,-4.518,-4.5466,-4.5577,-4.5559,-4.5598,-4.5563,-4.5546,-4.5582,-4.5608,-4.5489,0.0,0.0,-4.7241,-4.77,0.0,0.0,0.0,0.0,0.0,0.0,0.0,0.0,0.0,0.0,0.0,0.0,0.0,0.0,0.0,0.0,-5.0692,-5.1041,-5.227,-5.3023,-5.3185,-5.2582,-5.1775,-5.0802,-5.0978,-4.9864,-4.7518,-4.8017,-4.7492,-4.6172,-4.6855,-4.6723,-4.6004,-4.6004,-4.635,-4.6942,-4.7115,-4.7566,-4.8132,-4.8221,-4.7741,0.0,0.0,0.0,0.0,0.0,0.0,0.0,-4.4112,-4.3744,-4.3761,-4.382,-4.4194,-4.4669,-4.4971,-4.5327,-4.5754,-4.6182,-4.6054,-4.5817,-4.5764,-4.5152,-4.4583,-4.4622,-4.46,-4.4393,-4.3739,-4.3643,-4.3643,-4.3643,-4.4162,-4.4586,-4.4586,-4.5171,-4.5594,-4.5594,-4.5594,-4.5438,-4.5041,-4.4745,-4.4406,-4.3943,-4.3646,-4.3515,-4.3515,-4.3515,-4.3515,-4.3515,-4.3515,-4.3515,-4.3515,-4.3515,-4.3515,-4.3515,-4.3515,-4.3515,-4.3496,-4.3563,-4.3912,-4.4487,-4.4631,-4.5,-4.5495,-4.5568,-4.5438,-4.5231,-4.5509,-4.5373,-4.5111,-4.5462,-4.5603,-4.5413,0.0,0.0,0.0,0.0,0.0,0.0,0.0,0.0,0.0,0.0,0.0,0.0,0.0,0.0,0.0,0.0,-5.0129,0.0,0.0,0.0,-5.0746,-5.1355,-5.2564,-5.3023,-5.2637,-5.2197,-5.1408,-5.0215,-5.0127,-4.9016,-4.701,-4.775,-4.7201,-4.5614,-4.6067,-4.6028,-4.5594,-4.5594,-4.5855,-4.6317,-4.674,-4.7154,-4.7528,-4.7528,-4.7278,-4.6904,-4.6894,0.0,0.0,0.0,0.0,0.0,0.0,0.0,-4.3772,-4.3958,-4.4294,-4.4669,-4.4926,-4.5385,-4.5852,-4.6061,-4.6032,-4.5928,-4.5871,-4.5446,-4.4814,-4.3958,-4.3755,-4.3605,-4.3181,-4.3104,-4.3104,-4.3104,-4.3451,-4.372,-4.372,-4.4451,-4.4816,-4.4451,-4.4739,-4.4777,-4.4288,-4.3737,-4.3487,-4.3749,-4.3247,-4.3075,-4.3478,-4.313,-4.3094,-4.3496,-4.313,-4.3112,-4.3515,-4.3515,-4.3515,-4.3515,-4.3515,-4.3515,-4.3515,-4.3515,-4.3807,-4.4318,-4.4514,-4.4896,-4.5352,-4.5352,-4.5348,-4.5325,-4.5285,-4.5067,-4.481,-4.5391,-4.5166,-4.4494,0.0,0.0,0.0,0.0,0.0,0.0,0.0,0.0,0.0,0.0,0.0,0.0,0.0,0.0,-5.0062,0.0,0.0,0.0,0.0,0.0,0.0,-5.1942,-5.2766,-5.2821,-5.2013,-5.1848,-5.1059,-4.961,-4.934,-4.8447,-4.701,-4.7605,-4.7067,-4.5594,-4.5594,-4.5594,-4.5594,-4.5594,-4.5594,-4.5671,-4.6394,-4.6682,-4.6682,-4.6682,-4.6682,-4.6605,-4.6028,-4.6297,-4.6742,-4.567,0.0,0.0,0.0,0.0,-4.4161,-4.4501,-4.4631,-4.4751,-4.5011,-4.5442,-4.5814,-4.5919,-4.5991,-4.603,-4.5951,-4.5819,-4.5234,-4.3569,-4.3167,-4.3018,-4.2709,-4.2643,-4.2643,-4.2643,-4.2777,-4.2931,-4.3085,-4.3662,-4.3893,-4.3374,-4.3778,-4.3857,-4.3232,-4.251,-4.2457,-4.3316,-4.2575,-4.2433,-4.324,-4.2525,-4.2451,-4.3276,-4.2653,-4.269,-4.3496,-4.3515,-4.3515,-4.3515,-4.3515,-4.3515,-4.3515,-4.3515,-4.371,-4.4117,-4.4373,-4.472,-4.5096,-4.5041,-4.5148,-4.5318,-4.4971,-4.4669,-4.4485,-4.5026,-4.4512,-4.3494,0.0,0.0,0.0,0.0,0.0,0.0,0.0,0.0,0.0,0.0,-4.8923,-4.8754,0.0,0.0,0.0,-4.8607,-4.9225,0.0,0.0,0.0,0.0,-5.1958,-5.2766,-5.2821,-5.2013,-5.1316,-5.0508,-4.961,-4.8776,-4.7877,-4.7005,-4.7031,-4.6547,-4.5594,-4.5594,-4.5594,-4.5594,-4.5594,-4.5594,-4.5614,-4.5729,-4.5768,-4.5768,-4.5768,-4.5768,-4.5864,-4.6509,-4.6797,-4.6819,-4.6311,-4.6213,0.0,0.0,0.0,-4.4527,-4.458,-4.4812,-4.5041,-4.5085,0.0,-4.5844,-4.6028,-4.5991,-4.5953,-4.6052,-4.5443,-4.458,-4.3586,-4.3264,-4.2705,-4.1143,-4.0843,-4.0843,-4.0843,-4.1489,-4.2239,-4.2989,-4.3181,-4.347,-4.4066,-4.3624,-4.3106,-4.2732,-4.2332,-4.232,-4.285,-4.1873,-4.1625,-4.2415,-4.1699,-4.1627,-4.2433,-4.2359,-4.269,-4.3496,-4.3515,-4.3515,-4.3515,-4.3515,-4.3515,-4.3515,-4.3515,-4.3868,-4.4501,-4.4204,-4.4482,-4.5074,-4.48,-4.4562,-4.4404,-4.4561,-4.4231,-4.3654,-4.3758,-4.3654,-4.3496,0.0,0.0,0.0,0.0,0.0,0.0,0.0,0.0,0.0,0.0,0.0,-4.9102,0.0,0.0,0.0,-4.9606,-4.9942,-5.0101,-4.9922,-5.0046,0.0,-5.1279,-5.1683,-5.1463,-5.0618,-5.0288,-4.9719,-4.8875,-4.8421,-4.7796,-4.7005,-4.6936,-4.6432,-4.5594,-4.5594,-4.5594,-4.5594,-4.5594,-4.5594,-4.5565,-4.5152,-4.5283,-4.5657,-4.5159,-4.5283,-4.5758,-4.6061,-4.6163,-4.6145,-4.5966,-4.5908,-4.5812,-4.5307,0.0,0.0,0.0,-4.4977,-4.5129,-4.5332,-4.5583,-4.5815,0.0,-4.5978,-4.6025,-4.6092,-4.5834,-4.5332,-4.444,-4.4189,-4.3447,-4.1089,-4.0636,-4.061,-4.061,-4.0872,-4.12,-4.1585,-4.2066,-4.2316,-4.2189,-4.2297,-4.2242,-4.1894,-4.1162,-4.128,-4.269,-4.1332,-4.0983,-4.2231,-4.1111,-4.0799,-4.159,-4.1627,-4.2011,-4.2818,-4.3276,-4.3515,-4.3515,-4.3515,-4.3515,-4.3515,-4.3515,-4.3791,-4.4247,-4.4073,-4.4318,-4.48,-4.449,-4.44,-4.4389,-4.4098,-4.3793,-4.3515,-4.3515,-4.3515,-4.3515,0.0,0.0,0.0,0.0,0.0,0.0,0.0,0.0,0.0,0.0,0.0,0.0,0.0,0.0,0.0,0.0,-5.047,-5.0462,-5.0252,-4.9842,0.0,0.0,0.0,-5.0398,-4.9536,-4.9574,-4.9169,-4.8306,-4.8028,-4.7594,-4.6991,-4.6706,-4.622,-4.5594,-4.5594,-4.5594,-4.5594,-4.5594,-4.5486,-4.5274,-4.4722,-4.4783,-4.5136,-4.4703,-4.4961,-4.5525,-4.5615,-4.566,-4.5651,-4.5612,-4.5594,-4.5594,-4.5594,-4.5429,0.0,0.0,0.0,-4.5273,-4.5522,0.0,-4.5761,-4.579,-4.5915,-4.6047,-4.6082,-4.6175,-4.5996,-4.5104,-4.4745,-4.3895,-4.1624,-4.1116,-4.1033,-4.1033,-4.0737,-4.0573,-4.0804,-4.12,-4.1316,-4.0873,-4.12,-4.134,-4.1035,-4.0146,-4.0403,-4.2362,-4.0689,-4.0304,-4.1919,-4.0469,-3.9955,-4.0781,-4.0985,-4.148,-4.2286,-4.3094,-4.3515,-4.3515,-4.3515,-4.3515,-4.3496,-4.3277,-4.3445,-4.3881,-4.3881,-4.4091,-4.4419,-4.4124,-4.4138,-4.4271,-4.3706,-4.3515,-4.3515,-4.3515,-4.3515,-4.3515,0.0,0.0,0.0,0.0,0.0,0.0,0.0,0.0,0.0,0.0,0.0,0.0,-4.8931,-4.9923,-5.0346,-4.9548,-4.9868,-4.9806,-4.9034,-4.9363,-4.9629,-4.9665,0.0,0.0,-4.961,-4.961,-4.9169,-4.8306,-4.7473,-4.7033,-4.6972,-4.6094,-4.5633,-4.5594,-4.5594,-4.5594,-4.5594,-4.5594,-4.5202,-4.4544,-4.4518,-4.4106,-4.3616,-4.4379,-4.4714,-4.4856,-4.5531,-4.579,-4.5782,-4.5643,-4.5594,-4.5594,-4.5594,-4.5586,-4.5577,0.0,0.0,0.0,0.0,-4.5603,0.0,-4.5775,-4.5816,-4.5867,-4.6061,-4.611,-4.5893,-4.5156,-4.4336,-4.3476,-4.2499,-4.2117,-4.1941,-4.1941,-4.113,-4.0785,-4.1623,-4.1066,-4.0854,-4.1643,-4.1046,-4.0466,-4.0196,-3.9816,-4.0171,-4.1557,-3.9856,-3.946,-4.1077,-3.9643,-3.9129,-3.9937,-4.0708,-4.148,-4.2286,-4.3094,-4.3515,-4.3515,-4.3515,-4.3515,-4.3478,-4.2708,-4.2799,-4.3531,-4.3531,-4.371,-4.4016,-4.3679,-4.3549,-4.3549,-4.3515,-4.3515,-4.3515,-4.3515,-4.3515,-4.3515,0.0,0.0,0.0,0.0,0.0,0.0,0.0,0.0,0.0,0.0,0.0,0.0,0.0,-4.8937,-4.9125,-4.9375,-4.9113,-4.8711,-4.8164,-4.7553,-4.7462,-4.7976,0.0,0.0,0.0,-4.8765,-4.8494,-4.7899,-4.7834,-4.7359,-4.6536,-4.6473,-4.6144,-4.5594,-4.5594,-4.5594,-4.5603,-4.5685,-4.5244,-4.4518,-4.4636,-4.4536,-4.4273,-4.4078,-4.4663,-4.5553,-4.521,-4.5438,-4.585,-4.5763,-4.5718,-4.5715,-4.5637,-4.5594,-4.5594,-4.5594,-4.521,-4.4902,0.0,0.0,0.0,-4.5657,-4.5733,-4.5815,-4.5885,-4.602,-4.6037,-4.576,-4.5523,-4.5273,-4.4961,-4.2955,-4.133,-4.1241,-4.0895,-4.0705,-4.0935,-4.0708,-4.0816,-4.17,-4.1527,-4.1514,-4.1976,-4.1064,-4.1053,-4.2575,-4.0207,-3.9405,-4.1003,-3.9554,-3.8836,-3.9129,-3.9918,-4.0726,-4.1517,-4.2837,-4.3239,-4.2745,-4.324,-4.3222,-4.2745,-4.2965,-4.2855,-4.2526,-4.3204,-4.3563,-4.3679,-4.3548,-4.3515,-4.3515,-4.3515,-4.3515,-4.3515,-4.3515,-4.3515,-4.3515,0.0,0.0,0.0,0.0,0.0,0.0,0.0,0.0,0.0,-4.8603,0.0,0.0,0.0,0.0,-4.8231,-4.8564,-4.8156,-4.7642,-4.7129,-4.6339,-4.614,-4.6654,-4.6947,0.0,0.0,-4.8159,-4.8053,-4.749,-4.7702,-4.724,-4.6143,-4.6358,-4.6144,-4.5594,-4.5594,-4.5594,-4.5612,-4.574,-4.5325,-4.4589,-4.4731,-4.4477,-4.4003,-4.4042,-4.459,-4.529,-4.5155,-4.5472,-4.5944,-4.5847,-4.5806,-4.5814,-4.5696,-4.5442,-4.5171,-4.5171,-4.4739,-4.4489,-4.5364,0.0,0.0,-4.5594,-4.5665,-4.5747,-4.579,-4.5901,-4.6031,-4.6082,-4.5938,-4.5817,-4.5859,-4.3706,-4.1864,-4.1763,-4.1155,-4.0777,-4.0974,-4.0958,-4.1258,-4.2124,-4.2239,-4.247,-4.3047,-4.2011,-4.1856,-4.3196,-4.0684,-3.9698,-4.1022,-3.9554,-3.8817,-3.9093,-3.9625,-4.0286,-4.1095,-4.2158,-4.2433,-4.1901,-4.2433,-4.2415,-4.1919,-4.2451,-4.2398,-4.1924,-4.2455,-4.3003,-4.3515,-4.3515,-4.3515,-4.3515,-4.3515,-4.3515,-4.3515,-4.3515,-4.3515,-4.3515,0.0,0.0,0.0,0.0,0.0,0.0,0.0,0.0,-4.8067,-4.8105,0.0,0.0,0.0,0.0,0.0,-4.7038,-4.6957,-4.6645,-4.5937,-4.5847,-4.5847,-4.5865,-4.6599,0.0,0.0,-4.7865,-4.7884,-4.7095,-4.7021,-4.659,-4.5782,-4.5656,-4.5594,-4.5594,-4.5594,-4.5594,-4.5573,-4.5708,-4.5351,-4.4716,-4.4777,-4.3853,-4.2656,-4.4355,-4.4472,-4.3945,-4.5351,-4.597,-4.6074,-4.5876,-4.5849,-4.5885,-4.5795,-4.5051,-4.4239,-4.4297,-4.4278,-4.4451,0.0,0.0,0.0,-4.5594,-4.5594,-4.5635,-4.5749,-4.5796,-4.585,-4.6056,-4.5421,-4.4871,-4.4999,-4.4316,-4.371,-4.3647,-4.2023,-4.1077,-4.1917,-4.1926,-4.2162,-4.3028,-4.3143,-4.3143,-4.3162,-4.2542,-4.2473,-4.3271,-4.1222,-4.0286,-4.1058,-3.9554,-3.9056,-3.9827,-3.9882,-4.0267,-4.1022,-4.1077,-4.1095,-4.1058,-4.1095,-4.1095,-4.1095,-4.1113,-4.1425,-4.1869,-4.138,-4.2055,-4.3515,-4.3515,-4.3515,-4.3515,-4.3515,-4.3515,-4.3515,-4.3515,-4.3515,-4.3515,0.0,0.0,0.0,0.0,0.0,0.0,-4.8018,-4.753,-4.7451,0.0,0.0,0.0,-4.7163,-4.7231,-4.7021,-4.6544,-4.6272,-4.5914,-4.5421,-4.4624,-4.4415,-4.5021,-4.5241,-4.5902,-4.7076,-4.7314,-4.7294,-4.703,-4.7009,-4.6537,-4.5648,-4.5619,-4.5594,-4.5594,-4.5594,-4.5248,-4.4669,-4.4916,-4.489,-4.4709,-4.4763,-4.4537,-4.4172,-4.4616,-4.4985,-4.5277,-4.5082,-4.5482,-4.6087,-4.5917,-4.5953,-4.5901,-4.5118,-4.3757,-4.2739,-4.3932,-4.3893,-4.3739,-4.521,0.0,0.0,0.0,0.0,0.0,-4.5651,-4.5725,-4.5828,-4.5878,-4.5734,-4.56,-4.5647,-4.5028,-4.4491,-4.4461,-4.354,-4.2809,-4.285,-4.2841,-4.3108,-4.388,-4.397,-4.422,-4.4844,-4.3724,-4.3328,-4.4183,-4.2077,-4.0873,-4.1095,-3.9554,-3.8799,-3.9019,-3.9588,-3.9735,-3.9368,-4.0508,-4.0802,-4.023,-4.0836,-4.1095,-4.1113,-4.1699,-4.1939,-4.1924,-4.2564,-4.3095,-4.3515,-4.3515,-4.3515,-4.3515,-4.3515,-4.3515,-4.3515,-4.3515,-4.3515,-4.3515,0.0,0.0,-4.9367,-4.8123,0.0,-4.8188,-4.7222,-4.6663,-4.6528,0.0,0.0,0.0,-4.6297,-4.6355,-4.6215,-4.5832,-4.5501,-4.5129,-4.4721,-4.3954,-4.3699,-4.4176,-4.4525,-4.5296,-4.6562,-4.6929,-4.6996,-4.6746,-4.6746,-4.6289,-4.54,-4.54,-4.5476,-4.5575,-4.5229,-4.4778,-4.4273,-4.3813,-4.3794,-4.4147,-4.4996,-4.4882,-4.4283,-4.4947,-4.5272,-4.5384,-4.521,-4.5529,-4.6008,-4.5886,-4.5929,-4.5796,-4.4511,-4.361,-4.3111,-4.3677,-4.3771,0.0,0.0,0.0,-4.5594,-4.5594,0.0,0.0,-4.5594,-4.5657,-4.5725,-4.5783,-4.5838,-4.5876,-4.589,-4.5558,-4.5264,-4.5264,-4.4875,-4.4392,-4.3931,-4.3799,-4.404,-4.4835,-4.4875,-4.5037,-4.5556,-4.4652,-4.4195,-4.4568,-4.2872,-4.1451,-4.0634,-3.9717,-3.9056,-3.8707,-3.9148,-3.9166,-3.8707,-3.9627,-3.9863,-3.9405,-3.9882,-4.0286,-4.0616,-4.1075,-4.1517,-4.1924,-4.256,-4.3091,-4.3496,-4.3494,-4.3495,-4.3515,-4.3515,-4.3515,-4.3515,-4.3515,-4.3515,-4.3515,0.0,0.0,-4.946,-4.7686,-4.7766,-4.7528,-4.5864,-4.5594,-4.5594,0.0,-4.5594,-4.5594,-4.5594,-4.5594,-4.5485,-4.5191,-4.4849,-4.4487,-4.4087,-4.3742,-4.3548,-4.3496,-4.4195,-4.4965,-4.579,-4.6489,-4.6669,-4.6323,-4.6275,-4.5852,-4.5052,-4.5085,-4.5214,-4.5358,-4.4635,-4.4201,-4.3937,-4.2745,-4.2549,-4.3196,-4.4947,-4.4806,-4.3679,-4.5167,-4.5332,-4.488,-4.5531,-4.5819,-4.5886,-4.5832,-4.5779,-4.5508,-4.4144,-4.4109,-4.4385,-4.3602,-4.3923,0.0,0.0,0.0,0.0,-4.5632,-4.5607,0.0,-4.559,-4.5593,-4.5627,-4.5754,-4.5769,-4.5796,-4.5857,-4.5872,-4.5881,-4.5881,-4.589,-4.5666,-4.5003,-4.4767,-4.4934,-4.5712,-4.5692,-4.5593,-4.5559,-4.5243,-4.4919,-4.4618,-4.3479,-4.2025,-4.0262,-3.9992,-3.957,-3.8854,-3.8762,-3.8707,-3.8707,-3.8707,-3.8707,-3.8707,-3.8707,-3.9166,-4.0029,-3.9937,-4.0636,-4.1941,-4.1842,-4.241,-4.3368,-4.3453,-4.3491,-4.3515,-4.3515,-4.3515,-4.3515,-4.3515,-4.3515,-4.3515,-4.7523,-4.8581,-4.89,-4.6892,-4.7402,-4.7528,-4.5864,-4.5594,-4.5594,-4.5594,-4.5594,-4.5594,-4.5594,-4.5594,-4.5577,-4.5504,-4.5201,-4.4842,-4.4514,-4.4121,-4.3772,-4.3496,-4.3662,-4.4239,-4.5308,-4.5234,-4.5401,-4.5919,-4.5589,-4.5173,-4.4695,-4.4966,-4.4756,-4.4169,-4.4267,-4.3547,-4.2321,-4.2892,-4.2724,-4.2129,-4.2663,-4.3447,-4.4304,-4.4525,-4.4947,-4.5441,-4.5594,-4.5718,-4.5826,-4.5876,-4.5393,-4.4738,-4.455,-4.403,-4.3609,-4.4234,-4.453,-4.4836,-4.5618,-4.5808,-4.5769,-4.5769,-4.5673,0.0,-4.5606,-4.5603,-4.5603,-4.5627,-4.5643,-4.5632,-4.5653,-4.5756,-4.5828,-4.5828,-4.5852,-4.5842,-4.5703,-4.5657,-4.5662,-4.5789,-4.5789,-4.5603,-4.5223,-4.4896,-4.467,-4.4593,-4.3479,-4.2526,-4.1879,-4.0598,-3.9827,-3.9662,-3.9038,-3.8707,-3.8707,-3.8707,-3.8707,-3.8707,-3.8707,-3.946,-4.0838,-4.0194,-4.0744,-4.2178,-4.1534,-4.1735,-4.2597,-4.3232,-4.3491,-4.3515,-4.3515,-4.3515,-4.3515,-4.3515,-4.3515,-4.3515,-4.7533,-4.8207,-4.8299,-4.6846,-4.7089,-4.7067,-4.5787,-4.5594,-4.5594,-4.5594,-4.5594,-4.5594,-4.5594,-4.5594,-4.5594,-4.5594,-4.5283,-4.503,-4.4861,-4.4495,-4.4223,-4.405,-4.405,-4.4498,-4.5479,-4.5323,-4.5517,-4.6057,-4.5479,-4.4871,-4.4246,-4.4223,-4.4076,-4.3831,-4.3289,-4.2853,-4.2476,-4.2218,-4.1774,-4.137,-4.2815,-4.3788,-4.443,-4.4809,-4.5229,-4.5594,-4.5594,-4.5354,-4.5131,-4.5677,-4.524,-4.4538,-4.4694,-4.4702,-4.4667,-4.4726,-4.5063,-4.5462,-4.5819,-4.5879,-4.584,-4.5802,-4.5872,0.0,0.0,-4.565,-4.5688,-4.562,-4.5594,-4.5594,-4.5594,-4.5648,-4.57,-4.57,-4.5722,-4.5766,-4.5841,-4.6191,-4.6308,-4.59,-4.6143,-4.6112,-4.5505,-4.5245,-4.4966,-4.4637,-4.3858,-4.3086,-4.234,-4.1534,-4.091,-4.0506,-3.985,-3.9232,-3.8719,-3.87,-3.9114,-3.989,-3.9635,-4.0265,-4.168,-4.0873,-4.1387,-4.2818,-4.1625,-4.1791,-4.2873,-4.247,-4.2782,-4.3515,-4.3515,-4.3515,-4.3515,-4.3515,-4.3515,-4.3515,-4.754,-4.7759,-4.7605,-4.6797,-4.6797,-4.6605,-4.5729,-4.5594,-4.5612,-4.5635,-4.5635,-4.5632,-4.5653,-4.5648,-4.5635,-4.5635,-4.5381,-4.518,-4.5096,-4.4849,-4.4657,-4.4593,-4.4593,-4.4926,-4.5645,-4.5612,-4.5697,-4.5966,-4.5195,-4.4443,-4.3677,-4.3324,-4.3319,-4.3574,-4.2522,-4.2483,-4.3105,-4.166,-4.1204,-4.1612,-4.3635,-4.4193,-4.3912,-4.4786,-4.5114,-4.5114,-4.5114,-4.4662,-4.4196,-4.5003,-4.4801,-4.4285,-4.4653,-4.5253,-4.5724,-4.5226,-4.5597,-4.6115,-4.6021,-4.5981,-4.5962,-4.5903,-4.6103,-4.6204,0.0,0.0,0.0,-4.5665,-4.5635,-4.5627,-4.5603,-4.5594,-4.5594,-4.5594,-4.5594,-4.5635,-4.5747,-4.6469,-4.676,-4.6187,-4.6456,-4.6571,-4.6226,-4.5951,-4.5448,-4.4675,-4.4313,-4.3676,-4.2675,-4.2428,-4.1992,-4.1279,-4.0626,-3.9772,-3.87,-3.9022,-3.9813,-4.1096,-4.0769,-4.1199,-4.2268,-4.1462,-4.1901,-4.3185,-4.1735,-4.1937,-4.3167,-4.1708,-4.2055,-4.3515,-4.3515,-4.3515,-4.3515,-4.3515,-4.3515,-4.3515,-4.5874,-4.6509,-4.6759,-4.5893,0.0,0.0,0.0,-4.5594,-4.5643,-4.5768,-4.5789,-4.5809,-4.5867,-4.5801,-4.5789,-4.5789,-4.5629,-4.5419,-4.5118,-4.5063,-4.4908,-4.4606,-4.4593,-4.4789,-4.5163,-4.4884,-4.4757,-4.4795,-4.3937,-4.3313,-4.2926,-4.2707,-4.2614,-4.2675,-4.2867,-4.303,-4.3142,-4.2301,-4.2767,-4.4044,-4.3689,-4.2966,-4.2181,-4.3047,-4.3374,-4.3374,-4.3374,-4.3316,-4.3239,-4.3368,-4.3338,-4.3435,-4.439,-4.4779,-4.503,-4.5876,-4.6191,-4.6269,-4.6268,-4.6248,-4.6248,-4.6248,-4.6269,-4.6292,-4.6226,0.0,-4.5862,-4.579,0.0,-4.574,-4.561,0.0,0.0,-4.5594,-4.5594,-4.5603,-4.5629,-4.6364,-4.69,-4.6872,-4.6364,-4.6425,-4.747,-4.6866,-4.5918,-4.477,-4.4587,-4.4327,-4.384,-4.2851,-4.2141,-4.1814,-4.0828,-3.9776,-3.8696,-4.0099,-4.0912,-4.1093,-4.1509,-4.1914,-4.2268,-4.1462,-4.1589,-4.2396,-4.148,-4.1625,-4.2378,-4.147,-4.2055,-4.3515,-4.3515,-4.3515,-4.3515,-4.3515,-4.3515,-4.3515,-4.5594,-4.5893,-4.6028,-4.5671,0.0,0.0,0.0,0.0,-4.5733,-4.579,-4.5825,-4.5862,-4.5894,-4.5872,-4.5861,-4.5861,-4.577,-4.5665,-4.5519,-4.5437,-4.5332,-4.5201,-4.5171,-4.5243,-4.539,-4.4764,-4.4416,-4.4416,-4.3368,-4.2515,-4.1942,-4.1833,-4.2073,-4.2543,-4.2406,-4.2999,-4.4015,-4.3208,-4.2953,-4.3114,-4.3323,-4.2759,-4.1942,-4.3297,-4.3508,-4.3104,-4.3104,-4.2777,-4.2431,-4.2931,-4.2758,-4.2526,-4.3515,-4.3884,-4.4047,-4.458,-4.5114,-4.5527,-4.5459,-4.5864,-4.6288,-4.6201,-4.6231,-4.625,-4.605,-4.6017,-4.5981,-4.5886,0.0,0.0,0.0,0.0,0.0,0.0,-4.566,-4.5594,-4.5594,-4.5913,-4.6179,-4.6284,-4.641,-4.6484,-4.6526,-4.6759,-4.6364,-4.5038,-4.4751,-4.4474,-4.4028,-4.3363,-4.2947,-4.282,-4.2381,-4.1941,-4.1484,-4.2154,-4.2481,-4.2481,-4.2244,-4.2431,-4.2983,-4.2653,-4.2671,-4.2983,-4.2635,-4.2671,-4.2965,-4.2638,-4.2876,-4.3515,-4.3515,-4.3515,-4.3515,-4.3515,-4.3515,-4.3515,-4.5594,-4.5594,-4.5594,-4.5594,-4.5594,0.0,0.0,-4.5733,-4.5815,-4.5878,-4.5914,-4.5974,-4.6018,-4.5981,-4.5944,-4.5944,-4.5876,-4.5826,-4.5826,-4.5729,-4.5669,-4.5669,-4.5661,-4.5648,-4.5648,-4.4754,-4.4243,-4.4162,-4.2929,-4.2067,-4.1617,-4.1246,-4.1781,-4.3044,-4.2441,-4.3233,-4.498,-4.4124,-4.3525,-4.3179,-4.3583,-4.3114,-4.2258,-4.3239,-4.3258,-4.272,-4.247,-4.1989,-4.1546,-4.2162,-4.197,-4.1605,-4.2576,-4.2939,-4.31,-4.3434,-4.403,-4.4573,-4.467,-4.5187,-4.5741,-4.5982,-4.5861,-4.5731,-4.5851,-4.5996,-4.6072,-4.5969,-4.5944,0.0,0.0,0.0,-4.5803,-4.5803,0.0,-4.5594,-4.5594,-4.5594,-4.5712,-4.6054,-4.7015,-4.7302,-4.6481,-4.7061,-4.6972,-4.571,-4.5121,-4.4611,-4.418,-4.3853,-4.3634,-4.3496,-4.3515,-4.3495,-4.3508,-4.3508,-4.3508,-4.349,-4.2907,-4.2818,-4.3167,-4.3387,-4.3386,-4.3167,-4.3387,-4.3515,-4.3515,-4.3515,-4.3515,-4.3515,-4.3515,-4.3515,-4.3515,-4.3515,-4.3515,-4.3515,-4.5594,-4.5594,-4.5594,-4.5594,-4.5594,-4.5643,-4.5763,-4.5796,-4.5872,-4.6067,-4.6084,-4.6145,-4.6269,-4.6173,-4.6087,-4.6087,-4.5978,-4.5894,-4.5894,-4.589,-4.589,-4.589,-4.5838,-4.579,-4.579,-4.4816,-4.4143,-4.3819,-4.2476,-4.2045,0.0,-4.1123,-4.1865,-4.4212,-4.3412,-4.411,-4.5802,-4.4999,-4.5089,-4.5704,-4.4961,-4.4019,-4.297,-4.2181,-4.1865,-4.1739,-4.09,-4.0573,-4.0554,-4.0573,-4.0554,-4.0727,-4.1712,-4.2038,-4.2214,-4.3143,-4.3432,-4.3588,-4.4242,-4.4285,-4.4441,-4.5611,-4.5027,-4.4518,-4.5806,-4.6093,-4.61,-4.6088,-4.6087,-4.6047,-4.592,-4.5853,0.0,0.0,0.0,0.0,0.0,-4.5594,-4.5922,-4.6768,-4.8435,-4.922,-4.8482,-4.8331,-4.7908,-4.701,-4.5797,-4.4931,-4.4598,-4.431,-4.3963,-4.3496,-4.3515,-4.3515,-4.3496,-4.3496,-4.3496,-4.3496,-4.3478,-4.3057,-4.2359,-4.313,-4.3075,-4.2378,-4.3149,-4.3515,-4.3515,-4.3515,-4.3515,-4.3515,-4.3515,-4.3515,-4.3515,-4.3515,-4.3515,-4.3515,-4.5594,-4.5594,-4.5594,-4.5594,-4.5594,-4.5651,-4.5769,-4.5915,-4.6014,-4.6084,-4.6175,-4.6247,-4.6308,-4.6268,-4.6226,-4.6226,-4.6113,-4.6036,-4.6036,-4.594,-4.5899,-4.5899,-4.5881,-4.5853,-4.5803,-4.4891,-4.4334,-4.4134,-4.3139,-4.2736,0.0,0.0,0.0,-4.3528,-4.3778,-4.4342,-4.5129,-4.5373,-4.5342,-4.5073,-4.4628,-4.3906,-4.3066,-4.2777,-4.1931,-4.0893,-4.0612,-4.0169,-3.9708,-3.9708,-3.9323,-3.9003,-3.9923,-4.0243,-4.0455,-4.1352,-4.2053,-4.2622,-4.298,-4.4167,-4.5179,-4.4697,-4.4828,-4.5235,-4.5769,-4.5997,-4.6099,-4.6105,-4.6172,-4.6223,-4.6174,-4.6004,0.0,0.0,0.0,0.0,0.0,-4.5594,-4.5913,-4.6797,-4.7983,-4.8176,-4.6718,-4.7708,-4.7782,-4.6185,-4.5599,-4.5191,-4.494,-4.4547,-4.4092,-4.3524,-4.3503,-4.3515,-4.3515,-4.3515,-4.3515,-4.3496,-4.2947,-4.2561,-4.2304,-4.258,-4.2561,-4.2341,-4.3149,-4.3515,-4.3515,-4.3515,-4.3515,-4.3515,-4.3515,-4.3515,-4.3515,-4.3515,-4.3515,-4.3515,-4.5594,-4.5594,-4.5594,-4.5594,-4.5643,-4.5703,-4.5826,-4.5986,-4.6117,-4.6152,-4.6191,-4.6225,-4.6225,-4.6196,-4.617,-4.617,-4.6089,-4.6055,-4.609,-4.6014,-4.5989,-4.6042,-4.5995,-4.5944,-4.5906,-4.4973,-4.4472,-4.438,-4.3511,-4.3258,0.0,0.0,0.0,0.0,-4.4066,-4.4458,-4.474,-4.5553,-4.5596,-4.5107,-4.4858,-4.4085,-4.3104,-4.3104,-4.2008,-4.0496,-4.0496,-3.9977,-3.9304,-3.9304,-3.8719,-3.8104,-3.8661,-3.887,-3.9,-3.9573,-4.0388,-4.1186,-4.1616,-4.2833,-4.4056,-4.4424,-4.4758,-4.5121,-4.5609,-4.5876,-4.6004,-4.608,-4.6173,-4.6247,-4.6289,-4.6117,0.0,0.0,0.0,0.0,0.0,-4.57,-4.5885,-4.6436,-4.7534,-4.7777,-4.6604,-4.7618,-4.7714,-4.6175,-4.5746,-4.5425,-4.518,-4.4944,-4.4417,-4.3525,-4.3503,-4.3503,-4.3515,-4.3515,-4.3515,-4.3496,-4.2671,-4.2304,-4.2304,-4.2304,-4.2249,-4.2214,-4.3112,-4.3515,-4.3515,-4.3515,-4.3515,-4.3515,-4.3515,-4.3515,-4.3515,-4.3515,-4.3515,-4.3551,-4.5594,-4.5603,-4.5612,-4.5601,-4.5718,-4.5832,-4.589,-4.6014,-4.6152,-4.6269,-4.6174,-4.6065,-4.6045,-4.5962,-4.5884,-4.5825,-4.5825,-4.5885,-4.6062,-4.6045,-4.6108,-4.6289,-4.6178,-4.6095,-4.6108,-4.5094,-4.4576,-4.4563,-4.3659,-4.3624,0.0,0.0,0.0,0.0,-4.4355,-4.4497,-4.474,-4.5553,-4.5909,-4.5881,-4.563,-4.4547,-4.3104,-4.3047,-4.197,-4.0496,-4.0496,-3.9958,-3.9246,-3.9246,-3.8623,-3.7873,-3.7911,-3.793,-3.795,-3.7988,-3.8604,-3.9457,-4.0285,-4.0496,-4.1312,-4.4639,-4.4716,-4.4275,-4.5343,-4.5693,-4.585,-4.6053,-4.6082,-4.612,-4.6268,-4.618,-4.6053,0.0,0.0,0.0,0.0,-4.5853,-4.5796,-4.5796,-4.7124,-4.8038,-4.799,-4.8029,-4.7721,-4.6913,-4.6188,-4.5656,-4.5331,-4.552,-4.4997,-4.3605,-4.3525,-4.3505,-4.3496,-4.3515,-4.3515,-4.3496,-4.2671,-4.2304,-4.2304,-4.2304,-4.2159,-4.1961,-4.3039,-4.3515,-4.3515,-4.3515,-4.3515,-4.3515,-4.3515,-4.3515,-4.3515,-4.3515,-4.3533,-4.3663,-4.5594,-4.5688,-4.5757,-4.5817,-4.5852,-4.5914,-4.6033,-4.6071,-4.6119,-4.6149,-4.6036,-4.5729,-4.511,-4.5656,-4.5702,-4.4865,-4.4651,-4.4935,-4.5815,-4.5367,-4.5384,-4.6126,-4.6118,-4.6094,-4.6091,-4.5737,-4.5514,-4.5473,-4.5125,-4.5056,-4.5267,0.0,0.0,0.0,0.0,-4.5058,-4.474,-4.5553,-4.5909,-4.5822,-4.4974,-4.4008,-4.3028,-4.2374,-4.145,-4.0496,-4.0496,-3.9573,-3.8334,-3.8334,-3.7353,-3.625,-3.6846,-3.7019,-3.7161,-3.7815,-3.8438,-3.9165,-4.0211,-4.0512,-4.1016,-4.3195,-4.4465,-4.5233,-4.5533,-4.5694,-4.5803,-4.5867,-4.5924,-4.5992,-4.614,-4.6033,-4.5967,0.0,0.0,0.0,-4.5899,-4.5891,-4.5872,-4.5872,-4.672,-4.7013,-4.6315,-4.6836,-4.6855,-4.599,-4.586,-4.5767,-4.5673,-4.5958,-4.5629,-4.457,-4.3867,-4.3505,-4.3496,-4.3515,-4.3515,-4.3496,-4.2671,-4.2304,-4.2304,-4.2304,-4.2159,-4.1961,-4.3039,-4.3515,-4.3515,-4.3515,-4.3515,-4.3515,-4.3515,-4.3515,-4.3515,-4.3515,-4.3883,-4.4415,-4.5724,-4.5789,-4.5852,-4.5883,-4.5902,-4.5933,-4.5998,-4.6069,-4.608,-4.6027,-4.5587,-4.5122,-4.4656,-4.4724,-4.4535,-4.3895,-4.3734,-4.3957,-4.4623,-4.4273,-4.4506,-4.5523,-4.5586,-4.5771,-4.6179,-4.5995,-4.5886,-4.5847,-4.5692,-4.5594,-4.5594,0.0,0.0,0.0,0.0,-4.5271,-4.4752,-4.5563,-4.5901,-4.5803,-4.4723,-4.3816,0.0,-4.2143,-4.1258,-4.0458,-4.0092,-3.9123,-3.8007,-3.8007,-3.6892,-3.5577,-3.6038,-3.6173,-3.6269,-3.675,-3.7476,-3.8137,-3.8284,-3.9388,-4.0743,-4.1724,-4.3253,-4.4696,-4.5436,-4.5653,-4.5733,-4.5783,-4.5832,-4.5896,-4.5988,-4.6002,-4.6033,-4.6163,-4.6077,-4.6001,-4.6075,-4.6011,-4.5988,-4.5988,-4.6283,-4.6286,-4.5789,-4.6428,-4.6547,-4.5671,-4.6058,-4.6177,-4.5859,-4.6124,-4.5991,-4.5362,-4.414,-4.349,-4.3496,-4.3515,-4.3515,-4.3496,-4.2671,-4.2488,-4.28,-4.2343,-4.2306,-4.2636,-4.324,-4.3515,-4.3515,-4.3515,-4.3515,-4.3515,-4.3515,-4.3515,-4.3515,-4.3515,-4.4011,-4.4746,-4.592,-4.5913,-4.5916,-4.5917,-4.5916,-4.5894,-4.5892,-4.5884,-4.5845,-4.5734,-4.4965,-4.4357,-4.4163,-4.3512,-4.3008,-4.2777,-4.2758,-4.2838,-4.3054,-4.3041,-4.3509,-4.4624,-4.4792,-4.5269,-4.6093,-4.5994,-4.5916,-4.5899,-4.5708,-4.562,0.0,0.0,0.0,0.0,0.0,0.0,-4.4904,-4.559,-4.5899,-4.5803,-4.4626,-4.372,-4.2989,-4.2008,-4.1162,-4.0419,-3.9708,-3.8834,-3.7988,-3.7873,-3.6796,-3.55,-3.55,-3.55,-3.55,-3.55,-3.6199,-3.6796,-3.596,-3.7911,-4.0231,-4.0446,-4.182,-4.3464,-4.4831,-4.5389,-4.5602,-4.5599,-4.5685,-4.5796,-4.5872,-4.5995,-4.6144,-4.6248,-4.6183,-4.6173,-4.6289,-4.62,-4.6138,-4.6138,-4.5962,0.0,-4.5912,-4.6427,-4.6437,-4.5676,-4.6375,-4.6557,-4.5914,-4.6111,-4.6135,-4.5907,-4.4342,-4.3506,-4.3496,-4.3515,-4.3515,-4.3496,-4.2782,-4.2818,-4.3478,-4.2527,-4.2618,-4.3515,-4.3515,-4.3515,-4.3515,-4.3515,-4.3515,-4.3515,-4.3515,-4.3515,-4.3515,-4.3515,-4.4066,-4.4966,-4.6042,-4.5973,-4.5937,-4.6054,-4.5964,-4.5889,-4.5827,-4.5226,-4.4777,-4.4748,-4.4307,-4.3562,-4.2391,-4.2779,-4.2513,-4.1073,-4.0958,-4.1359,-4.2302,-4.216,-4.2483,-4.3463,-4.4295,-4.4851,-4.513,-4.575,-4.6001,-4.5899,-4.5814,-4.5708,0.0,0.0,0.0,0.0,0.0,0.0,-4.5698,-4.5845,-4.5899,-4.5745,-4.4008,-4.3239,-4.2931,-4.1335,-4.0631,-4.0477,-4.0342,-3.9296,-3.7892,-3.718,-3.6288,-3.55,-3.55,-3.55,-3.55,-3.55,-3.5635,-3.5962,-3.6697,-3.7654,-3.8765,-4.015,-4.182,-4.306,-4.2832,-4.4245,-4.5398,-4.4702,-4.5134,-4.568,-4.5796,-4.5967,-4.6113,-4.612,-4.6208,-4.6269,-4.6308,-4.6289,-4.6268,-4.6268,-4.6138,-4.6059,-4.6053,-4.6021,-4.5923,-4.5775,-4.5918,-4.5949,-4.5817,-4.5901,-4.5958,-4.5896,-4.4342,-4.3506,-4.3496,-4.3515,-4.3515,-4.3515,-4.3368,-4.3368,-4.3496,-4.3314,-4.3314,-4.3515,-4.3515,-4.3515,-4.3515,-4.3515,-4.3515,-4.3515,-4.3515,-4.3515,-4.3515,-4.3515,-4.4415,-4.5718,-4.6093,-4.6051,-4.5986,-4.5944,-4.5881,-4.5807,-4.5718,-4.4839,-4.4394,-4.4993,-4.4156,-4.311,-4.2124,-4.1851,-4.1408,-4.0573,-4.0496,-4.0727,-4.1285,-4.12,-4.1569,-4.253,-4.3036,-4.3806,-4.4883,-4.5215,-4.554,-4.5899,-4.5825,-4.5725,0.0,0.0,0.0,0.0,0.0,-4.5809,-4.5909,-4.5855,-4.5859,-4.5681,-4.3836,-4.3104,-4.2912,-4.117,-4.0496,-4.04,-3.9515,-3.8681,-3.793,-3.7526,-3.6538,-3.55,-3.55,-3.55,-3.55,-3.55,-3.55,-3.5808,-3.7226,-3.8015,-3.8611,-3.9411,-4.0689,-4.1917,-4.2533,-4.2824,-4.3335,-4.4699,-4.494,-4.5104,-4.5692,-4.5889,-4.5971,-4.608,-4.6149,-4.6223,-4.6289,-4.6308,-4.6308,-4.6308,-4.6177,-4.614,-4.62,-4.605,-4.592,-4.585,-4.6369,-4.6465,-4.5975,-4.7498,-4.7694,-4.6147,-4.4399,-4.3506,-4.3496,-4.3515,-4.3507,-4.3502,-4.3507,-4.3507,-4.3502,-4.349,-4.3515,-4.3515,-4.3515,-4.3515,-4.3515,-4.3515,-4.3515,-4.3515,-4.3515,-4.3515,-4.3551,-4.3975,-4.4874,-4.5902,-4.608,-4.6059,-4.5983,-4.5834,-4.5776,-4.5725,-4.5616,-4.484,-4.4454,-4.4994,-4.3599,-4.2379,-4.1881,-4.1035,-4.0496,-4.0496,-4.0496,-4.0496,-4.0496,-4.0496,-4.0841,-4.1648,-4.2059,-4.2996,-4.4553,-4.4854,-4.5302,-4.5936,-4.5901,-4.5803,-4.5658,0.0,0.0,-4.58,-4.5872,-4.5898,-4.5874,-4.5823,-4.5803,-4.5647,-4.3829,-4.3104,-4.2912,-4.117,-4.0496,-4.0304,-3.8815,-3.8161,-3.7969,-3.7796,-3.6731,-3.55,-3.55,-3.55,-3.55,-3.55,-3.55,-3.5827,-3.7305,-3.8154,-3.8635,-3.8706,-3.9618,-4.0835,-4.2129,-4.1429,-4.1264,-4.3968,-4.4402,-4.4606,-4.5578,-4.5776,-4.5856,-4.6027,-4.6082,-4.6147,-4.6289,-4.6308,-4.6308,-4.6308,-4.6202,-4.6177,-4.6289,-4.6201,-4.6108,-4.5992,-4.6742,-4.6842,-4.6048,-4.8299,-4.8561,-4.6213,-4.4433,-4.3498,-4.3503,-4.3494,-4.3502,-4.3497,-4.3502,-4.35,-4.3497,-4.3503,-4.3515,-4.3515,-4.3515,-4.3515,-4.3515,-4.3515,-4.3515,-4.3515,-4.3515,-4.3515,-4.3606,-4.4415,-4.5223,-4.592,-4.592,-4.5876,-4.582,-4.5809,-4.5699,-4.5602,-4.5605,-4.5517,-4.4938,-4.353,-4.1813,-4.0727,-4.0669,-4.0554,-4.0496,-4.0496,-4.0496,-4.0496,-4.0496,-4.0496,-4.0543,-4.0642,-4.2202,-4.3236,-4.3533,-4.5133,-4.6013,-4.6082,-4.6075,-4.5992,-4.5867,-4.5867,-4.585,-4.5802,-4.5873,-4.5874,-4.5816,-4.5802,-4.5803,-4.5647,-4.3829,-4.3104,-4.2912,-4.117,-4.0496,-4.0381,-3.9496,-3.8661,-3.7873,-3.7084,-3.6231,-3.55,-3.55,-3.55,-3.55,-3.55,-3.55,-3.5676,-3.6504,-3.7378,-3.8135,-3.839,-3.9489,-4.0441,-4.0243,-4.0353,-4.0603,-4.091,-4.2742,-4.4575,-4.5466,-4.5723,-4.582,-4.5914,-4.6027,-4.6147,-4.6289,-4.6308,-4.6308,-4.6308,-4.6289,-4.6289,-4.6308,-4.6289,-4.6288,-4.6268,-4.6245,-4.6062,-4.5679,-4.5915,-4.5958,-4.5667,-4.4255,-4.3511,-4.35,-4.35,-4.3513,-4.3493,-4.3513,-4.3513,-4.3511,-4.3513,-4.3515,-4.3515,-4.3515,-4.3515,-4.3515,-4.3515,-4.3515,-4.3515,-4.3515,-4.3515,-4.3606,-4.4415,-4.5223,-4.5993,-4.5198,-4.4903,-4.4654,-4.4252,-4.4129,-4.3984,-4.3618,-4.3569,-4.306,-4.1712,-4.0931,-4.0496,-4.0496,-4.0496,-4.0496,-4.0496,-4.0496,-4.0496,-4.0496,-4.0496,-4.0496,-4.0496,-4.1195,-4.2118,-4.3266,-4.4071,-4.4967,-4.5989,-4.6066,-4.6036,-4.5903,-4.5868,-4.583,-4.5798,-4.5822,-4.583,-4.5794,-4.5703,-4.538,-4.4793,-4.3588,-4.2797,-4.22,-4.0958,-4.0098,-3.9442,-3.8591,-3.7721,-3.6851,-3.602,-3.5637,-3.55,-3.55,-3.55,-3.55,-3.55,-3.55,-3.565,-3.6402,-3.6793,-3.7135,-3.7747,-3.8936,-4.0015,-4.0202,-4.0375,-4.0511,-4.0507,-4.253,-4.4412,-4.4759,-4.5277,-4.5711,-4.5813,-4.5914,-4.6033,-4.615,-4.6247,-4.6308,-4.6308,-4.6225,-4.6175,-4.6175,-4.6175,-4.6215,-4.6293,-4.625,-4.617,-4.6034,-4.6023,-4.5881,-4.56,-4.506,-4.4349,-4.3505,-4.3515,-4.3505,-4.3495,-4.3505,-4.3505,-4.3497,-4.3507,-4.3515,-4.3515,-4.3515,-4.3515,-4.3515,-4.3515,-4.3515,-4.3515,-4.3515,-4.3791,-4.4323,-4.5131,-4.5938,-4.6746,-4.4478,-4.3903,-4.3397,-4.2925,-4.2566,-4.2181,-4.1766,-4.2132,-4.1989,-4.066,-4.1077,-4.1439,-4.1285,-4.1035,-4.0873,-4.0873,-4.0873,-4.0766,-4.0516,-4.0496,-4.0496,-4.0496,-4.0746,-4.1499,-4.2826,-4.3417,-4.4318,-4.5553,-4.5878,-4.5991,-4.5909,-4.5854,-4.5829,-4.5802,-4.5803,-4.5769,-4.5733,-4.5643,-4.5094,-4.422,-4.3412,-4.2585,-4.1692,-4.0835,-3.9879,-3.8901,-3.8032,-3.7162,-3.6293,-3.5482,-3.5335,-3.55,-3.55,-3.55,-3.55,-3.55,-3.5381,-3.5389,-3.5955,-3.6311,-3.6644,-3.7112,-3.8183,-3.9318,-4.0076,-4.0378,-4.0566,-4.083,-4.2511,-4.4028,-4.4259,-4.5017,-4.5643,-4.5769,-4.5855,-4.5959,-4.608,-4.6222,-4.6289,-4.6247,-4.617,-4.6101,-4.61,-4.606,-4.6108,-4.6284,-4.6295,-4.6297,-4.6306,-4.6169,-4.5947,-4.5603,-4.5605,-4.4922,-4.3505,-4.3515,-4.3503,-4.3503,-4.3503,-4.3485,-4.3505,-4.3487,-4.3515,-4.3515,-4.3515,-4.3515,-4.3515,-4.3515,-4.3515,-4.3515,-4.3515,-4.3993,-4.48,-4.5608,-4.6416,-4.7223,-4.3899,-4.2989,-4.2209,-4.2209,-4.1285,-4.0535,-4.0516,-4.1974,-4.2467,-4.0737,-4.2462,-4.366,-4.3124,-4.2297,-4.1769,-4.1769,-4.1769,-4.1412,-4.0554,-4.0496,-4.0496,-4.0496,-4.1316,-4.1858,-4.2013,-4.364,-4.455,-4.4705,-4.5518,-4.5907,-4.5907,-4.5907,-4.5857,-4.5809,-4.5803,-4.5737,-4.5594,-4.5594,-4.5094,-4.422,-4.3412,-4.2585,-4.1692,-4.0835,-3.9996,-3.9181,-3.8315,-3.7423,-3.6577,-3.5769,-3.55,-3.55,-3.55,-3.55,-3.55,-3.55,-3.5132,-3.4731,-3.4868,-3.5979,-3.6968,-3.644,-3.7173,-3.8306,-3.9373,-4.0072,-4.0746,-4.1604,-4.2489,-4.3355,-4.4143,-4.5017,-4.5643,-4.5769,-4.5855,-4.5959,-4.608,-4.6222,-4.6247,-4.6117,-4.6108,-4.6103,-4.6111,-4.5972,-4.6011,-4.6284,-4.6306,-4.6306,-4.6303,-4.585,-4.5605,-4.5603,-4.5589,-4.4932,-4.3505,-4.3515,-4.3496,-4.3496,-4.3496,-4.3496,-4.3496,-4.3496,-4.3515,-4.3515,-4.3515,-4.3515,-4.3515,-4.3515,-4.3515,-4.3515,-4.3515,-4.3993,-4.48,-4.5608,-4.6416,-4.7223,-4.3573,-4.3355,-4.3239,-4.2874,-4.2027,-4.1585,-4.2181,-4.2247,-4.2239,-4.2264,-4.2904,-4.3728,-4.471,-4.3008,-4.1788,-4.1788,-4.1258,-4.0804,-4.0516,-4.0496,-4.0496,-4.0496,-4.0766,-4.1212,-4.1858,-4.2473,-4.3373,-4.4564,-4.4914,-4.5337,-4.5838,-4.5838,-4.577,-4.5657,-4.5657,-4.5643,-4.5556,-4.4979,-4.4239,-4.3412,-4.2566,-4.17,-4.0816,-3.9996,-3.9045,-3.8021,-3.7152,-3.6302,-3.5567,-3.5299,-3.5354,-3.55,-3.55,-3.55,-3.5498,-3.5507,-3.5373,-3.5179,-3.4841,-3.5105,-3.5595,-3.6154,-3.571,-3.5738,-3.7979,-3.9534,-4.0573,-4.0854,-4.1604,-4.247,-4.3335,-4.4162,-4.495,-4.5673,-4.5855,-4.5959,-4.608,-4.6144,-4.6147,-4.611,-4.5971,-4.5894,-4.5902,-4.5767,-4.5735,-4.5813,-4.6126,-4.6305,-4.6305,-4.5854,-4.6664,-4.9007,-4.5884,-4.3949,-4.349,-4.3515,-4.3515,-4.3515,-4.3515,-4.3515,-4.3515,-4.3515,-4.3515,-4.3515,-4.3515,-4.3515,-4.3515,-4.3515,-4.3809,-4.4323,-4.4323,-4.5131,-4.636,-4.6617,-4.7223,-4.7957,-4.3096,-4.3042,-4.308,-4.2756,-4.2345,-4.216,-4.2458,-4.2556,-4.2703,-4.3052,-4.3645,-4.4432,-4.5498,-4.3893,-4.2624,-4.2316,-4.1489,-4.0854,-4.0516,-4.0496,-4.0496,-4.0496,-4.0496,-4.0746,-4.1296,-4.1714,-4.2607,-4.3979,-4.4692,-4.5267,-4.5718,-4.5718,-4.5515,-4.5114,-4.5114,-4.494,-4.4633,-4.4085,-4.3374,-4.2566,-4.2019,-4.1277,-4.0458,-3.9938,-3.8919,-3.7712,-3.7502,-3.6498,-3.5296,-3.561,-3.5618,-3.55,-3.55,-3.55,-3.5498,-3.5496,-3.5201,-3.4798,-3.4437,-3.4364,-3.4755,-3.641,-3.6404,-3.6495,-3.8478,-3.975,-4.0496,-4.0496,-4.1181,-4.2066,-4.2931,-4.3758,-4.4622,-4.5634,-4.5855,-4.5924,-4.6005,-4.6075,-4.6022,-4.5817,-4.5796,-4.5785,-4.5726,-4.5654,-4.5604,-4.5596,-4.5875,-4.6039,-4.604,-4.5769,-4.6886,-4.9706,-4.5707,-4.3497,-4.3492,-4.3505,-4.3515,-4.3515,-4.3515,-4.3515,-4.3515,-4.3515,-4.3515,-4.3515,-4.3515,-4.3515,-4.3515,-4.3515,-4.3975,-4.4691,-4.4691,-4.5682,-4.7094,-4.7094,-4.7608,-4.8306,-4.2609,-4.2347,-4.2178,-4.2178,-4.2397,-4.2375,-4.1829,-4.2958,-4.3735,-4.3342,-4.4626,-4.5594,-4.5594,-4.4816,-4.3989,-4.3258,-4.2335,-4.147,-4.065,-4.0535,-4.0554,-4.0689,-4.0631,-4.0593,-4.0593,-4.1373,-4.22,-4.3008,-4.4624,-4.5441,-4.5441,-4.5441,-4.4998,-4.422,-4.422,-4.3797,-4.3104,-4.3047,-4.2547,-4.1788,-4.1731,-4.1219,-4.0496,-4.0439,-3.9457,-3.818,-3.8931,-3.768,-3.5788,-3.6538,-3.625,-3.5577,-3.5577,-3.5538,-3.55,-3.5505,-3.4757,-3.3913,-3.3923,-3.4093,-3.4849,-3.7281,-3.8779,-3.9805,-4.0364,-4.0496,-4.0496,-4.0496,-4.1143,-4.1989,-4.2931,-4.3701,-4.4572,-4.5635,-4.5861,-4.5903,-4.5912,-4.6005,-4.5893,-4.5354,-4.5596,-4.5707,-4.5519,-4.5563,-4.5596,-4.5594,-4.5504,-4.5491,-4.5519,-4.5475,-4.6226,-4.7908,-4.5065,-4.35,-4.3496,-4.3515,-4.3515,-4.3515,-4.3515,-4.3515,-4.3515,-4.3515,-4.3515,-4.3515,-4.3515,-4.3515,-4.3515,-4.3552,-4.4066,-4.4783,-4.4838,-4.581,-4.7186,-4.7186,-4.7663,-4.8306,-4.3194,-4.3573,-4.3995,-4.3995,-4.3498,-4.334,-4.3995,-4.3931,-4.4112,-4.4897,-4.5342,-4.5594,-4.5594,-4.4816,-4.422,-4.4028,-4.2662,-4.1712,-4.1508,-4.0873,-4.1093,-4.2431,-4.1854,-4.1489,-4.1489,-4.1692,-4.1904,-4.2104,-4.3162,-4.3682,-4.3682,-4.3682,-4.3585,-4.3374,-4.3374,-4.3278,-4.3066,-4.2393,-4.1981,-4.1731,-4.1085,-4.0689,-4.0439,-3.9823,-3.9342,-3.8931,-3.8469,-3.7911,-3.745,-3.7623,-3.7123,-3.6423,-3.6423,-3.5981,-3.5491,-3.5503,-3.5299,-3.51,-3.5097,-3.6961,-3.9053,-3.9683,-4.0067,-4.0329,-4.0468,-4.0496,-4.0496,-4.0496,-4.0669,-4.1277,-4.2816,-4.3258,-4.3925,-4.5603,-4.5881,-4.5948,-4.6039,-4.5992,-4.5779,-4.5357,-4.5506,-4.5344,-4.46,-4.5174,-4.5607,-4.561,-4.4594,-4.4229,-4.48,-4.4304,-4.4191,-4.4606,-4.3909,-4.3496,-4.3515,-4.3515,-4.3515,-4.3515,-4.3515,-4.3515,-4.3515,-4.3515,-4.3515,-4.3515,-4.3515,-4.3515,-4.3551,-4.4158,-4.4892,-4.5681,-4.6287,-4.7131,-4.8012,-4.8012,-4.8141,-4.8306,-4.3442,-4.3763,-4.4095,-4.4095,-4.3834,-4.3746,-4.4205,-4.4283,-4.4533,-4.5203,-4.5477,-4.5594,-4.5594,-4.519,-4.472,-4.4335,-4.3124,-4.2393,-4.2393,-4.195,-4.2104,-4.3066,-4.2643,-4.222,-4.1808,-4.1788,-4.1788,-4.1788,-4.2662,-4.3104,-4.3104,-4.3104,-4.2893,-4.2508,-4.2508,-4.2277,-4.1873,-4.1412,-4.12,-4.1162,-4.0689,-4.0496,-4.0458,-4.0015,-3.9631,-3.9284,-3.9181,-3.8642,-3.8065,-3.845,-3.8027,-3.7296,-3.7296,-3.6988,-3.6479,-3.5714,-3.5503,-3.5498,-3.5505,-3.7954,-4.0492,-4.0501,-4.0499,-4.0503,-4.0511,-4.0496,-4.0465,-4.0347,-4.0406,-4.0984,-4.2572,-4.2998,-4.3689,-4.5551,-4.5852,-4.594,-4.6164,-4.5803,-4.5433,-4.5156,-4.5126,-4.4812,-4.3966,-4.4331,-4.4644,-4.464,-4.423,-4.4025,-4.4083,-4.3924,-4.3725,-4.3524,-4.3502,-4.35,-4.3515,-4.3515,-4.3515,-4.3515,-4.3515,-4.3515,-4.3515,-4.3515,-4.3515,-4.3515,-4.3515,-4.3515,-4.3552,-4.4378,-4.5168,-4.5975,-4.6782,-4.759,-4.8306,-4.8306,-4.8306,-4.8306,-4.3515,-4.3515,-4.3515,-4.3515,-4.3742,-4.3835,-4.3544,-4.418,-4.4734,-4.4885,-4.5225,-4.5476,-4.5513,-4.5485,-4.5169,-4.4475,-4.3803,-4.337,-4.3297,-4.3109,-4.3148,-4.347,-4.3355,-4.2931,-4.2192,-4.1923,-4.1788,-4.1788,-4.2412,-4.2701,-4.2701,-4.2701,-4.2316,-4.1604,-4.1604,-4.1181,-4.0496,-4.0496,-4.0496,-4.0496,-4.0457,-4.0449,-4.0422,-4.037,-3.9975,-3.95,-4.0199,-3.9542,-3.8488,-3.9227,-3.8911,-3.82,-3.82,-3.8104,-3.7731,-3.6383,-3.5753,-3.5612,-3.6121,-3.8322,-4.0508,-4.0504,-4.0473,-4.0449,-4.0449,-4.0406,-4.0302,-4.0072,-4.0345,-4.1006,-4.222,-4.2879,-4.3778,-4.5482,-4.5792,-4.5911,-4.6192,-4.558,-4.5036,-4.4871,-4.4669,-4.4277,-4.3578,-4.3497,-4.3494,-4.3498,-4.4078,-4.4214,-4.3684,-4.3937,-4.3909,-4.3506,-4.35,-4.3515,-4.3515,-4.3515,-4.3515,-4.3515,-4.3515,-4.3515,-4.3515,-4.3515,-4.357,-4.3681,-4.3681,-4.3736,-4.392,-4.4727,-4.5461,-4.6159,-4.6966,-4.77,-4.8306,-4.8306,-4.8306,-4.8306,-4.3515,-4.3515,-4.3515,-4.3515,-4.3548,-4.3545,-4.3508,-4.3618,-4.3994,-4.4795,-4.4814,-4.4853,-4.5159,-4.4931,-4.4815,-4.4968,-4.4855,-4.4613,-4.4135,-4.3159,-4.3388,-4.5143,-4.4509,-4.4047,-4.3912,-4.2527,-4.1788,-4.1788,-4.12,-4.09,-4.09,-4.09,-4.0823,-4.0708,-4.0708,-4.0631,-4.0496,-4.0496,-4.0496,-4.0481,-4.025,-4.0158,-4.0139,-3.9851,-3.9837,-3.9986,-4.012,-4.014,-4.0131,-4.0265,-3.9765,-3.9111,-3.9111,-3.8584,-3.8046,-3.8234,-3.6964,-3.6128,-3.8943,-4.0106,-4.0508,-4.0504,-4.033,-4.0158,-4.0158,-3.9934,-3.9735,-3.9679,-4.0475,-4.1304,-4.1683,-4.2861,-4.4187,-4.5435,-4.5777,-4.5887,-4.5873,-4.5434,-4.4997,-4.467,-4.4416,-4.4061,-4.3542,-4.3489,-4.3502,-4.3506,-4.3614,-4.3894,-4.4401,-4.3906,-4.358,-4.3508,-4.3495,-4.3515,-4.3515,-4.3515,-4.3515,-4.3515,-4.3515,-4.3515,-4.3515,-4.3515,-4.3864,-4.4525,-4.4525,-4.4911,-4.559,-4.6397,-4.6801,-4.6984,-4.7791,-4.8196,-4.8306,-4.8306,-4.8306,-4.8306,-4.3515,-4.3515,-4.3515,-4.3515,-4.3515,-4.3515,-4.3515,-4.3497,-4.3711,-4.4322,-4.453,-4.4644,-4.4806,-4.4682,-4.4657,-4.4825,-4.4625,-4.4493,-4.4451,-4.4102,-4.4247,-4.5036,-4.4682,-4.4327,-4.403,-4.3037,-4.2277,-4.1788,-4.1393,-4.095,-4.0496,-4.0496,-4.0496,-4.0496,-4.0496,-4.0496,-4.0496,-4.0496,-4.0367,-4.0163,-4.0043,-3.9935,-3.9808,-3.9656,-3.9808,-4.0101,-4.0101,-4.0267,-4.0496,-4.0496,-4.0246,-3.9958,-3.9958,-3.9669,-3.94,-3.9634,-3.8996,-3.8531,-4.0084,-4.0508,-4.0512,-4.0496,-4.0304,-4.0101,-4.0101,-3.9829,-3.9665,-3.9921,-4.0549,-4.1268,-4.1996,-4.2902,-4.3979,-4.5362,-4.5675,-4.5465,-4.4677,-4.472,-4.4626,-4.4074,-4.3903,-4.3734,-4.3513,-4.35,-4.3506,-4.3506,-4.3506,-4.3652,-4.398,-4.3689,-4.3515,-4.3515,-4.3515,-4.3515,-4.3515,-4.3515,-4.3515,-4.3515,-4.3515,-4.3515,-4.3515,-4.3515,-4.3938,-4.4691,-4.4691,-4.5168,-4.5957,-4.6764,-4.7094,-4.7186,-4.7975,-4.8306,-4.8306,-4.8306,-4.8306,-4.8306,-4.3515,-4.3515,-4.3515,-4.3515,-4.3515,-4.3515,-4.3515,-4.349,-4.3618,-4.3949,-4.4209,-4.4378,-4.446,-4.4392,-4.4378,-4.446,-4.4175,-4.4132,-4.4447,-4.4707,-4.4769,-4.4624,-4.467,-4.4569,-4.4227,-4.3416,-4.2785,-4.2393,-4.192,-4.1478,-4.1112,-4.09,-4.0843,-4.0881,-4.0612,-4.0496,-4.0496,-4.0496,-4.027,-3.989,-3.9793,-3.9643,-3.9474,-3.9474,-3.9679,-3.9992,-4.0081,-4.0267,-4.0496,-4.0496,-4.0496,-4.0496,-4.0496,-4.0496,-4.0496,-4.05,-4.05,-4.05,-4.0504,-4.0496,-4.0496,-4.0496,-4.025,-4.002,-4.0229,-3.9947,-3.9819,-4.036,-4.0894,-4.1431,-4.2126,-4.2955,-4.3973,-4.5368,-4.5589,-4.517,-4.3934,-4.4104,-4.4149,-4.3681,-4.3564,-4.3515,-4.3515,-4.3515,-4.3515,-4.3515,-4.3515,-4.3515,-4.3515,-4.3515,-4.3515,-4.3515,-4.3515,-4.3515,-4.3515,-4.3515,-4.3589,-4.3773,-4.3589,-4.3606,-4.3754,-4.3589,-4.403,-4.4984,-4.4984,-4.5553,-4.6507,-4.7113,-4.7369,-4.7443,-4.8067,-4.8306,-4.8306,-4.8306,-4.8306,-4.8306,-4.3515,-4.3515,-4.3515,-4.3515,-4.3515,-4.3515,-4.3515,-4.3495,-4.3627,-4.3955,-4.3758,-4.3712,-4.4016,-4.3775,-4.3712,-4.4016,-4.4031,-4.3998,-4.4028,-4.4058,-4.4233,-4.458,-4.4896,-4.5184,-4.5463,-4.3609,-4.3111,-4.4124,-4.224,-4.1886,-4.2893,-4.2085,-4.1835,-4.2035,-4.0977,-4.0496,-4.0496,-4.0496,-4.027,-3.9881,-3.9488,-3.9263,-3.9152,-3.9152,-3.9339,-3.9668,-3.9992,-4.0267,-4.0496,-4.0496,-4.0496,-4.0496,-4.0496,-4.0496,-4.0496,-4.0496,-4.0496,-4.0496,-4.0496,-4.0496,-4.0496,-4.0496,-4.0063,-3.983,-4.058,-4.0286,-4.0089,-4.0885,-4.1804,-4.2205,-4.137,-4.3004,-4.4732,-4.5483,-4.5597,-4.5351,-4.4632,-4.3976,-4.3681,-4.3927,-4.3675,-4.3515,-4.3515,-4.3515,-4.3515,-4.3515,-4.3515,-4.3515,-4.3515,-4.3515,-4.3515,-4.3515,-4.3515,-4.3515,-4.3515,-4.3515,-4.3864,-4.4617,-4.3864,-4.3883,-4.4599,-4.3828,-4.4342,-4.581,-4.581,-4.6691,-4.8141,-4.8196,-4.8214,-4.8233,-4.8288,-4.8306,-4.8306,-4.8306,-4.8306,-4.8306,-4.3515,-4.3515,-4.3515,-4.3515,-4.3515,-4.3515,-4.3515,-4.3515,-4.3548,-4.366,-4.358,-4.3548,-4.3679,-4.358,-4.3548,-4.3695,-4.3677,-4.3677,-4.3677,-4.3677,-4.3758,-4.3915,-4.4233,-4.4476,-4.4587,-4.4101,-4.3889,-4.3981,-4.3212,-4.2938,-4.3085,-4.222,-4.1931,-4.2151,-4.1016,-4.0496,-4.0508,-4.0503,-4.0206,-3.967,-3.9138,-3.8999,-3.9112,-3.9112,-3.9426,-3.9922,-4.0042,-4.0267,-4.0496,-4.0496,-4.0496,-4.0496,-4.0496,-4.0496,-4.0496,-4.0496,-4.0496,-4.0746,-4.182,-4.1312,-4.0766,-4.184,-4.1389,-4.0819,-4.1453,-4.1276,-4.111,-4.1711,-4.2016,-4.2247,-4.2537,-4.3326,-4.3994,-4.4258,-4.4303,-4.4205,-4.3952,-4.3685,-4.3544,-4.3673,-4.358,-4.3515,-4.3515,-4.3515,-4.3515,-4.3515,-4.3515,-4.3515,-4.3515,-4.3515,-4.3515,-4.3515,-4.3515,-4.3515,-4.3515,-4.3515,-4.3662,-4.3956,-4.3662,-4.392,-4.4691,-4.4378,-4.5131,-4.6636,-4.6636,-4.7278,-4.8306,-4.8306,-4.8306,-4.8306,-4.8306,-4.8306,-4.8306,-4.8306,-4.8306,-4.8379,-4.3515,-4.3515,-4.3515,-4.3515,-4.3515,-4.3515,-4.3515,-4.3515,-4.3515,-4.3515,-4.3515,-4.3515,-4.3515,-4.3515,-4.3515,-4.3515,-4.3515,-4.3515,-4.3515,-4.3515,-4.3566,-4.3718,-4.3936,-4.4095,-4.4175,-4.4378,-4.4285,-4.3931,-4.3592,-4.3504,-4.3664,-4.3202,-4.3082,-4.3187,-4.1331,-4.0496,-4.05,-4.0509,-4.0045,-3.93,-3.9083,-3.9042,-3.9176,-3.9346,-3.986,-4.0492,-4.0596,-4.0942,-4.1266,-4.0989,-4.1093,-4.1266,-4.0989,-4.1112,-4.1324,-4.1324,-4.1181,-4.1296,-4.2478,-4.2217,-4.1851,-4.3052,-4.2515,-4.1831,-4.2358,-4.2227,-4.2103,-4.2588,-4.2526,-4.2629,-4.3365,-4.3505,-4.3506,-4.3515,-4.3488,-4.3575,-4.3811,-4.3655,-4.3532,-4.3642,-4.3546,-4.3515,-4.3515,-4.3515,-4.3515,-4.3515,-4.3515,-4.3515,-4.3515,-4.3515,-4.3515,-4.3515,-4.3515,-4.3608,-4.3864,-4.3643,-4.3643,-4.3883,-4.3883,-4.4305,-4.5094,-4.5094,-4.581,-4.7094,-4.7094,-4.7553,-4.8306,-4.8306,-4.8306,-4.8306,-4.8306,-4.8306,-4.8306,-4.8306,-4.8471,-4.8765,-4.3515,-4.3515,-4.3515,-4.3515,-4.3515,-4.3515,-4.3515,-4.3515,-4.3515,-4.3515,-4.3515,-4.3515,-4.3515,-4.3515,-4.3515,-4.3515,-4.3515,-4.3515,-4.3515,-4.3515,-4.3701,-4.4169,-4.4184,-4.4321,-4.4599,-4.4327,-4.4182,-4.4176,-4.3123,-4.3386,-4.4914,-4.5392,-4.5602,-4.5442,-4.2032,-4.0496,-4.05,-4.0509,-3.9806,-3.8749,-3.9361,-3.9477,-3.9373,-3.9916,-4.0596,-4.137,-4.1694,-4.2374,-4.297,-4.2104,-4.2374,-4.2951,-4.2077,-4.2412,-4.3104,-4.3104,-4.2684,-4.2214,-4.2214,-4.3047,-4.3899,-4.3918,-4.3263,-4.2737,-4.3208,-4.3038,-4.2939,-4.3416,-4.3515,-4.3515,-4.3515,-4.3515,-4.3515,-4.3515,-4.3496,-4.3758,-4.4504,-4.3964,-4.3631,-4.3955,-4.371,-4.3515,-4.3515,-4.3515,-4.3515,-4.3515,-4.3515,-4.3515,-4.3515,-4.3515,-4.3515,-4.3515,-4.3515,-4.3901,-4.4691,-4.3901,-4.3901,-4.4691,-4.4691,-4.5131,-4.5902,-4.5902,-4.6361,-4.7113,-4.7113,-4.7553,-4.8306,-4.8306,-4.8306,-4.8306,-4.8306,-4.8306,-4.8306,-4.8324,-4.882,-4.9499,-4.3515,-4.3515,-4.3515,-4.3515,-4.3515,-4.3515,-4.3515,-4.3515,-4.3515,-4.3515,-4.3515,-4.3515,-4.3515,-4.3515,-4.3515,-4.3515,-4.3515,-4.3515,-4.3515,-4.3515,-4.3548,-4.3701,-4.3718,-4.3749,-4.3823,-4.3761,-4.3706,-4.3702,-4.3394,-4.3735,-4.4693,-4.5322,-4.5592,-4.5442,-4.203,-4.0495,-4.05,-4.051,-4.005,-3.9302,-3.9075,-3.9739,-4.0932,-4.1089,-4.1734,-4.2577,-4.2676,-4.2874,-4.3066,-4.2797,-4.2874,-4.3047,-4.2797,-4.2893,-4.3104,-4.3104,-4.297,-4.2942,-4.3519,-4.3912,-4.4333,-4.4947,-4.4444,-4.3877,-4.414,-4.4137,-4.3952,-4.3575,-4.3515,-4.3515,-4.3515,-4.3515,-4.3515,-4.3515,-4.3767,-4.4135,-4.455,-4.4166,-4.3896,-4.3986,-4.371,-4.3515,-4.3515,-4.3515,-4.3515,-4.3515,-4.3515,-4.3515,-4.3515,-4.3515,-4.3754,-4.4323,-4.4342,-4.4727,-4.5535,-4.4176,-4.3901,-4.4691,-4.4691,-4.5131,-4.592,-4.6489,-4.7168,-4.7938,-4.7938,-4.8067,-4.8306,-4.8306,-4.8306,-4.8306,-4.8306,-4.8306,-4.8379,-4.8985,-4.9372,-4.9739,-4.3515,-4.3515,-4.3515,-4.3515,-4.3515,-4.3515,-4.3515,-4.3515,-4.3515,-4.3515,-4.3515,-4.3515,-4.3515,-4.3515,-4.3515,-4.3515,-4.3515,-4.3515,-4.3515,-4.3515,-4.3515,-4.3515,-4.3515,-4.3515,-4.3515,-4.3515,-4.3505,-4.3495,-4.3495,-4.3722,-4.4184,-4.5142,-4.5605,-4.5505,-4.3435,-4.252,-4.2467,-4.181,-4.093,-3.9984,-4.0304,-4.154,-4.3129,-4.268,-4.2945,-4.3566,-4.3566,-4.3797,-4.4028,-4.3682,-4.3566,-4.3624,-4.397,-4.4085,-4.4085,-4.4085,-4.4085,-4.4182,-4.4682,-4.4797,-4.494,-4.5477,-4.5199,-4.4795,-4.4729,-4.472,-4.449,-4.3675,-4.3507,-4.3515,-4.3515,-4.3487,-4.3511,-4.3511,-4.3738,-4.4158,-4.4893,-4.4296,-4.3912,-4.419,-4.3788,-4.3515,-4.3515,-4.3515,-4.3515,-4.3515,-4.3882,-4.3956,-4.3519,-4.4102,-4.4378,-4.4235,-4.4838,-4.5424,-4.5902,-4.5149,-4.4892,-4.5186,-4.5498,-4.5883,-4.6416,-4.7204,-4.7828,-4.8306,-4.8306,-4.8306,-4.8306,-4.8306,-4.8306,-4.8343,-4.8673,-4.8802,-4.8912,-4.9756,-5.029,-5.0694,-4.3515,-4.3515,-4.3515,-4.3515,-4.3515,-4.3515,-4.3515,-4.3515,-4.3515,-4.3515,-4.3515,-4.3515,-4.3515,-4.3515,-4.3515,-4.3515,-4.3515,-4.3515,-4.3515,-4.3515,-4.3515,-4.3515,-4.3515,-4.3515,-4.3515,-4.3515,-4.3515,-4.3515,-4.3515,-4.3494,-4.3532,-4.4819,-4.548,-4.5604,-4.5597,-4.5544,-4.5349,-4.3925,-4.2325,-4.0881,-4.2621,-4.4239,-4.5495,-4.4455,-4.4198,-4.4412,-4.4412,-4.494,-4.5479,-4.4682,-4.4412,-4.4547,-4.5344,-4.5594,-4.5594,-4.5594,-4.5594,-4.5594,-4.5594,-4.5594,-4.5594,-4.5594,-4.5594,-4.5485,-4.5053,-4.4969,-4.4689,-4.37,-4.3509,-4.3515,-4.3515,-4.3486,-4.3534,-4.3673,-4.3688,-4.4097,-4.5262,-4.4377,-4.3862,-4.446,-4.3931,-4.3515,-4.3515,-4.3497,-4.3625,-4.3916,-4.4689,-4.4764,-4.3833,-4.5185,-4.5314,-4.3871,-4.5223,-4.603,-4.6102,-4.6618,-4.6599,-4.6122,-4.6783,-4.7094,-4.7131,-4.792,-4.8306,-4.8306,-4.8306,-4.8306,-4.8306,-4.8306,-4.8361,-4.8508,-4.9298,-4.9647,-4.9812,-5.06,-5.1371,-5.1995,-4.3515,-4.3515,-4.3515,-4.3515,-4.3515,-4.3515,-4.3515,-4.3515,-4.3515,-4.3515,-4.3515,-4.3515,-4.3515,-4.3515,-4.3515,-4.3515,-4.3515,-4.3515,-4.3515,-4.3515,-4.3515,-4.3515,-4.3515,-4.3515,-4.3515,-4.3515,-4.3515,-4.3515,-4.3515,-4.3492,-4.3504,-4.3813,-4.4538,-4.5589,-4.5599,-4.5107,-4.4292,-4.4827,-4.4072,-4.2682,-4.4388,-4.5271,-4.5577,-4.5325,-4.5267,-4.5325,-4.5325,-4.5441,-4.5575,-4.5383,-4.5325,-4.5344,-4.5537,-4.5594,-4.5594,-4.5594,-4.5594,-4.5594,-4.5594,-4.5594,-4.5594,-4.5594,-4.5594,-4.5563,-4.5473,-4.5451,-4.5081,-4.3761,-4.3493,-4.3515,-4.3515,-4.351,-4.3857,-4.496,-4.5133,-4.4874,-4.4077,-4.4327,-4.4485,-4.4173,-4.3758,-4.3515,-4.3515,-4.3501,-4.4544,-4.7073,-4.6304,-4.581,-4.5993,-4.6323,-4.6471,-4.6323,-4.6452,-4.6929,-4.7772,-4.7902,-4.7885,-4.7776,-4.7315,-4.7094,-4.7131,-4.792,-4.8306,-4.8306,-4.8306,-4.8306,-4.8306,-4.8306,-4.8691,-4.9353,-4.9537,-4.9996,-5.0637,-5.1444,-5.1848,-5.2087,-4.3515,-4.3515,-4.3515,-4.3515,-4.3515,-4.3515,-4.3515,-4.3515,-4.3515,-4.3515,-4.3515,-4.3515,-4.3515,-4.3515,-4.3515,-4.3515,-4.3515,-4.3515,-4.3515,-4.3515,-4.3515,-4.3515,-4.3515,-4.3515,-4.3515,-4.3515,-4.3515,-4.3515,-4.3515,-4.35,-4.3517,-4.4191,-4.4903,-4.5592,-4.5601,-4.4968,-4.3978,-4.5122,-4.5092,-4.4372,-4.5246,-4.5593,-4.5612,-4.5594,-4.5594,-4.5594,-4.5594,-4.5594,-4.5594,-4.5594,-4.5594,-4.5594,-4.5594,-4.5594,-4.5594,-4.5594,-4.5594,-4.5594,-4.5594,-4.5594,-4.5594,-4.5594,-4.5601,-4.5522,-4.5197,-4.5111,-4.4799,-4.3722,-4.3487,-4.3515,-4.3515,-4.3502,-4.3733,-4.4482,-4.4894,-4.4751,-4.3646,-4.3923,-4.4183,-4.4023,-4.371,-4.3498,-4.35,-4.3503,-4.4819,-4.8051,-4.704,-4.6287,-4.6324,-4.704,-4.7537,-4.7663,-4.7554,-4.7738,-4.8306,-4.8306,-4.8307,-4.829,-4.7884,-4.7663,-4.7681,-4.8122,-4.8306,-4.8306,-4.8306,-4.8306,-4.8306,-4.8306,-4.8802,-4.9647,-5.0013,-5.0655,-5.1426,-5.183,-5.1995,-5.205,-4.3515,-4.3515,-4.3515,-4.3515,-4.3515,-4.3515,-4.3515,-4.3515,-4.3515,-4.3515,-4.3515,-4.3515,-4.3515,-4.3515,-4.3515,-4.3515,-4.3515,-4.3515,-4.3515,-4.3515,-4.3515,-4.3515,-4.3515,-4.3515,-4.3515,-4.3515,-4.3515,-4.3515,-4.3583,-4.3576,-4.3521,-4.493,-4.5608,-4.5613,-4.5613,-4.5074,-4.425,-4.5201,-4.5603,-4.5601,-4.5603,-4.5587,-4.5599,-4.559,-4.561,-4.5611,-4.5611,-4.5601,-4.5599,-4.5596,-4.5594,-4.5594,-4.5594,-4.5594,-4.5594,-4.5594,-4.5594,-4.5594,-4.5594,-4.5594,-4.5594,-4.5594,-4.5601,-4.5382,-4.4589,-4.4398,-4.4228,-4.362,-4.3494,-4.3515,-4.3515,-4.3506,-4.3503,-4.3509,-4.4011,-4.4192,-4.3589,-4.3494,-4.3614,-4.3881,-4.3789,-4.3646,-4.3523,-4.376,-4.5132,-4.8071,-4.7481,-4.6781,-4.634,-4.7591,-4.8309,-4.8306,-4.829,-4.829,-4.8306,-4.8306,-4.8306,-4.8306,-4.8306,-4.8306,-4.8306,-4.8306,-4.8306,-4.8306,-4.8306,-4.8306,-4.8324,-4.8471,-4.9022,-4.9904,-5.0692,-5.1499,-5.2179,-5.205,-5.1903,-5.1811,-4.3515,-4.3515,-4.3515,-4.3515,-4.3515,-4.3515,-4.3515,-4.3515,-4.3515,-4.3515,-4.3515,-4.3515,-4.3515,-4.3515,-4.3515,-4.3515,-4.3515,-4.3515,-4.3515,-4.3515,-4.3515,-4.3515,-4.3515,-4.3515,-4.3515,-4.3515,-4.3515,-4.3515,-4.3915,-4.3897,-4.3525,-4.4931,-4.5592,-4.5608,-4.5608,-4.5502,-4.5383,-4.5537,-4.5603,-4.5601,-4.5603,-4.5601,-4.5604,-4.5602,-4.5601,-4.5596,-4.5596,-4.5601,-4.5595,-4.56,-4.5594,-4.5594,-4.5594,-4.5594,-4.5594,-4.5594,-4.5594,-4.5594,-4.5594,-4.5594,-4.5594,-4.5594,-4.5601,-4.5251,-4.3964,-4.3647,-4.3605,-4.352,-4.3494,-4.3515,-4.3515,-4.3494,-4.3498,-4.35,-4.3576,-4.3605,-4.3502,-4.3504,-4.3513,-4.3546,-4.4138,-4.4271,-4.3579,-4.4766,-4.6323,-4.8163,-4.8161,-4.8048,-4.7993,-4.8177,-4.8288,-4.8306,-4.8288,-4.8288,-4.8306,-4.8306,-4.8306,-4.8306,-4.8306,-4.8306,-4.8306,-4.8306,-4.8306,-4.8306,-4.8306,-4.8306,-4.8361,-4.9095,-4.9884,-5.0729,-5.1518,-5.2325,-5.2968,-5.2252,-5.1555,-5.1059,-4.3515,-4.3515,-4.3515,-4.3515,-4.3515,-4.3515,-4.3515,-4.3515,-4.3515,-4.3515,-4.3515,-4.3515,-4.3515,-4.3515,-4.3515,-4.3515,-4.3515,-4.3515,-4.3515,-4.3515,-4.3515,-4.3515,-4.3515,-4.3515,-4.3515,-4.3515,-4.3597,-4.3772,-4.398,-4.4134,-4.4297,-4.5,-4.5426,-4.5594,-4.5594,-4.5325,-4.4874,-4.4874,-4.4605,-4.4203,-4.4193,-4.4754,-4.5519,-4.4732,-4.4442,-4.4429,-4.4429,-4.4934,-4.5603,-4.5595,-4.56,-4.5611,-4.5589,-4.5342,-4.5044,-4.5044,-4.5303,-4.5589,-4.5595,-4.5613,-4.5609,-4.5595,-4.5595,-4.5224,-4.383,-4.3497,-4.3496,-4.3494,-4.3515,-4.3515,-4.3515,-4.3515,-4.3785,-4.4705,-4.459,-4.4595,-4.5206,-4.5033,-4.4837,-4.4837,-4.5149,-4.5242,-4.4876,-4.5479,-4.6579,-4.8179,-4.8307,-4.8306,-4.8306,-4.8306,-4.8306,-4.8306,-4.8306,-4.8306,-4.8306,-4.8306,-4.8306,-4.8306,-4.8306,-4.8306,-4.8306,-4.8306,-4.8306,-4.8306,-4.8306,-4.8306,-4.8343,-4.8728,-4.9627,-5.0784,-5.0712,-5.0875,-5.1187,-5.1279,-5.082,-5.0233]},{"header":{"parameterUnit":"m.s-1","parameterCategory":1,"la1":30.6,"la2":28.766,"lo1":-90.7593,"lo2":-88.6598,"dy":0.0162,"dx":0.0183,"nx":116,"ny":114,"refTime":"2024-03-14T18:00:00:Z","depth":0,"parameterNumber":3,"parameterNumberName":"V-component_of_WINDS"},"data":[0.0,0.0,0.0,0.0,0.0,0.0,0.0,0.0,0.0,0.0,0.0,0.0,0.0,0.0,0.0,0.0,0.0,0.0,0.0,0.0,0.0,0.0,0.0,0.0,0.0,0.0,0.0,0.0,0.0,0.0,0.0,0.0,0.0,0.0,0.0,0.0,0.0,0.0,0.0,0.0,0.0,0.0,0.0,0.0,0.0,0.0,0.0,0.0,0.0,0.0,0.0,0.0,0.0,0.0,0.0,0.0,0.0,0.0,0.0,0.0,0.0,0.0,0.0,0.0,0.0,0.0,0.0,0.0,0.0,0.0,0.0,0.0,0.0,0.0,0.0,0.0,0.0,0.0,0.0,0.0,0.0,0.0,0.0,0.0,0.0,0.0,0.0,0.0,0.0,0.0,0.0,0.0,0.0,0.0,0.0,0.0,0.0,0.0,0.0,0.0,0.0,0.0,0.0,0.0,0.0,0.0,0.0,0.0,0.0,0.0,0.0,0.0,0.0,0.0,0.0,0.0,0.0,0.0,0.0,0.0,0.0,0.0,0.0,0.0,0.0,0.0,0.0,0.0,0.0,0.0,0.0,0.0,0.0,0.0,0.0,0.0,0.0,0.0,0.0,0.0,0.0,0.0,0.0,0.0,0.0,0.0,0.0,0.0,0.0,0.0,0.0,0.0,0.0,0.0,0.0,0.0,0.0,0.0,0.0,0.0,0.0,0.0,0.0,0.0,0.0,0.0,0.0,0.0,0.0,0.0,0.0,0.0,0.0,0.0,0.0,0.0,0.0,0.0,0.0,0.0,0.0,0.0,0.0,0.0,0.0,0.0,0.0,0.0,0.0,0.0,0.0,0.0,0.0,0.0,0.0,0.0,0.0,0.0,0.0,0.0,0.0,0.0,0.0,0.0,0.0,0.0,0.0,0.0,0.0,0.0,0.0,0.0,0.0,0.0,0.0,0.0,0.0,0.0,0.0,0.0,0.0,0.0,0.0,0.0,0.0,0.0,0.0,0.0,0.0,0.0,0.0,0.0,0.0,0.0,0.0,0.0,0.0,0.0,0.0,0.0,0.0,0.0,0.0,0.0,0.0,0.0,0.0,0.0,0.0,0.0,0.0,0.0,0.0,0.0,0.0,0.0,0.0,0.0,0.0,0.0,0.0,0.0,0.0,0.0,0.0,0.0,0.0,0.0,0.0,0.0,0.0,0.0,0.0,0.0,0.0,0.0,0.0,0.0,0.0,0.0,0.0,0.0,0.0,0.0,0.0,0.0,0.0,0.0,0.0,0.0,0.0,0.0,0.0,0.0,0.0,0.0,0.0,0.0,0.0,0.0,0.0,0.0,0.0,0.0,0.0,0.0,0.0,0.0,0.0,0.0,0.0,0.0,0.0,0.0,0.0,0.0,0.0,0.0,0.0,0.0,0.0,0.0,0.0,0.0,0.0,0.0,0.0,0.0,0.0,0.0,0.0,0.0,0.0,0.0,0.0,0.0,0.0,0.0,0.0,0.0,0.0,0.0,0.0,0.0,0.0,0.0,0.0,0.0,0.0,0.0,0.0,0.0,0.0,0.0,0.0,0.0,0.0,0.0,0.0,0.0,0.0,0.0,0.0,0.0,0.0,0.0,0.0,0.0,0.0,0.0,0.0,0.0,0.0,0.0,0.0,0.0,0.0,0.0,0.0,0.0,0.0,0.0,0.0,0.0,0.0,0.0,0.0,0.0,0.0,0.0,0.0,0.0,0.0,0.0,0.0,0.0,0.0,0.0,0.0,0.0,0.0,0.0,0.0,0.0,0.0,0.0,0.0,0.0,0.0,0.0,0.0,0.0,0.0,0.0,0.0,0.0,0.0,0.0,0.0,0.0,0.0,0.0,0.0,0.0,0.0,0.0,0.0,0.0,0.0,0.0,0.0,0.0,0.0,0.0,0.0,0.0,0.0,0.0,0.0,0.0,0.0,0.0,0.0,0.0,0.0,0.0,0.0,0.0,0.0,0.0,0.0,0.0,0.0,0.0,0.0,0.0,0.0,0.0,0.0,0.0,0.0,0.0,0.0,0.0,0.0,0.0,0.0,0.0,0.0,0.0,0.0,0.0,0.0,0.0,0.0,0.0,0.0,0.0,0.0,0.0,0.0,0.0,0.0,0.0,0.0,0.0,0.0,0.0,0.0,0.0,0.0,0.0,0.0,0.0,0.0,0.0,0.0,0.0,0.0,0.0,0.0,0.0,0.0,0.0,0.0,0.0,0.0,0.0,0.0,0.0,0.0,0.0,0.0,0.0,0.0,0.0,0.0,0.0,0.0,0.0,0.0,0.0,0.0,0.0,0.0,0.0,0.0,0.0,0.0,0.0,0.0,0.0,0.0,0.0,0.0,0.0,0.0,0.0,0.0,0.0,0.0,0.0,0.0,0.0,0.0,0.0,0.0,0.0,0.0,0.0,0.0,0.0,0.0,0.0,0.0,0.0,0.0,0.0,0.0,0.0,0.0,0.0,0.0,0.0,0.0,0.0,0.0,0.0,0.0,0.0,0.0,0.0,0.0,0.0,0.0,0.0,0.0,0.0,0.0,0.0,0.0,0.0,0.0,0.0,0.0,0.0,0.0,0.0,0.0,0.0,0.0,0.0,0.0,0.0,0.0,0.0,0.0,0.0,0.0,0.0,0.0,0.0,0.0,0.0,0.0,0.0,0.0,0.0,0.0,0.0,0.0,0.0,0.0,0.0,0.0,0.0,0.0,0.0,0.0,0.0,0.0,0.0,0.0,0.0,0.0,0.0,0.0,0.0,0.0,0.0,0.0,0.0,0.0,0.0,0.0,0.0,0.0,0.0,0.0,0.0,0.0,0.0,0.0,0.0,0.0,0.0,0.0,0.0,0.0,0.0,0.0,0.0,0.0,0.0,0.0,0.0,0.0,0.0,0.0,0.0,0.0,0.0,0.0,0.0,0.0,0.0,0.0,0.0,0.0,0.0,0.0,0.0,0.0,0.0,0.0,0.0,0.0,0.0,0.0,0.0,0.0,0.0,0.0,0.0,0.0,0.0,0.0,0.0,0.0,0.0,0.0,0.0,0.0,0.0,0.0,0.0,0.0,0.0,0.0,0.0,0.0,0.0,0.0,0.0,0.0,0.0,0.0,0.0,0.0,0.0,0.0,0.0,0.0,0.0,0.0,0.0,0.0,0.0,0.0,0.0,0.0,0.0,0.0,0.0,0.0,0.0,0.0,0.0,0.0,0.0,0.0,0.0,0.0,0.0,0.0,0.0,0.0,0.0,0.0,0.0,0.0,0.0,0.0,0.0,0.0,0.0,0.0,0.0,0.0,0.0,0.0,0.0,0.0,0.0,0.0,0.0,0.0,0.0,0.0,0.0,0.0,0.0,0.0,0.0,0.0,0.0,0.0,0.0,0.0,0.0,0.0,0.0,0.0,0.0,0.0,0.0,0.0,0.0,0.0,0.0,0.0,0.0,0.0,0.0,0.0,0.0,0.0,0.0,0.0,0.0,0.0,0.0,0.0,0.0,0.0,0.0,0.0,0.0,0.0,0.0,0.0,0.0,0.0,0.0,0.0,0.0,0.0,0.0,0.0,0.0,0.0,0.0,0.0,0.0,0.0,0.0,0.0,0.0,0.0,0.0,0.0,0.0,0.0,0.0,0.0,0.0,0.0,0.0,0.0,0.0,0.0,0.0,0.0,0.0,0.0,0.0,0.0,0.0,0.0,0.0,0.0,0.0,0.0,0.0,0.0,0.0,0.0,0.0,0.0,0.0,0.0,0.0,0.0,0.0,0.0,0.0,0.0,0.0,0.0,0.0,0.0,0.0,0.0,0.0,0.0,0.0,0.0,0.0,0.0,0.0,0.0,0.0,0.0,0.0,0.0,0.0,0.0,0.0,0.0,0.0,0.0,0.0,0.0,0.0,0.0,0.0,0.0,0.0,0.0,0.0,0.0,0.0,0.0,0.0,0.0,0.0,0.0,0.0,0.0,0.0,0.0,0.0,0.0,0.0,0.0,0.0,0.0,0.0,0.0,0.0,0.0,0.0,0.0,0.0,0.0,0.0,0.0,0.0,0.0,0.0,0.0,0.0,0.0,0.0,0.0,0.0,0.0,0.0,0.0,0.0,0.0,0.0,0.0,0.0,0.0,0.0,0.0,0.0,0.0,0.0,0.0,0.0,0.0,0.0,0.0,0.0,0.0,0.0,0.0,0.0,0.0,0.0,0.0,0.0,0.0,0.0,0.0,0.0,0.0,0.0,0.0,0.0,0.0,0.0,0.0,0.0,0.0,0.0,0.0,0.0,0.0,0.0,0.0,0.0,0.0,0.0,0.0,0.0,0.0,0.0,0.0,0.0,0.0,0.0,0.0,0.0,0.0,0.0,0.0,0.0,0.0,0.0,0.0,0.0,0.0,0.0,0.0,0.0,0.0,0.0,0.0,0.0,0.0,0.0,0.0,0.0,0.0,0.0,0.0,0.0,0.0,0.0,0.0,0.0,0.0,0.0,0.0,0.0,0.0,0.0,0.0,0.0,0.0,0.0,0.0,0.0,0.0,0.0,0.0,0.0,0.0,0.0,0.0,0.0,0.0,0.0,0.0,0.0,0.0,0.0,0.0,0.0,0.0,0.0,0.0,0.0,0.0,0.0,0.0,0.0,0.0,0.0,0.0,0.0,0.0,0.0,0.0,0.0,0.0,0.0,0.0,0.0,0.0,0.0,0.0,0.0,0.0,0.0,0.0,0.0,0.0,0.0,0.0,0.0,0.0,0.0,0.0,0.0,0.0,0.0,0.0,0.0,0.0,0.0,0.0,0.0,0.0,0.0,0.0,0.0,0.0,0.0,0.0,0.0,0.0,0.0,0.0,0.0,0.0,0.0,0.0,0.0,0.0,0.0,0.0,0.0,0.0,0.0,0.0,0.0,0.0,0.0,0.0,0.0,0.0,0.0,0.0,0.0,0.0,0.0,0.0,0.0,0.0,0.0,0.0,0.0,0.0,0.0,0.0,0.0,0.0,0.0,0.0,0.0,0.0,0.0,0.0,0.0,0.0,0.0,0.0,0.0,0.0,0.0,0.0,0.0,0.0,0.0,0.0,0.0,0.0,0.0,0.0,0.0,0.0,0.0,0.0,0.0,0.0,0.0,0.0,0.0,0.0,0.0,0.0,0.0,0.0,0.0,0.0,0.0,0.0,0.0,0.0,0.0,0.0,0.0,0.0,0.0,0.0,0.0,0.0,0.0,0.0,0.0,0.0,0.0,0.0,0.0,0.0,0.0,0.0,0.0,0.0,0.0,0.0,0.0,0.0,0.0,0.0,0.0,0.0,0.0,0.0,0.0,0.0,0.0,0.0,0.0,0.0,0.0,0.0,0.0,0.0,0.0,0.0,0.0,0.0,0.0,0.0,0.0,0.0,0.0,0.0,0.0,0.0,0.0,0.0,0.0,0.0,0.0,0.0,0.0,0.0,0.0,0.0,0.0,0.0,0.0,0.0,0.0,0.0,0.0,0.0,0.0,0.0,0.0,0.0,0.0,0.0,0.0,0.0,0.0,0.0,0.0,0.0,0.0,0.0,0.0,0.0,0.0,0.0,0.0,0.0,0.0,0.0,0.0,0.0,0.0,0.0,0.0,0.0,0.0,0.0,0.0,0.0,0.0,0.0,0.0,0.0,0.0,0.0,0.0,0.0,0.0,0.0,0.0,0.0,0.0,0.0,0.0,0.0,0.0,0.0,0.0,0.0,0.0,0.0,0.0,0.0,0.0,0.0,0.0,0.0,0.0,0.0,0.0,0.0,0.0,0.0,0.0,0.0,0.0,0.0,0.0,0.0,0.0,0.0,0.0,0.0,0.0,0.0,0.0,0.0,0.0,0.0,0.0,0.0,0.0,0.0,0.0,0.0,0.0,0.0,0.0,0.0,0.0,0.0,0.0,0.0,0.0,0.0,0.0,0.0,0.0,0.0,0.0,0.0,0.0,0.0,0.0,0.0,0.0,0.0,0.0,0.0,0.0,0.0,0.0,0.0,0.0,0.0,0.0,0.0,0.0,0.0,0.0,0.0,0.0,0.0,0.0,0.0,0.0,0.0,0.0,0.0,0.0,0.0,0.0,0.0,0.0,0.3791,0.2386,0.0,0.0,0.0,0.0,0.0,0.0,0.0,0.0,0.0,0.0,0.0,0.0,0.0,0.0,0.0,0.0,0.0,0.0,0.0,0.0,0.0,0.0,0.0,0.0,0.0,0.0,-2.2735,-2.1758,-2.0624,-2.1229,-2.1308,-2.0615,-2.0771,-2.0299,-1.9045,-1.7333,-1.5121,-1.2252,-0.881,-0.6251,-0.4589,-0.575,-0.7327,-0.9305,0.0,0.0,0.0,0.0,0.0,0.0,0.0,0.0,0.0,0.0,0.0,0.0,0.0,0.0,0.0,0.0,0.0,0.0,0.0,0.0,0.0,0.0,0.0,0.0,0.0,0.0,0.0,0.0,0.0,0.0,0.0,0.0,0.0,0.0,0.0,0.0,0.0,0.0,0.0,0.0,0.0,0.0,0.0,0.0,0.0,0.0,0.0,0.0,0.0,0.0,0.0,0.0,0.0,0.0,0.0,0.0,0.0,0.0,0.0,0.0,0.0,0.0,0.0,0.0,0.0,0.0,0.0,0.0,0.0,0.0,0.7033,0.5859,0.0,0.0,0.0,0.0,0.0,0.0,0.0,0.0,0.0,0.0,0.0,0.0,0.0,0.0,0.0,0.0,0.0,0.0,0.0,0.0,0.0,0.0,0.0,-2.5111,-2.3266,-2.081,-2.0641,-2.024,-1.9163,-2.0484,-2.1113,-2.0625,-2.0996,-2.0408,-1.8727,-1.6676,-1.3807,-1.0119,-0.6257,-0.3233,-0.1154,-0.1218,-0.3054,-0.6323,-1.0121,0.0,0.0,0.0,0.0,0.0,0.0,0.0,0.0,0.0,0.0,0.0,0.0,0.0,0.0,0.0,0.0,0.0,0.0,0.0,0.0,0.0,0.0,0.0,0.0,0.0,0.0,0.0,0.0,0.0,0.0,0.0,0.0,0.0,0.0,0.0,0.0,0.0,0.0,0.0,0.0,0.0,0.0,0.0,0.0,0.0,0.0,0.0,0.0,0.0,0.0,0.0,0.0,0.0,0.0,0.0,0.0,0.0,0.0,0.0,0.0,0.0,0.0,0.0,1.2988,1.1876,1.0988,1.206,1.1915,1.0706,0.9723,0.9055,0.8539,0.7208,0.0,0.0,0.0,0.0,0.0,0.0,0.0,0.0,0.0,0.0,0.0,0.0,0.0,0.0,0.0,0.0,0.0,0.0,0.0,0.0,0.0,-2.3353,-2.1104,-2.1343,-2.0357,-1.963,-1.938,-2.0869,-2.1435,-2.0644,-2.0996,-2.0037,-1.7594,-1.6269,-1.3435,-0.9022,-0.3332,0.0185,0.1468,0.0426,-0.0897,-0.2636,-0.6259,-0.8379,-0.9559,0.0,0.0,0.0,0.0,0.0,0.0,0.0,0.0,0.0,0.0,0.0,0.0,0.0,0.0,0.0,0.0,0.0,0.0,0.0,0.0,0.0,0.0,0.0,0.0,0.0,0.0,0.0,0.0,0.0,0.0,0.0,0.0,0.0,0.0,0.0,0.0,0.0,0.0,0.0,0.0,0.0,0.3352,0.3456,0.0,0.0,0.0,0.0,0.0,0.0,0.0,0.0,0.0,0.0,0.0,0.0,0.0,1.6446,1.662,1.6669,1.6688,1.6686,1.5705,1.5203,1.5032,1.5194,1.5168,1.4981,1.481,0.0,1.1129,0.9907,0.0,0.0,0.0,0.0,0.0,0.0,0.0,0.0,0.0,0.0,0.0,0.0,0.0,0.0,0.0,0.0,0.0,0.0,0.0,0.0,0.0,-2.1716,-1.9674,-1.8829,-1.8982,-1.9076,-1.887,-2.0992,-2.1963,-2.1378,-2.1494,-2.0382,-1.7738,-1.5022,-1.0439,-0.3866,-0.0472,0.1451,0.1887,0.1448,0.0483,-0.0919,-0.389,-0.6224,-0.813,-1.2663,0.0,0.0,0.0,0.0,0.0,0.0,0.0,0.0,0.0,0.0,0.0,0.0,0.0,0.0,0.0,0.0,0.0,0.0,0.0,0.0,0.0,0.0,0.0,0.0,0.0,0.0,0.0,0.0,0.0,0.0,0.0,0.0,0.0,0.0,0.0,0.0,0.0,0.0,0.0,0.2805,0.4164,0.4942,0.3997,0.3182,0.0,0.0,0.0,0.0,0.0,0.0,0.0,0.0,0.0,1.6015,1.807,1.9436,2.0048,1.9708,1.9151,1.848,1.737,1.648,1.5784,1.5784,1.5784,1.5784,1.5784,1.5123,1.3909,1.2635,1.1674,1.0813,0.0,0.0,0.0,0.0,0.9056,0.9055,0.0,0.0,0.0,0.0,0.0,0.0,0.0,0.0,0.0,0.0,0.0,0.0,-2.309,-2.0794,-1.8836,-1.7476,-1.8003,-1.8431,-1.8477,-2.0834,-2.2034,-2.1748,-2.1559,-2.0195,-1.7473,-1.2758,-0.694,0.0046,0.1349,0.1962,0.1849,0.195,0.1123,-0.0538,-0.2787,-0.4835,-0.6934,-1.1192,-1.3088,-1.3341,0.0,0.0,0.0,0.0,0.0,0.0,0.0,0.0,0.0,0.0,0.0,0.0,0.0,0.0,0.0,0.0,0.0,0.0,0.0,0.0,0.0,0.0,0.0,0.0,0.0,0.0,0.0,0.0,0.0,0.0,0.0,0.0,0.0,0.0,0.0,0.0,0.0,0.4501,0.5268,0.6166,0.6014,0.555,0.0,0.0,0.0,0.0,0.0,0.0,1.3656,1.526,1.7028,1.905,2.0625,2.1714,2.2174,2.129,2.0215,1.8993,1.7816,1.6709,1.5784,1.5784,1.5784,1.5784,1.5784,1.5784,1.573,1.48,1.3719,1.2711,1.2507,1.2368,1.2273,1.2299,1.2231,1.2188,0.0,0.0,0.0,0.0,0.0,0.0,0.0,0.0,0.0,0.0,0.0,-2.4334,-2.4648,-2.0948,-1.8731,-1.929,-1.8098,-1.7686,-1.8697,-2.0421,-2.1343,-2.1238,-2.0615,-1.8866,-1.5786,-0.909,-0.3712,0.0184,0.1387,0.2013,0.2003,0.1977,0.0679,-0.1754,-0.3194,-0.438,-0.562,-0.9318,-1.1397,-1.2379,-1.357,0.0,0.0,0.0,0.0,0.0,0.0,0.0,0.0,0.0,0.0,0.0,0.0,0.0,0.0,0.0,0.0,0.0,0.0,0.0,0.0,0.0,0.0,0.0,0.0,0.0,0.0,0.0,0.0,0.0,0.0,0.0,0.0,0.0,0.0,0.0,0.0,0.0,0.0,0.7516,0.6629,0.0,0.0,0.0,0.0,0.9477,1.171,1.3595,1.4939,1.747,1.9501,2.0723,2.2201,2.2463,2.1355,2.0161,1.9001,1.7777,1.648,1.5872,1.5784,1.5784,1.5784,1.5784,1.5784,1.5784,1.5784,1.573,1.5676,1.5466,1.4262,1.3819,1.373,1.3449,1.331,1.3455,0.0,0.0,0.0,0.0,0.0,0.0,0.0,0.0,-2.7769,-2.6658,-2.5154,-2.4078,-2.3662,-2.0697,-1.8613,-1.8372,-1.7842,-1.7995,-1.9163,-2.0271,-2.1228,-2.1987,-2.0792,-1.7379,-1.1532,-0.6624,-0.2746,0.0094,0.0523,0.0336,-0.0434,-0.0432,-0.1344,-0.3028,-0.4362,-0.5104,-0.5514,-0.7426,-0.8403,-0.8768,-0.989,-1.0376,0.0,0.0,0.0,0.0,0.0,0.0,0.0,0.0,0.0,0.0,0.0,0.0,0.0,0.0,0.0,0.0,0.0,0.0,0.0,0.0,0.0,0.0,0.0,0.0,0.0,0.0,0.0,0.0,0.0,0.0,0.0,0.0,0.0,0.0,0.0,0.0,0.0,0.765,0.7388,0.0,0.8788,0.9768,1.0844,1.2174,1.3882,1.5445,1.6709,1.8411,1.9928,2.1129,2.1673,2.1756,2.1293,2.0079,1.891,1.7684,1.7225,1.6574,1.5784,1.5784,1.5784,1.5784,1.5784,1.6244,1.7037,1.7037,1.7037,1.703,1.736,1.7026,1.6337,1.6227,1.5518,1.4758,0.0,0.0,0.0,0.0,0.0,0.0,0.0,0.0,-2.7335,-2.6317,-2.5143,-2.4127,-2.3407,-2.1176,-1.951,-1.8977,-1.8549,-1.8818,-2.0034,-2.0607,-2.1209,-2.184,-1.8709,-1.4065,-0.7967,-0.4585,-0.2154,-0.0608,-0.0613,-0.123,-0.2413,-0.2343,-0.3128,-0.4674,-0.5602,-0.6382,-0.7005,-0.6969,-0.6678,-0.6307,-0.6639,-0.7007,-0.7435,0.0,0.0,0.0,0.0,0.0,0.0,0.0,0.0,0.0,0.0,0.0,0.0,0.0,0.0,0.0,0.0,0.0,0.0,0.0,0.0,0.0,0.0,0.0,0.0,0.0,0.0,0.0,0.0,0.0,0.0,0.0,0.0,0.0,0.0,0.6241,0.6868,0.7661,0.7828,0.8494,1.0099,1.1166,1.2484,1.4256,1.5287,1.6339,1.7645,1.8457,1.9451,2.0657,2.0702,2.0486,2.0079,1.9314,1.8272,1.7037,1.7037,1.6622,1.5784,1.5784,1.6015,1.6433,1.6433,1.7171,1.8319,1.8726,1.8838,1.875,1.931,1.8772,1.7677,1.755,1.665,1.5364,0.0,0.0,0.0,0.0,0.0,0.0,0.0,-2.7683,-2.7207,-2.5767,-2.515,-2.4603,-2.4053,-2.2371,-2.1293,-2.1293,-2.0215,-2.0034,-2.1203,-2.1239,-2.1015,-2.0551,-1.425,-0.9077,-0.5474,-0.3038,-0.1841,-0.1847,-0.1883,-0.2547,-0.3707,-0.3523,-0.4685,-0.6799,-0.6939,-0.819,-1.0062,-0.7994,-0.6454,-0.5289,-0.4098,-0.4229,-0.5203,0.0,0.0,0.0,0.0,0.0,0.0,0.0,0.0,0.0,0.0,0.0,0.0,0.0,0.0,0.0,0.0,0.0,0.0,0.0,0.0,0.0,0.0,0.0,0.0,0.0,0.0,0.0,0.0,0.0,0.0,0.0,0.0,0.0,0.5852,0.6996,0.7767,0.7631,0.7865,0.8951,1.1452,1.1819,1.2969,1.5601,1.5832,1.6346,1.7613,1.7692,1.8234,1.9405,1.9451,1.8864,1.7684,1.7645,1.7037,1.5784,1.5784,1.5784,1.5784,1.5784,1.648,1.7692,1.7692,1.8411,1.9633,2.08,2.1067,2.0665,1.9889,1.8856,1.7663,1.7371,1.6442,1.5284,0.0,0.0,0.0,0.0,0.0,0.0,0.0,-2.7545,-2.6962,-2.5742,-2.5458,-2.5015,-2.4085,-2.2371,-2.1293,-2.1293,-2.0215,-2.0034,-2.1203,-2.0181,-1.8625,-1.6695,-1.1079,-0.7776,-0.7286,-0.3752,-0.2367,-0.3228,-0.4088,-0.4935,-0.5855,-0.682,-0.7997,-0.9249,-0.9488,-0.9923,-1.0349,-0.8048,-0.6421,-0.5208,-0.4051,-0.3273,-0.2873,0.0,0.0,0.0,0.0,0.0,0.0,0.0,0.0,0.0,0.0,0.0,0.0,0.0,0.0,0.0,0.0,0.0,0.0,0.0,0.0,0.0,0.0,0.0,0.0,0.0,0.0,0.0,0.0,0.0,0.0,0.0,0.6387,0.726,0.727,0.7635,0.7914,0.7874,0.7941,0.9,1.1569,1.1861,1.3088,1.5939,1.5952,1.6062,1.6663,1.7356,1.787,1.8187,1.8187,1.8048,1.7692,1.6763,1.6157,1.5784,1.5784,1.5784,1.5784,1.5784,1.648,1.7692,1.7692,1.8864,2.0845,2.1159,2.157,2.2017,2.2067,2.0519,1.8254,1.8495,1.6966,1.471,0.0,0.0,0.0,0.0,0.0,0.0,0.0,-2.6995,-2.6335,-2.5695,-2.5204,-2.4602,-2.3705,-2.2679,-2.2031,-2.2031,-2.14,-2.1311,-2.2031,-1.9653,-1.707,-1.4364,-0.9847,-0.7272,-0.707,-0.4288,-0.3618,-0.5246,-0.5938,-0.6957,-0.8344,-0.9094,-0.9981,-1.0924,-1.1129,-1.1537,-1.1939,-1.0084,-0.8388,-0.6866,-0.5568,-0.3447,-0.1125,-0.1827,-0.246,-0.2914,-0.2908,-0.4202,-0.5826,-0.5852,0.0,0.0,0.0,0.0,0.0,0.0,0.0,0.0,0.0,0.0,0.0,0.0,0.0,0.0,0.0,0.0,0.0,0.0,0.0,0.0,0.0,0.0,0.0,0.0,0.6978,0.7834,0.7896,0.7934,0.7988,0.7988,0.7988,0.9019,1.1658,1.2031,1.3275,1.6106,1.6112,1.6092,1.6315,1.6695,1.6897,1.6897,1.6897,1.6897,1.6897,1.615,1.5784,1.5784,1.5784,1.5784,1.5784,1.5784,1.6749,1.8457,1.8457,1.9731,2.178,2.178,2.184,2.199,0.0,0.0,0.0,0.0,1.5973,1.4315,0.0,0.0,0.0,0.0,0.0,0.0,0.0,-2.6433,-2.5739,-2.5598,-2.4734,-2.3833,-2.3183,-2.3091,-2.3091,-2.3091,-2.3091,-2.3003,-2.2731,-1.9159,-1.5837,-1.3069,-0.9618,-0.7193,-0.6063,-0.4948,-0.5465,-0.7601,-0.7779,-0.889,-1.0797,-1.0794,-1.1349,-1.2272,-1.23,-1.3059,-1.4225,-1.2922,-1.1236,-0.9359,-0.791,-0.4552,-0.0404,-0.0269,-0.0921,-0.1951,-0.1804,-0.2547,-0.3617,-0.3617,0.0,0.0,0.0,0.0,0.0,0.0,0.0,0.0,0.0,0.0,0.0,0.0,0.0,0.0,0.0,0.0,0.0,0.0,0.0,0.0,0.0,0.0,0.0,0.0,0.733,0.8028,0.8021,0.7988,0.8038,0.8187,0.8233,0.9262,1.1848,1.2444,1.3628,1.612,1.6321,1.6321,1.6321,1.5992,0.0,0.0,0.0,1.5784,1.5784,1.5784,1.5784,1.5784,1.5784,1.5784,1.5784,1.5784,1.707,1.9314,1.9451,2.0526,2.2174,2.2264,2.1742,2.0926,2.1627,2.0388,1.7879,1.5382,1.4289,1.4035,0.0,0.0,0.0,0.0,0.0,0.0,0.0,-2.7101,-2.6648,-2.5728,-2.5044,-2.4246,-2.3212,-2.3091,-2.3091,-2.3091,-2.3091,-2.2271,-2.0314,-1.6458,-1.3614,-1.2177,-0.8349,-0.6669,-0.7553,-0.7075,-0.7662,-0.9325,-1.0834,-1.1707,-1.2006,-1.2946,-1.3814,-1.4614,-1.3985,-1.4459,-1.559,-1.3545,-1.1941,-1.0576,-0.934,-0.6467,-0.28,-0.1837,-0.1601,-0.1731,-0.0745,-0.1236,-0.2347,-0.2347,-0.3313,-0.4671,-0.5878,-0.7246,0.0,0.0,0.0,0.0,0.0,0.0,0.0,0.0,0.0,0.0,0.0,0.0,0.0,0.0,0.0,0.0,0.0,0.0,0.0,0.902,0.9356,0.9227,0.8134,0.7988,0.8382,0.946,0.9608,1.0627,1.3247,1.3765,1.4611,1.6168,1.6321,1.6321,1.6321,1.5992,1.5784,1.5784,1.5784,1.5784,1.5784,1.5784,1.5784,1.5784,1.5784,0.0,1.5784,1.5784,1.6615,1.8095,1.9085,1.9728,2.014,2.0894,2.0171,1.8578,1.8374,1.7655,1.649,1.4809,1.3981,1.3686,0.0,0.0,0.0,0.0,0.0,0.0,0.0,-2.7143,-2.6411,-2.6352,-2.5168,-2.4307,-2.4264,-2.3757,-2.359,-2.3897,-2.343,-2.2001,-1.9465,-1.6313,-1.3714,-1.1768,-0.8631,-0.7553,-0.897,-0.8833,-0.9696,-1.1601,-1.2518,-1.3221,-1.3671,-1.4253,-1.5085,-1.6031,-1.5,-1.5344,-1.6531,-1.4697,-1.3316,-1.2294,-1.1565,-0.978,-0.7267,-0.4572,-0.3241,-0.2727,-0.2109,-0.1921,-0.1984,-0.1984,-0.2381,-0.303,-0.3757,-0.4881,-0.6173,0.0,0.0,0.0,0.0,0.0,0.0,0.0,0.0,0.0,0.0,0.0,0.0,0.0,0.0,0.5066,0.8108,0.0,0.9923,0.9881,0.9938,0.9509,0.8187,0.7988,0.8237,0.892,0.9608,1.0774,1.2716,1.388,1.5053,1.6231,1.6596,1.6636,1.6335,1.6132,1.5985,1.5832,1.5784,1.5784,1.5784,1.5784,1.5784,1.5784,1.5784,1.5784,1.5784,1.5784,1.648,1.7723,1.8171,1.8579,1.8971,1.9256,1.8803,1.7829,1.7008,1.6396,1.5836,1.4586,1.3995,1.3841,0.0,0.0,0.0,0.0,0.0,0.0,0.0,-2.7003,-2.5984,-2.6563,-2.4967,-2.4098,-2.4861,-2.4256,-2.3994,-2.4413,-2.34,-2.1725,-1.9351,-1.6958,-1.4509,-1.2089,-0.9909,-0.9262,-1.0342,-1.0542,-1.1568,-1.3514,-1.3653,-1.4162,-1.5065,-1.5004,-1.5783,-1.7062,-1.564,-1.5935,-1.7385,-1.5764,-1.4678,-1.4009,-1.3755,-1.2923,-1.1446,-0.8097,-0.6028,-0.4861,-0.4419,-0.3597,-0.2697,-0.2159,-0.2013,-0.2013,-0.2013,-0.2765,-0.3862,-0.5194,-0.6388,0.0,0.0,0.0,0.0,0.0,0.0,0.0,0.0,-0.1981,0.1023,0.2587,0.5155,0.7856,1.0189,1.0863,1.091,1.0453,1.0386,0.9801,0.8233,0.7988,0.8002,0.8029,0.9187,1.0485,1.1799,1.3601,1.5045,1.5833,1.6607,1.6824,1.6348,1.6219,1.6079,1.5791,1.5784,1.5784,1.5784,1.5784,1.5784,1.5784,1.5784,1.5784,1.5784,1.5784,1.6339,1.7304,1.7064,1.7385,1.8099,1.7568,1.7249,1.7088,1.6147,1.5615,1.5296,1.4412,1.4048,1.3961,0.0,0.0,0.0,0.0,0.0,0.0,0.0,0.0,-2.6097,-2.5189,-2.4301,-2.3687,-2.3374,-2.3599,-2.3658,-2.3295,-2.2208,-2.0917,-1.953,-1.7101,-1.5091,-1.3682,-1.2221,-1.1507,-1.1702,-1.2559,-1.3295,-1.3831,-1.4511,-1.502,-1.5357,-1.5102,-1.6142,-1.8147,-1.595,-1.6339,-1.8503,-1.6279,-1.5287,-1.5231,-1.5162,-1.4272,-1.2935,-1.2512,-1.0957,-0.8768,-0.6546,-0.5665,-0.5169,-0.2795,-0.2013,-0.2013,-0.2013,-0.2113,-0.2464,-0.3814,-0.4312,-0.469,-0.5948,-0.6296,-0.6521,-0.7348,-0.5761,-0.374,0.0,-0.0098,0.2594,0.487,0.8464,1.1637,1.2999,1.4299,1.4369,1.2037,1.1707,1.0828,0.8333,0.7988,0.8092,0.8228,0.9314,1.0485,1.1799,1.3396,1.4388,1.4506,1.5676,1.6388,1.6279,1.6019,1.5865,1.5784,1.5784,1.5784,1.5784,1.5784,1.5784,1.5784,1.5784,1.5784,1.5784,1.5784,1.5879,1.6015,1.5974,1.6462,1.7236,1.6106,1.5335,1.4856,1.4726,1.4507,1.425,1.413,1.3921,1.3613,0.0,0.0,0.0,0.0,0.0,0.0,0.0,0.0,0.0,-2.5165,-2.4354,-2.4078,-2.4743,-2.4781,-2.4404,-2.358,-2.2821,-2.1956,-2.1016,-1.9026,-1.6993,-1.5029,-1.3682,-1.3021,-1.3054,-1.3611,-1.4364,-1.5293,-1.5591,-1.5798,-1.5913,-1.6371,-1.744,-1.8953,-1.748,-1.7774,-1.9295,-1.7091,-1.6065,-1.5994,-1.67,-1.65,-1.5913,-1.6597,-1.6239,-1.4864,-1.0792,-0.8852,0.0,-0.6124,-0.4451,-0.3004,-0.2262,-0.146,-0.0958,-0.1511,-0.2213,-0.3106,-0.4398,-0.4733,-0.4942,-0.6124,-0.512,-0.3697,-0.3165,-0.0988,0.1849,0.5207,0.786,1.0254,1.2294,1.3137,1.2915,1.1068,1.0779,1.0145,0.8283,0.8116,0.8197,0.8313,0.8794,0.9611,1.0918,1.247,1.3365,1.3231,1.3909,1.4224,1.3931,1.3872,1.4091,1.4663,1.4704,1.5045,1.5778,1.5784,1.5784,1.5784,1.5784,1.5784,1.5784,1.5784,1.5684,1.5578,1.5578,1.6074,1.6766,1.5807,1.5545,1.5667,1.5035,1.4596,1.4315,1.4148,1.4008,1.3861,0.0,0.0,0.0,0.0,0.0,0.0,0.0,0.0,0.0,0.0,-2.4361,-2.4429,-2.567,-2.5402,-2.4824,-2.4055,-2.3627,-2.3019,-2.2062,-2.08,-1.918,-1.7019,-1.6042,-1.543,-1.5242,-1.5422,-1.5787,-1.6393,-1.6399,-1.6422,-1.6423,-1.7132,-1.8075,-1.9154,-1.8258,-1.8536,-1.9542,-1.7628,-1.6925,-1.7176,-1.7831,-1.821,-1.8469,-1.9231,-1.9504,-1.892,-1.4428,-1.2225,-1.1119,-0.8811,-0.6685,-0.4792,-0.3111,-0.1862,-0.1109,-0.1109,-0.1805,-0.2689,-0.3259,-0.3686,-0.4185,-0.5023,-0.461,-0.3966,-0.3875,-0.1883,0.0784,0.3714,0.5958,0.7891,0.9393,1.0307,1.0387,0.9113,0.9182,0.9122,0.8192,0.8201,0.835,0.8381,0.8482,0.8927,0.9912,1.1304,1.2097,1.1948,1.2481,1.2654,1.2289,1.2268,1.2752,1.3884,1.3536,1.398,1.5242,1.4908,1.4711,1.4711,1.5099,1.5289,1.5289,1.5635,1.5712,1.5518,1.5518,1.5837,1.6339,1.5609,1.5635,1.6066,1.5123,1.4589,1.4376,1.4162,1.4088,1.4035,0.0,0.0,0.0,0.0,0.0,0.0,0.0,0.0,0.0,0.0,0.0,0.0,0.0,-2.4705,-2.4441,-2.4394,-2.4385,-2.3694,-2.2098,-2.1961,-2.1336,-2.0,-1.9953,-1.9463,-1.8562,-1.8565,-1.7943,-1.6693,-1.6702,-1.671,-1.6672,-1.6718,-1.7355,-1.8477,-1.7611,-1.7903,-1.8948,-1.7699,-1.7943,-1.904,-1.8367,-1.8872,-1.9992,-1.9633,-1.9482,-1.9152,-1.6509,-1.557,-1.4754,-0.9686,-0.7938,-0.744,-0.4762,-0.3915,-0.3865,-0.3865,-0.3913,-0.365,-0.2254,-0.2901,-0.397,-0.3877,-0.391,-0.4009,-0.4014,-0.1988,-0.0049,0.0049,0.3195,0.5586,0.4345,0.629,0.7622,0.6336,0.7211,0.8101,0.8289,0.832,0.8377,0.8662,0.8703,0.876,0.891,0.9872,1.0547,1.0746,1.1697,1.2284,1.2379,1.2077,1.2533,1.3872,1.2624,1.2624,1.3926,1.2673,1.1999,1.2042,1.3343,1.3968,1.4022,1.5242,1.5778,1.5764,1.5764,1.5812,1.5758,1.5249,1.5015,1.4993,1.4378,1.4108,1.4095,1.4088,1.4088,1.4001,0.0,0.0,0.0,0.0,0.0,0.0,0.0,0.0,0.0,0.0,0.0,0.0,0.0,0.0,0.0,0.0,-2.458,-2.4287,-2.4049,-2.3745,-2.2898,-2.1417,-2.1599,-2.1097,-1.9645,-1.9423,-1.9077,-1.8599,-1.7921,-1.7536,-1.7582,-1.8196,-1.8731,-1.9088,-1.9007,-1.9242,-1.9527,-1.8506,-1.8611,-1.9471,-1.9776,-2.0491,-2.1381,-2.177,-2.1901,-2.1578,0.0,-1.7725,-1.6371,-1.205,-1.0,-0.8799,-0.6161,-0.4718,-0.3815,-0.2914,-0.2029,-0.1215,-0.0726,-0.1609,-0.2862,-0.3698,-0.4656,-0.5309,-0.532,-0.4652,-0.3489,-0.1743,-0.0298,0.0793,0.1235,0.2028,0.2827,0.3285,0.4484,0.5729,0.6842,0.7823,0.8486,0.8686,0.8801,0.8828,0.8878,0.9224,0.9428,0.9479,1.0636,1.0893,0.9848,1.1336,1.2014,1.1454,1.1722,1.2163,1.2745,1.2211,1.1896,1.1901,1.3247,1.3926,1.3926,1.5242,1.5784,1.5784,1.5784,1.5784,1.5764,1.5618,1.5311,1.4988,1.4787,1.4429,1.4088,1.4088,1.4088,1.4035,0.0,0.0,0.0,0.0,0.0,0.0,0.0,0.0,0.0,0.0,0.0,0.0,0.0,0.0,0.0,0.0,0.0,-2.4941,-2.5106,-2.4805,-2.4187,-2.3168,-2.3355,-2.2853,-2.1427,-2.117,-2.0578,-1.9576,-1.8918,-1.834,-1.7896,-1.859,-1.8925,-1.8905,-1.9336,-1.9535,-1.956,-1.9301,-1.975,-2.0675,-2.1151,-2.1954,-2.2859,-2.3052,-2.2818,0.0,-2.0223,-1.8726,-1.7163,-1.3765,-1.1721,-1.0232,-0.81,-0.6189,-0.4419,-0.3061,-0.1748,-0.0623,-0.0145,-0.0978,-0.2221,-0.3051,-0.431,-0.5411,-0.5877,-0.5979,-0.577,-0.4993,-0.4489,-0.4038,-0.3628,-0.2782,-0.1543,0.03,0.2097,0.4033,0.6071,0.7577,0.856,0.8767,0.8824,0.8885,0.8885,0.8885,0.8861,0.8807,0.9619,0.9826,0.9127,1.0687,1.1585,1.1503,1.1771,1.1967,1.2103,1.1526,1.1463,1.1901,1.2764,1.3686,1.4609,1.5439,1.5784,1.5784,1.5784,1.5784,1.5764,1.5605,1.5297,1.4988,1.478,1.4422,1.4088,1.4088,1.4021,1.3901,0.0,0.0,0.0,0.0,0.0,0.0,0.0,0.0,0.0,0.0,0.0,0.0,0.0,0.0,0.0,0.0,0.0,0.0,-2.5174,-2.5145,-2.5135,-2.5116,-2.5135,-2.4679,-2.3795,-2.3684,-2.2376,-1.9819,-1.9634,-1.8911,-1.774,-1.7926,-1.8036,-1.8056,-1.8642,-1.8906,-1.9029,-2.004,-2.131,-2.2584,-2.246,-2.3225,-2.4315,-2.3452,-2.2378,-2.1159,-1.9968,-1.8742,-1.7304,-1.4781,-1.2958,-1.1604,-1.0391,-0.815,-0.5734,-0.43,-0.3044,-0.1812,-0.0434,-0.1059,-0.2065,-0.1994,-0.3065,-0.4418,-0.5727,-0.6029,-0.6825,-0.9452,-0.8992,-0.8488,-0.9747,-0.7931,-0.5284,-0.2552,0.015,0.2941,0.5958,0.7586,0.8598,0.8828,0.8868,0.8871,0.8871,0.8871,0.8814,0.8733,0.8774,0.9221,1.0061,1.0239,1.1347,1.3534,1.2452,1.177,1.1722,1.0587,1.0632,1.1804,1.1945,1.3301,1.5683,1.5784,1.5784,1.5784,1.5784,1.5771,1.5718,1.5231,1.5035,1.4955,1.4349,1.4122,1.4108,1.4095,1.3908,1.3626,0.0,0.0,0.0,0.0,0.0,0.0,0.0,0.0,0.0,0.0,0.0,0.0,0.0,0.0,0.0,0.0,0.0,0.0,-2.5528,-2.5566,-2.542,-2.5135,-2.5391,-2.5276,-2.4737,-2.3291,-2.265,-2.2955,-2.0166,-1.9115,-1.975,-1.8808,-1.8357,-1.8384,-1.8513,-1.9165,-2.0118,-2.0385,-2.1728,-2.3611,-2.299,-2.34,-2.4354,-2.384,-2.2669,-2.1195,-2.0247,-1.8986,-1.7304,-1.4781,-1.2372,-1.044,-1.0096,-0.8077,-0.5791,-0.5413,-0.4307,-0.2917,-0.1687,-0.2314,-0.3116,-0.2243,-0.3768,-0.5575,-0.5927,-0.6781,-0.7982,-0.9653,-0.9747,-0.9596,-0.9948,-0.944,-0.7773,-0.4082,-0.1172,0.1643,0.4383,0.7023,0.8638,0.8604,0.8699,0.8767,0.8767,0.8767,0.8801,0.8821,0.9851,1.0077,0.9129,1.1046,1.1421,0.995,1.0365,1.0201,0.9213,0.9726,1.0145,1.0489,1.2474,1.3734,1.4411,1.5384,1.5784,1.5784,1.5784,1.5705,1.5511,1.5578,1.5351,1.4995,1.4841,1.4603,1.4382,1.4168,1.4041,1.3975,0.0,0.0,0.0,0.0,0.0,0.0,0.0,0.0,0.0,0.0,0.0,0.0,0.0,0.0,0.0,0.0,0.0,0.0,0.0,-2.5693,-2.5324,-2.4514,-2.4683,-2.444,-2.3623,-2.2484,-2.1979,-2.2112,-2.0015,-1.9078,-1.9203,-1.8584,-1.8263,-1.8266,-1.8453,-1.9223,-2.051,-2.0992,-2.2306,0.0,0.0,-2.4181,-2.4641,-2.4225,-2.3161,-2.1742,-2.0522,-1.8691,-1.6683,-1.5377,-1.3143,-1.0716,-1.0091,-0.8038,-0.5862,-0.5827,-0.485,-0.3521,-0.2227,-0.2427,-0.2713,-0.145,-0.2716,-0.4422,-0.4972,-0.662,-0.8559,-1.0431,-1.1312,-1.1551,-1.0925,-1.0896,-0.9422,-0.4785,-0.2224,0.0313,0.3704,0.6201,0.7877,0.844,0.9079,0.9239,0.8664,0.9201,0.9384,0.8832,0.9658,0.9949,0.9624,1.0957,1.1236,1.0172,1.0641,1.0345,0.9067,0.9661,1.0293,1.0877,1.2909,1.4166,1.4752,1.5486,1.5784,1.5784,1.5784,1.5684,1.5585,1.5625,1.5371,1.4995,1.4823,1.4589,1.4309,1.4148,1.4008,1.3908,0.0,0.0,0.0,0.0,0.0,0.0,0.0,0.0,0.0,0.0,0.0,0.0,0.0,0.0,0.0,0.0,0.0,0.0,0.0,0.0,0.0,0.0,-2.3705,-2.3088,-2.1737,-2.1534,-2.0907,-1.9876,-1.9494,-1.8747,-1.7562,-1.7813,-1.782,-1.7694,-1.8352,-1.9406,-2.074,-2.1822,-2.3089,-2.4358,-2.4879,-2.5094,-2.5077,0.0,0.0,0.0,-2.0533,0.0,0.0,0.0,-1.4351,-1.1726,-1.0697,-0.8494,-0.623,-0.6309,-0.5462,-0.4195,-0.2869,-0.2492,-0.2211,-0.0853,-0.1561,-0.2815,-0.4016,-0.6354,-0.8981,-1.14,-1.2813,-1.3295,-1.2091,-1.1905,-1.0163,-0.4856,-0.2982,-0.0686,0.3603,0.5417,0.6843,0.8272,0.9417,0.9688,0.8556,0.9621,0.9929,0.8786,0.8804,0.9316,1.0362,1.0257,1.0638,1.1628,1.1471,1.0828,0.9752,1.0096,1.0828,1.1896,1.3445,1.4752,1.5784,1.5784,1.5784,1.5784,1.5784,1.5758,1.5752,1.5538,1.5284,1.5035,1.4696,1.4422,1.4195,1.4115,1.3928,1.37,0.0,0.0,0.0,0.0,0.0,0.0,0.0,0.0,0.0,0.0,-2.5508,-2.5693,0.0,0.0,0.0,0.0,0.0,0.0,0.0,0.0,0.0,0.0,-2.369,-2.3076,-2.1722,-2.0538,-2.0385,-2.1337,-1.9056,-1.7791,-1.7521,-1.7608,-1.7042,-1.5968,-1.8355,-2.0198,-2.1593,-2.2867,-2.4212,-2.5392,-2.5167,-2.5106,-2.5106,0.0,0.0,0.0,0.0,0.0,0.0,0.0,-1.4351,-1.2068,-1.3188,-1.0724,-0.7704,-0.8766,-0.8098,-0.6721,-0.5487,-0.5125,-0.4854,-0.36,-0.432,-0.5377,-0.5575,-0.771,-1.0087,-1.1604,-1.2091,-1.2188,-1.1945,-1.1051,-0.8972,-0.4669,-0.2795,-0.0475,0.3497,0.542,0.6876,0.7955,0.8431,0.8559,0.8357,0.8587,0.8654,0.8565,0.8547,0.8711,0.9026,0.9001,0.8962,0.8984,0.8764,0.8577,0.8333,1.0485,1.1702,1.1945,1.4322,1.5588,1.5784,1.5784,1.5784,1.5784,1.5784,1.5691,1.5484,1.5678,1.5585,1.5291,1.5003,1.4901,1.4794,1.4269,1.4055,1.4015,0.0,0.0,0.0,0.0,0.0,0.0,0.0,-2.54,-2.5478,-2.5723,-2.6133,-2.6181,-2.5732,-2.5693,-2.5693,0.0,0.0,0.0,0.0,0.0,0.0,0.0,0.0,0.0,0.0,-1.8916,-1.8916,-1.9583,0.0,-1.7555,-1.7568,-1.7589,-1.7589,-1.7635,-1.8993,-2.0785,-2.2759,-2.3408,-2.4496,-2.5674,-2.5508,-2.541,0.0,0.0,0.0,0.0,0.0,0.0,0.0,0.0,-1.5072,-1.3098,-1.4031,-1.184,-0.9088,-0.9717,-0.8892,-0.7547,-0.623,-0.5898,-0.561,-0.4307,-0.502,-0.6176,-0.6863,-0.9091,-1.1361,-1.2668,-1.2958,-1.2716,-1.2042,-1.091,-0.8974,-0.5575,-0.3925,-0.1601,0.2486,0.4319,0.5936,0.7937,0.9345,0.9638,0.8301,0.947,0.9811,0.847,0.8438,0.8513,0.8587,0.8523,0.8381,0.8157,0.8029,0.8333,0.9019,1.0925,1.2237,1.2958,1.4902,1.5784,1.5784,1.5784,1.5784,1.5784,1.5784,1.5752,1.5631,1.5772,1.5658,1.5364,1.5122,1.4914,1.4683,1.4249,1.3988,1.3881,0.0,0.0,0.0,0.0,0.0,0.0,0.0,-2.5459,-2.5596,-2.6299,-2.6758,-2.6728,-2.5908,-2.5908,-2.5888,0.0,0.0,0.0,0.0,0.0,0.0,0.0,0.0,0.0,0.0,0.0,0.0,-1.7582,-1.7582,0.0,0.0,0.0,0.0,0.0,-1.9796,-2.1405,-2.3741,-2.3998,-2.4766,0.0,0.0,-2.5693,0.0,0.0,0.0,0.0,0.0,0.0,0.0,0.0,-1.5842,-1.4358,-1.4625,-1.2757,-1.0386,-1.0386,-0.946,-0.8131,-0.6781,-0.6431,-0.6179,-0.512,-0.5869,-0.7117,-0.8195,-1.0458,-1.2528,-1.3295,-1.3488,-1.3054,-1.175,-1.0505,-0.8906,-0.6398,-0.497,-0.2677,0.1584,0.3215,0.5087,0.7971,0.9917,1.0386,0.8577,1.0423,1.0861,0.8823,0.8477,0.8401,0.8435,0.8299,0.8167,0.7992,0.7988,0.8627,0.9998,1.1268,1.2576,1.3926,1.5194,1.5784,1.5784,1.5784,1.5784,1.5784,1.5784,1.5784,1.5784,1.5784,1.5698,1.5464,1.517,1.4877,1.4583,1.4289,1.3995,1.3733,0.0,0.0,0.0,0.0,0.0,0.0,0.0,-2.5781,-2.6299,-2.6377,-2.6758,-2.6836,-2.6377,-2.667,-2.6582,0.0,0.0,0.0,0.0,0.0,0.0,0.0,0.0,0.0,0.0,0.0,0.0,-1.7582,-1.7582,0.0,0.0,0.0,0.0,0.0,0.0,-2.2307,-2.3791,-2.502,0.0,0.0,0.0,0.0,0.0,0.0,0.0,0.0,0.0,-2.0124,-1.8471,0.0,0.0,-1.5688,-1.6027,-1.4096,-1.1755,-1.1755,-1.0828,-0.9509,-0.818,-0.7839,-0.7789,-0.7686,-0.8619,-0.9653,-0.9797,-1.1838,-1.3392,-1.2334,-1.2091,-1.1702,-1.0386,-0.908,-0.7695,-0.6231,-0.4866,-0.2549,0.1631,0.3232,0.5068,0.7958,0.8334,0.8726,0.9706,1.0064,1.0122,0.9879,0.8713,0.8143,0.8333,0.8143,0.8005,0.7988,0.7988,0.8627,0.9998,1.1268,1.2576,1.3926,1.5194,1.5784,1.5784,1.5784,1.5784,1.5784,1.5784,1.5784,1.5784,1.5784,1.5764,1.5758,1.5471,1.5177,1.4928,1.4589,1.4295,1.4048,0.0,0.0,0.0,0.0,0.0,0.0,-2.5742,-2.5937,-2.6279,-2.706,-2.7519,-2.7715,-2.7549,-2.7685,-2.7226,-2.581,0.0,0.0,0.0,0.0,0.0,0.0,0.0,0.0,0.0,0.0,-1.9098,-1.9115,-1.8242,0.0,0.0,0.0,0.0,0.0,0.0,-2.3633,-2.4922,-2.5479,0.0,0.0,0.0,0.0,0.0,0.0,0.0,0.0,0.0,0.0,-1.8797,-1.7468,-1.67,0.0,-1.6293,-1.5492,0.0,-1.3389,-1.1648,-0.9899,-0.9361,-0.8627,-0.7988,-0.7988,-0.9008,-1.0213,-1.0972,-1.1963,-1.2764,-1.306,-1.1843,-1.0583,-1.0096,-0.892,-0.7806,-0.7305,-0.538,0.0,-0.057,0.2222,0.4747,0.6864,0.9007,1.0239,0.9998,1.1404,1.1989,1.1214,1.0632,1.0372,1.0451,0.8908,0.7988,0.7988,0.7988,0.9019,1.1116,1.1658,1.2963,1.5045,1.5581,1.5784,1.5784,1.5784,1.5784,1.5784,1.5784,1.5784,1.5784,1.5784,1.5784,1.5785,1.5317,1.5109,1.4948,1.4436,1.4182,1.4088,0.0,0.0,0.0,0.0,0.0,-2.4629,-2.582,-2.585,-2.6103,-2.7324,-2.7734,-2.8008,-2.8262,-2.7959,-2.7179,-2.5758,-2.5653,0.0,0.0,0.0,0.0,0.0,0.0,0.0,0.0,0.0,-2.0197,-2.0077,-1.8678,-1.7976,0.0,0.0,-1.973,-2.1143,0.0,0.0,0.0,0.0,0.0,0.0,0.0,0.0,0.0,0.0,0.0,0.0,0.0,0.0,0.0,0.0,0.0,0.0,0.0,0.0,0.0,0.0,-1.2328,-1.0538,-1.0551,-0.932,-0.8091,-0.8503,-0.9278,-1.023,-1.1148,-1.1614,-1.2042,-1.2614,-1.1258,-0.9899,-0.946,-0.8627,-0.7988,0.0,0.0,-0.3483,-0.2,0.1535,0.4564,0.6133,0.8946,1.0534,1.0047,1.1989,1.306,1.2528,1.2139,1.1896,1.1896,1.0141,0.9164,0.9164,0.9164,1.0239,1.2479,1.2474,1.359,1.5784,1.5784,1.5784,1.5784,1.5784,1.5784,1.5784,1.5784,1.5784,1.5784,1.5784,1.5784,1.5744,1.5378,1.5209,1.5089,1.4629,1.414,1.3782,0.0,0.0,0.0,0.0,0.0,0.0,-2.4998,-2.5449,-2.5996,-2.6914,-2.7021,-2.7353,-2.8203,-2.7168,-2.6152,-2.5466,-2.5572,0.0,0.0,0.0,0.0,0.0,0.0,0.0,0.0,0.0,-2.0511,-2.0077,-1.8666,-1.7983,-1.8005,-1.7753,-1.8349,-1.9679,0.0,0.0,0.0,0.0,0.0,0.0,0.0,0.0,-2.5538,0.0,0.0,0.0,0.0,0.0,0.0,0.0,0.0,0.0,0.0,-1.6072,-1.554,0.0,-1.2958,-1.1863,-1.1864,-0.9978,-0.8297,-0.9639,-1.0004,-0.9979,-1.0026,-1.1,-1.1556,-1.0293,-0.9998,-0.9608,-0.8283,-0.7988,-0.7988,-0.7988,-0.5772,0.0,-0.1996,0.1568,0.4549,0.6123,0.7315,0.8577,0.985,1.1165,1.2479,1.3782,1.2673,1.1896,1.1896,1.1853,1.1848,1.1848,1.1848,1.2528,1.3878,1.3878,1.4513,1.5784,1.5784,1.5784,1.5784,1.5784,1.5784,1.5784,1.5784,1.5784,1.5784,1.5784,1.5784,1.5784,1.5771,1.5645,1.5391,1.5384,1.4308,1.3015,0.0,0.0,0.0,0.0,0.0,0.0,0.0,-2.5195,-2.5488,-2.6015,-2.665,-2.7236,-2.7803,-2.7236,-2.6448,-2.5458,-2.493,0.0,0.0,0.0,0.0,0.0,0.0,0.0,0.0,0.0,-2.1829,-2.0632,-1.9084,-1.8325,-1.836,-1.8759,-1.9169,-1.9679,-2.1092,-2.2458,0.0,0.0,0.0,0.0,0.0,-2.5177,-2.4196,0.0,0.0,0.0,0.0,0.0,0.0,0.0,0.0,0.0,0.0,0.0,0.0,-1.5395,-1.4268,-1.3049,-1.2152,-1.0671,-0.9265,-0.8741,-0.9329,-0.9995,-1.0016,-1.0306,-1.0511,-1.0092,-0.9262,-0.8478,-0.8088,-0.7988,-0.7988,-0.7988,-0.5772,0.0,-0.3384,0.0904,0.452,0.5942,0.9633,1.2565,1.3836,1.4322,1.4758,1.5146,1.4806,1.4567,1.4567,1.4567,1.374,1.1945,1.1896,1.2528,1.3872,1.3926,1.4555,1.5784,1.5784,1.5784,1.5784,1.5784,1.5784,1.5784,1.5784,1.5784,1.5784,1.5784,1.5784,1.5764,1.5611,1.5478,1.5371,1.517,1.4192,1.3132,0.0,0.0,0.0,0.0,0.0,0.0,0.0,-2.4636,-2.4805,-2.541,-2.5947,-2.6631,-2.762,-2.6647,-2.5622,-2.4849,-2.3634,0.0,0.0,0.0,0.0,0.0,0.0,0.0,-2.3687,-2.2868,-2.1924,-2.0887,-1.9299,-1.8575,-1.8666,-1.9042,-1.9101,-1.905,-2.0483,-2.1783,0.0,0.0,0.0,0.0,-2.4196,-2.3683,-2.2826,0.0,0.0,0.0,0.0,0.0,0.0,0.0,0.0,0.0,0.0,0.0,0.0,0.0,-1.4513,-1.3711,-1.2864,-1.1342,-0.9788,-0.8947,-0.9019,-0.9226,-0.9226,-0.9232,-0.9247,-0.9262,-0.8577,-0.7988,-0.7988,-0.7988,-0.7839,-0.7335,-0.542,-0.3621,-0.258,0.1308,0.486,0.7233,1.0826,1.3638,1.4949,1.5092,1.5289,1.5778,1.5784,1.5784,1.5784,1.5784,1.5051,1.3403,1.3349,1.3782,1.4609,1.4609,1.4997,1.5784,1.5784,1.5784,1.5784,1.5784,1.5784,1.5784,1.5784,1.5534,0.0,1.5092,1.4806,1.431,1.414,1.408,1.4061,1.3898,1.2968,1.1966,0.0,0.0,0.0,0.0,0.0,0.0,0.0,-2.3648,-2.3994,-2.4857,-2.5021,-2.5693,-2.724,-2.5414,-2.3957,-2.3593,0.0,0.0,0.0,0.0,0.0,0.0,0.0,0.0,-2.5067,-2.253,-2.104,-2.0803,-1.916,-1.8511,-1.8709,-1.8467,-1.8176,-1.7874,-1.9345,-2.0554,-2.1651,0.0,0.0,0.0,-2.1702,-2.1651,0.0,0.0,0.0,0.0,0.0,0.0,0.0,0.0,0.0,0.0,0.0,0.0,0.0,0.0,0.0,0.0,0.0,-1.1828,-0.9991,-0.9896,-0.8916,-0.7988,-0.7988,-0.7988,0.0,-0.7988,-0.7988,-0.7988,-0.7988,-0.7939,-0.7437,-0.6179,-0.482,-0.2927,-0.0308,0.2432,0.5603,0.9624,1.1258,1.2571,1.3897,1.401,1.4513,1.573,1.5784,1.5784,1.5784,1.5784,1.5784,1.5784,1.5784,1.5784,1.5784,1.5784,1.5784,1.5784,1.5784,1.5784,1.5784,1.573,1.573,1.5778,1.5588,1.4902,1.3872,1.3776,1.3006,1.1896,1.1896,1.1896,1.1896,1.1896,1.0994,0.9997,0.0,0.0,0.0,0.0,0.0,0.0,0.0,0.0,0.0,0.0,-2.4422,-2.4996,-2.4655,-2.4145,-2.3091,0.0,0.0,0.0,0.0,0.0,0.0,0.0,0.0,0.0,-2.2478,-2.1821,-2.0916,-1.9752,-1.7904,-1.7013,-1.7032,-1.6768,-1.6507,-1.632,-1.78,-1.9067,-2.0179,-2.16,0.0,0.0,-2.1702,-2.1041,0.0,0.0,0.0,0.0,-1.7403,-1.7108,0.0,0.0,0.0,0.0,0.0,0.0,0.0,0.0,-1.3926,-1.3465,-1.1453,0.0,-0.9763,-0.8737,-0.8244,-0.7988,0.0,-0.7988,0.0,0.0,0.0,0.0,-0.7988,-0.7182,-0.6379,-0.6029,-0.4019,-0.2215,-0.1567,0.2554,0.6938,1.0685,1.2502,1.385,1.4946,1.5214,1.5486,1.5784,1.5784,1.5784,1.5784,1.5784,1.5784,1.5784,1.5784,1.5784,1.5784,1.5784,1.5784,1.5784,1.5784,1.5784,1.5784,1.4806,1.4902,1.5683,1.3692,1.3253,1.3824,1.2813,1.2188,1.1896,1.1896,1.1896,1.1896,1.1896,1.1088,1.0134,0.0,0.0,0.0,0.0,0.0,0.0,0.0,0.0,0.0,0.0,0.0,-2.4035,-2.3746,-2.273,0.0,0.0,0.0,0.0,0.0,0.0,0.0,0.0,0.0,-2.159,-2.1612,-2.0806,-2.0054,-1.9402,-1.7447,-1.696,-1.7827,-1.6925,-1.6675,-1.7053,-1.8198,-1.872,-1.876,-2.0128,-2.0385,-1.9819,-1.9819,0.0,0.0,0.0,0.0,0.0,-1.74,-1.7213,0.0,-1.6567,-1.6386,-1.6122,0.0,0.0,0.0,0.0,-1.2129,-1.1687,-0.9657,-0.9531,-0.9669,-0.8319,-0.7988,-0.7988,-0.7988,0.0,0.0,0.0,0.0,0.0,-0.7988,-0.6883,-0.5777,-0.5172,-0.3367,-0.1357,0.0502,0.4373,0.7965,1.0527,1.263,1.4112,1.4647,1.5347,1.5784,1.5784,1.5784,1.5784,1.5784,1.5784,1.5784,1.5784,1.5784,1.5784,1.5784,1.5784,1.5784,1.5784,1.5784,1.5784,1.5784,1.5099,1.4854,1.4854,1.3445,1.2571,1.2032,1.1312,1.0681,1.0092,1.0092,1.0092,1.0092,1.0092,0.9653,0.9167,0.0,0.0,0.0,0.0,0.0,0.0,0.0,0.0,0.0,0.0,0.0,0.0,0.0,0.0,0.0,0.0,0.0,0.0,0.0,0.0,0.0,0.0,-1.9798,-1.9685,-2.1246,-1.9729,-1.91,-1.9424,-1.7488,-1.7307,-1.8624,-1.7522,-1.7535,-1.8519,-1.9102,-1.8705,-1.7687,-1.8812,-1.8655,-1.7582,-1.7582,0.0,0.0,0.0,0.0,0.0,0.0,0.0,0.0,-1.674,-1.6473,-1.6018,-1.4401,0.0,0.0,0.0,0.0,0.0,-0.8382,-0.8833,-0.9437,-0.8273,-0.7836,-0.7683,-0.7683,0.0,0.0,0.0,0.0,0.0,-0.7739,-0.6581,-0.5272,-0.3917,-0.2368,0.0,0.3844,0.6425,0.8409,0.9817,1.1935,1.3423,1.3772,1.4829,1.5588,1.5778,1.5784,1.5784,1.5784,1.5784,1.5784,1.5784,1.5784,1.5784,1.5784,1.5784,1.5784,1.5784,1.5784,1.5784,1.5778,1.5391,1.4704,1.3878,1.3241,1.1838,0.9998,0.9756,0.9019,0.7988,0.7988,0.7988,0.7988,0.7988,0.7988,0.7988,0.0,0.0,0.0,0.0,0.0,0.0,0.0,0.0,0.0,0.0,0.0,0.0,0.0,0.0,0.0,0.0,0.0,0.0,0.0,0.0,0.0,-1.9744,-1.9468,-1.9455,-1.971,-1.9455,-1.9359,-1.9424,-1.7757,-1.6388,-1.5382,-1.645,-1.7538,-1.847,-1.834,-1.8036,-1.7635,-1.7838,-1.7793,-1.7582,-1.7582,0.0,0.0,0.0,0.0,0.0,0.0,0.0,0.0,-1.644,-1.6306,-1.6018,-1.4401,0.0,0.0,0.0,0.0,0.0,-0.8382,-0.8131,-0.8273,-0.8035,-0.717,-0.6307,-0.6307,0.0,0.0,0.0,0.0,0.0,0.0,-0.5222,-0.3867,-0.2514,-0.0153,0.2638,0.5666,0.6391,0.7411,0.9567,1.0284,1.1381,1.3285,1.3892,1.4657,1.573,1.5784,1.5784,1.5784,1.5784,1.5784,1.5784,1.5784,1.5784,1.5784,1.5784,1.5784,1.5784,1.5784,1.5784,1.573,1.3499,1.3006,1.3728,1.0378,0.9312,0.9899,0.8775,0.8187,0.7988,0.7988,0.7988,0.7988,0.7988,0.7988,0.7988,0.0,0.0,0.0,0.0,0.0,0.0,0.0,0.0,0.0,0.0,0.0,0.0,0.0,0.0,0.0,0.0,0.0,0.0,0.0,0.0,-1.9424,-1.9424,-1.9424,-1.9424,-1.9424,-1.9424,-1.9495,-1.9625,-1.8025,-1.7298,-1.7446,-1.7689,-1.8054,-1.847,-1.8003,-1.7716,-1.7582,-1.7582,-1.7582,-1.7582,0.0,0.0,0.0,0.0,0.0,0.0,0.0,0.0,0.0,0.0,-1.5873,-1.482,-1.3283,0.0,0.0,0.0,0.0,0.0,-0.8187,-0.7988,-0.7988,-0.7988,-0.6968,-0.581,-0.5079,0.0,0.0,0.0,0.0,0.0,-0.6129,-0.4911,-0.3067,-0.0207,0.1357,0.3197,0.6009,0.6326,0.6912,0.8638,0.9509,1.0693,1.2422,1.3371,1.4411,1.5683,1.5784,1.5784,1.5784,1.5784,1.5784,1.5784,1.5784,1.5784,1.5784,1.5784,1.5784,1.5784,1.5784,1.5784,1.573,1.3836,1.2909,1.2668,1.019,0.9019,0.8871,0.8237,0.7988,0.7988,0.7988,0.7988,0.7988,0.7988,0.7988,0.7988,0.0,0.0,0.0,0.0,0.0,0.0,0.0,0.0,0.0,0.0,0.0,0.0,0.0,0.0,0.0,0.0,0.0,0.0,0.0,0.0,-1.9424,-1.9424,-1.9424,-1.9424,-1.9424,-1.943,-1.9564,-1.9773,-1.8595,-1.853,-1.9683,-1.8549,-1.821,-1.847,-1.7929,-1.7649,-1.7582,-1.7582,-1.7582,-1.7582,0.0,0.0,0.0,0.0,0.0,0.0,0.0,0.0,0.0,0.0,0.0,0.0,0.0,0.0,0.0,-0.8414,-0.7988,-0.7988,-0.7988,-0.7988,-0.7939,-0.763,0.0,0.0,-0.4246,-0.3745,-0.3537,-0.3518,-0.4618,-0.5425,-0.5125,-0.3979,-0.1815,0.2053,0.2649,0.3645,0.645,0.6776,0.7085,0.7955,0.8947,1.0141,1.175,1.2813,1.4076,1.5683,1.5784,1.5784,1.5784,1.5784,1.5784,1.5784,1.5784,1.5784,1.5784,1.5784,1.5784,1.5784,1.5784,1.5784,1.573,1.4172,1.2861,1.1799,1.0243,0.897,0.7988,0.7988,0.7988,0.7988,0.7988,0.7988,0.7988,0.7988,0.7988,0.7988,0.0,0.0,0.0,0.0,0.0,0.0,0.0,0.0,0.0,0.0,0.0,0.0,0.0,0.0,0.0,0.0,0.0,0.0,0.0,0.0,-1.9424,-1.9424,-1.9424,-1.9424,-1.9424,-1.9631,-1.9761,-1.9783,-1.9653,-1.9535,-1.9366,-1.7504,-1.7296,-1.8477,-1.8156,-1.7856,-1.7582,-1.7582,-1.7582,-1.7582,-1.7582,0.0,0.0,0.0,0.0,0.0,0.0,0.0,0.0,0.0,0.0,0.0,0.0,0.0,-0.9768,-0.8386,-0.7988,-0.7988,-0.7988,-0.7988,-0.7683,-0.6459,-0.5131,0.0,-0.3999,-0.3035,-0.2123,-0.2122,-0.3222,-0.3765,-0.2515,-0.1177,0.0674,0.357,0.4041,0.5035,0.7938,0.8247,0.8163,0.8255,0.8176,0.9118,1.1653,1.1994,1.3108,1.5635,1.5784,1.5784,1.5784,1.5784,1.5784,1.5784,1.5784,1.5784,1.5784,1.5784,1.5784,1.5784,1.5784,1.5784,1.573,1.3204,1.1994,1.1755,0.9213,0.8088,0.7988,0.7988,0.7988,0.7988,0.7988,0.7988,0.7988,0.7988,0.7988,0.7988,0.0,0.0,0.0,0.0,0.0,0.0,0.0,0.0,0.0,0.0,0.0,0.0,0.0,0.0,0.0,0.0,0.0,0.0,0.0,-1.9199,-1.9424,-1.9424,-1.9424,-1.9424,-1.9424,-1.9654,-1.9889,-2.0042,-2.0055,-1.9331,-1.7987,-1.6888,-1.6086,-1.5559,-1.6127,-1.6326,-1.628,-1.7206,-1.7582,-1.7582,-1.7582,-1.7582,0.0,0.0,0.0,0.0,0.0,0.0,0.0,0.0,-1.3213,-1.1537,-1.0441,-0.9538,-0.8812,-0.8165,-0.7988,-0.7988,-0.7988,-0.7988,-0.7683,-0.6357,-0.5007,0.0,0.0,-0.1718,-0.0758,-0.0758,-0.1813,-0.2624,-0.2095,-0.1597,-0.0052,0.3616,0.4223,0.5177,0.7995,0.8354,0.8235,0.814,0.8025,0.9019,1.1658,1.1896,1.2963,1.5588,1.5784,1.5784,1.5784,1.5784,1.5784,1.5784,1.5784,1.5784,1.5784,1.5784,1.5784,1.5784,1.5784,1.5784,1.573,1.3974,1.2668,1.1804,0.9998,0.8775,0.7988,0.7988,0.7988,0.7988,0.7988,0.7988,0.7988,0.7988,0.7988,0.7988,0.0,0.0,0.0,0.0,0.0,0.0,0.0,0.0,0.0,0.0,0.0,0.0,0.0,0.0,0.0,0.0,0.0,0.0,-1.8764,-1.9065,-1.9265,-1.9424,-1.9424,-1.9424,-1.9424,-1.9648,-1.9955,-2.0216,-2.0099,-1.901,-1.7013,-1.6428,-1.5299,-1.3749,-1.4445,-1.4984,-1.547,-1.6499,-1.7147,-1.7582,-1.7582,-1.7582,0.0,0.0,0.0,0.0,0.0,0.0,0.0,0.0,-1.172,-1.0046,-0.9622,-0.8898,-0.8177,-0.8022,-0.8287,-0.8531,-0.8137,-0.8297,-0.8194,-0.6459,0.0,0.0,-0.1658,-0.0655,0.0101,0.0554,0.0251,-0.0101,-0.0102,-0.0103,0.0983,0.4217,0.4769,0.5591,0.7858,0.8197,0.816,0.8002,0.7988,0.9019,1.1658,1.1896,1.2963,1.5588,1.5784,1.5784,1.5784,1.5784,1.5784,1.5784,1.5784,1.5784,1.5784,1.5784,1.5784,1.5784,1.5784,1.5784,1.573,1.4028,1.2764,1.1799,1.0096,0.8825,0.7988,0.7988,0.7988,0.7988,0.7988,0.7988,0.7988,0.7988,0.7988,0.7988,0.0,0.0,0.0,0.0,0.0,0.0,0.0,0.0,0.0,0.0,0.0,0.0,0.0,0.0,0.0,0.0,0.0,0.0,-1.847,-1.8764,-1.9058,-1.941,-1.9424,-1.9424,-1.9424,-1.9653,-1.9907,-2.0174,-1.9893,-1.8699,-1.6659,-1.6095,-1.5081,-1.3628,-1.3415,-1.4067,-1.5358,-1.5352,-1.6221,-1.7575,-1.7575,-1.7575,-1.7417,0.0,0.0,0.0,0.0,0.0,0.0,0.0,-1.0154,-0.9825,-0.8693,-0.8214,-0.8038,-0.8038,-0.897,-0.9706,-0.8382,-0.8965,-0.9329,-0.6661,0.0,-0.1612,-0.0299,0.005,0.0403,0.1755,0.3058,0.4016,0.4016,0.3975,0.4462,0.5794,0.6022,0.6465,0.7809,0.7988,0.7988,0.7988,0.7988,0.9019,1.1658,1.1896,1.2963,1.5588,1.5784,1.5784,1.5784,1.5784,1.5784,1.5784,1.5784,1.5784,1.5784,1.5784,1.5784,1.5784,1.5784,1.5784,1.573,1.3113,1.1945,1.175,0.9164,0.8038,0.8041,0.7988,0.7988,0.7988,0.7988,0.7988,0.7988,0.7988,0.7988,0.7988,0.0,0.0,0.0,0.0,0.0,0.0,0.0,0.0,0.0,0.0,0.0,0.0,0.0,0.0,0.0,0.0,0.0,0.0,-1.8135,-1.8644,-1.8965,-1.9052,-1.9259,-1.9424,-1.9424,-1.9653,-1.9766,-1.964,-1.8396,-1.6684,-1.4428,-1.3197,-1.1742,-1.0109,-1.1136,-1.1778,-1.2163,-1.3159,-1.3879,-1.4348,-1.4348,-1.4453,-1.4508,0.0,0.0,0.0,0.0,0.0,0.0,0.0,0.0,0.0,-1.0955,-1.0775,-1.073,-1.073,-1.0386,-0.9891,-0.9498,-0.8333,-0.6763,-0.5044,-0.2595,-0.025,0.1095,0.2151,0.0,0.3311,0.3714,0.4016,0.4016,0.3984,0.4446,0.5782,0.6007,0.6472,0.7796,0.7988,0.7988,0.7988,0.7988,0.9019,1.1658,1.1896,1.2963,1.5588,1.5784,1.5784,1.5784,1.5784,1.5784,1.5784,1.5784,1.5784,1.5784,1.5784,1.5784,1.5784,1.5784,1.5784,1.5784,1.5003,1.4172,1.3199,1.1507,1.0239,0.9316,0.8382,0.7988,0.7988,0.7988,0.7988,0.7988,0.7988,0.7988,0.7988,0.0,0.0,0.0,0.0,0.0,0.0,0.0,0.0,0.0,0.0,-1.8522,-1.8562,0.0,0.0,0.0,0.0,0.0,0.0,0.0,-1.8322,-1.8621,-1.8911,-1.9092,-1.9245,-1.9424,-1.9539,-1.9426,-1.9018,-1.7602,-1.5726,-1.347,-1.1877,-1.0194,-0.8538,-0.9519,-1.0233,-1.0746,-1.1625,-1.2316,-1.2909,-1.299,-1.3055,-1.3128,0.0,0.0,0.0,0.0,0.0,0.0,0.0,0.0,0.0,-1.1775,0.0,-1.1804,-1.1312,-1.0974,-1.0525,-0.951,-0.8019,-0.6341,-0.446,-0.1599,0.1446,0.3841,0.46,0.4814,0.4818,0.522,0.557,0.557,0.557,0.5874,0.6681,0.6783,0.7083,0.7889,0.7988,0.7988,0.7988,0.7988,0.9019,1.1658,1.1896,1.2963,1.5588,1.5784,1.5784,1.5784,1.5784,1.5784,1.5784,1.5784,1.5784,1.5784,1.5784,1.5784,1.5784,1.5784,1.5784,1.5778,1.5289,1.4609,1.3776,1.1945,1.073,0.9903,0.8528,0.7988,0.7988,0.7988,0.8347,0.8709,0.8194,0.8656,0.9478,0.0,0.0,-1.7125,-1.6827,0.0,0.0,0.0,0.0,0.0,0.0,-1.7995,-1.8095,0.0,0.0,0.0,0.0,0.0,0.0,0.0,0.0,-1.8268,-1.8865,-1.8938,-1.9092,-1.9417,-1.9339,-1.9052,-1.849,-1.7096,-1.5423,-1.3403,-1.1567,-0.9908,-0.8442,-0.8459,-0.9224,-1.0441,-1.0441,-1.1223,-1.2387,-1.2524,-1.256,-1.247,-1.1164,0.0,0.0,0.0,0.0,0.0,0.0,0.0,0.0,-1.1913,-1.2237,-1.2042,-1.0872,-1.117,-1.1365,-0.9023,-0.7997,-0.7032,-0.4593,-0.0905,0.3156,0.6977,0.6959,0.6145,0.6161,0.7117,0.7965,0.7951,0.7948,0.7948,0.7948,0.7961,0.7968,0.7968,0.7982,0.7988,0.7988,0.7988,0.897,1.1458,1.1848,1.2915,1.5439,1.573,1.5784,1.5784,1.5784,1.5784,1.5784,1.5784,1.5784,1.5784,1.5784,1.5784,1.5784,1.5784,1.5784,1.5778,1.4609,1.3926,1.3584,1.1209,1.0047,0.9706,0.8478,0.8088,0.8187,0.8194,0.9011,1.0045,0.8809,0.985,1.1711,0.0,0.0,-1.7253,-1.7361,0.0,0.0,0.0,0.0,0.0,0.0,0.0,0.0,0.0,0.0,0.0,0.0,0.0,0.0,0.0,0.0,-1.845,-1.8577,-1.9025,-1.9299,-1.9424,-1.9138,-1.8844,-1.849,-1.5829,-1.3946,-1.2899,-1.0261,-0.8695,-0.8089,-0.8262,-0.8449,-0.8578,-0.8578,-0.8852,-0.9284,-0.9318,-0.9354,-0.941,-0.9155,-0.8956,0.0,0.0,0.0,0.0,0.0,0.0,0.0,-1.4599,-1.4956,-1.4908,-1.4609,-1.3301,-1.176,-1.1212,-0.8043,-0.4708,-0.4142,-0.0201,0.4059,0.5974,0.695,0.7411,0.7417,0.7664,0.7828,0.7712,0.7695,0.7695,0.7695,0.7787,0.7862,0.7862,0.7914,0.7988,0.7988,0.7988,0.8627,1.0243,1.1312,1.2576,1.4172,1.5242,1.5784,1.5784,1.5784,1.5784,1.5784,1.5784,1.5784,1.5784,1.5784,1.5784,1.5784,1.5784,1.5784,1.5778,1.5534,1.4268,1.2285,1.175,1.0337,0.8432,0.8137,0.8627,0.9562,0.9569,1.0371,1.1457,1.1177,1.1423,1.185,0.0,0.0,0.0,0.0,0.0,0.0,0.0,0.0,0.0,0.0,0.0,0.0,0.0,0.0,0.0,0.0,-1.5926,0.0,0.0,0.0,-1.7659,-1.8628,-1.9132,-1.9299,-1.9158,-1.8998,-1.8711,-1.8277,-1.5206,-1.3421,-1.2761,-0.9823,-0.8323,-0.7992,-0.8123,-0.8116,-0.7988,-0.7988,-0.8085,-0.8167,-0.8241,-0.8368,-0.8381,-0.8381,-0.8336,-0.8323,-0.8269,0.0,0.0,0.0,0.0,0.0,0.0,0.0,-1.4752,-1.4124,-1.2963,-1.176,-1.1149,-0.8054,-0.4516,-0.2565,0.0502,0.3413,0.472,0.553,0.6149,0.6619,0.7273,0.7689,0.7614,0.76,0.76,0.76,0.7662,0.7709,0.7709,0.7838,0.7902,0.7838,0.7889,0.8653,1.0633,1.1311,1.2521,1.4638,1.5315,1.5678,1.5771,1.5698,1.5685,1.5778,1.5698,1.5691,1.5784,1.5784,1.5784,1.5784,1.5784,1.5784,1.5784,1.5784,1.4711,1.2813,1.2188,1.0779,0.897,0.897,0.9381,1.0048,1.0663,1.1707,1.2796,1.2162,1.2685,1.3656,0.0,0.0,0.0,0.0,0.0,0.0,0.0,0.0,0.0,0.0,0.0,0.0,0.0,0.0,-1.4948,0.0,0.0,0.0,0.0,0.0,0.0,-1.8841,-1.9205,-1.9225,-1.8931,-1.8871,-1.8584,-1.7995,-1.4908,-1.3208,-1.2761,-0.9848,-0.8299,-0.7988,-0.7988,-0.7988,-0.7988,-0.7988,-0.7988,-0.8002,-0.818,-0.8231,-0.8231,-0.8231,-0.8231,-0.8218,-0.8116,-0.8163,-0.8452,-0.9655,0.0,0.0,0.0,0.0,-1.3343,-1.2237,-1.175,-1.1365,-1.0288,-0.8064,-0.5068,-0.1303,0.0652,0.201,0.3364,0.3807,0.4206,0.5109,0.6355,0.7295,0.7483,0.7519,0.7519,0.7519,0.7543,0.757,0.7597,0.7699,0.774,0.7648,0.7719,0.8674,1.108,1.1291,1.2425,1.518,1.5338,1.5444,1.5738,1.5478,1.5451,1.5698,1.5524,1.5538,1.5778,1.5784,1.5784,1.5784,1.5784,1.5784,1.5784,1.5784,1.4997,1.3488,1.2619,1.1409,0.9998,1.0243,1.0475,1.0775,1.184,1.3073,1.4079,1.2964,1.3928,1.5669,0.0,0.0,0.0,0.0,0.0,0.0,0.0,0.0,0.0,0.0,-1.5719,-1.5606,0.0,0.0,0.0,-1.3138,-1.3247,0.0,0.0,0.0,0.0,-1.8911,-1.9205,-1.9225,-1.8931,-1.8677,-1.8384,-1.7995,-1.468,-1.2997,-1.2705,-0.9729,-0.8208,-0.7988,-0.7988,-0.7988,-0.7988,-0.7988,-0.7988,-0.7992,-0.8012,-0.8019,-0.8019,-0.8019,-0.8019,-0.8035,-0.8201,-0.8252,-0.8466,-0.9738,-1.0192,0.0,0.0,0.0,-1.2139,-1.1945,-1.1121,-1.0243,-1.0047,0.0,-0.5325,-0.2463,-0.0702,0.0602,0.196,0.3078,0.3851,0.4005,0.5025,0.6144,0.7023,0.7156,0.7156,0.7156,0.7316,0.7448,0.758,0.7614,0.7665,0.777,0.7692,0.8135,0.9473,1.0653,1.1985,1.3614,1.4571,1.515,1.5438,1.5177,1.5202,1.5444,1.5418,1.5538,1.5778,1.5784,1.5784,1.5784,1.5784,1.5784,1.5784,1.5784,1.4465,1.2237,1.3199,1.2231,1.0096,1.117,1.2306,1.3417,1.3571,1.4425,1.5512,1.5335,1.5512,1.5778,0.0,0.0,0.0,0.0,0.0,0.0,0.0,0.0,0.0,0.0,0.0,-1.4196,0.0,0.0,0.0,-1.077,-1.0786,-1.1855,-1.4315,-1.6806,0.0,-1.8664,-1.8811,-1.8731,-1.8424,-1.8303,-1.8096,-1.7789,-1.4573,-1.2919,-1.2705,-0.9709,-0.8187,-0.7988,-0.7988,-0.7988,-0.7988,-0.7988,-0.7988,-0.7932,-0.7202,-0.6869,-0.6874,-0.69,-0.6869,-0.6992,-0.7811,-0.814,-0.824,-0.8779,-0.8976,-0.9061,-0.9579,0.0,0.0,0.0,-1.0435,-0.985,-0.9069,-0.7475,-0.5727,0.0,-0.2661,-0.0954,-0.0352,0.075,0.188,0.2523,0.309,0.3801,0.4954,0.5711,0.616,0.616,0.6748,0.7265,0.7333,0.7417,0.7461,0.7392,0.7458,0.7972,0.9192,1.0263,1.1642,1.3409,1.4282,1.4917,1.5371,1.4963,1.485,1.5189,1.5202,1.5291,1.5585,1.5698,1.5784,1.5784,1.5784,1.5784,1.5784,1.5784,1.4758,1.3054,1.3632,1.2813,1.117,1.2495,1.3363,1.3996,1.4702,1.5293,1.5784,1.5784,1.5784,1.5784,0.0,0.0,0.0,0.0,0.0,0.0,0.0,0.0,0.0,0.0,0.0,0.0,0.0,0.0,0.0,0.0,-0.924,-1.0784,-1.3936,-1.6556,0.0,0.0,0.0,-1.8343,-1.8029,-1.7982,-1.7896,-1.7582,-1.4455,-1.292,-1.2756,-0.9662,-0.815,-0.7988,-0.7988,-0.7988,-0.7988,-0.7988,-0.7816,-0.7424,-0.6385,-0.5796,-0.5492,-0.5489,-0.5471,-0.5691,-0.7021,-0.7487,-0.7537,-0.7889,-0.7988,-0.7988,-0.7988,-0.8676,0.0,0.0,0.0,-0.9262,-0.8283,0.0,-0.6431,-0.6079,-0.4472,-0.2816,-0.2163,-0.1209,-0.0151,0.1083,0.1367,0.1629,0.25,0.4185,0.5402,0.5402,0.6361,0.7109,0.7149,0.7265,0.7285,0.7207,0.7265,0.7802,0.9097,1.0056,1.1442,1.3408,1.411,1.4669,1.5257,1.473,1.4543,1.4843,1.4968,1.5149,1.5391,1.5685,1.5784,1.5784,1.5784,1.5784,1.5778,1.5752,1.5225,1.4364,1.4364,1.3638,1.2528,1.3859,1.4394,1.4491,1.5423,1.5784,1.5784,1.5784,1.5784,1.5784,0.0,0.0,0.0,0.0,0.0,0.0,0.0,0.0,0.0,0.0,0.0,0.0,-1.1016,-0.9817,-0.8934,-0.8737,-1.0089,-1.2245,-1.5108,-1.6997,-1.8002,-1.8015,0.0,0.0,-1.7995,-1.7995,-1.7896,-1.7582,-1.4401,-1.2823,-1.2751,-0.9535,-0.7995,-0.7988,-0.7988,-0.7988,-0.7988,-0.7988,-0.726,-0.6112,-0.6009,-0.522,-0.4104,-0.4127,-0.4109,-0.427,-0.5641,-0.6079,-0.6282,-0.7587,-0.7988,-0.7988,-0.7988,-0.8038,-0.8088,0.0,0.0,0.0,0.0,-0.7939,0.0,-0.6331,-0.5879,-0.5125,-0.2565,-0.1963,-0.1502,-0.0197,0.0097,0.0095,0.0185,0.3037,0.5382,0.5382,0.6376,0.7146,0.7339,0.7241,0.7204,0.7343,0.7238,0.7591,0.8819,0.9927,1.1329,1.3103,1.3772,1.4362,1.5001,1.4429,1.4242,1.4536,1.4816,1.5149,1.5391,1.5685,1.5784,1.5784,1.5784,1.5784,1.5771,1.5545,1.5525,1.5683,1.5683,1.4997,1.3878,1.5146,1.5689,1.5689,1.5784,1.5784,1.5784,1.5784,1.5784,1.5784,0.0,0.0,0.0,0.0,0.0,0.0,0.0,0.0,0.0,0.0,0.0,0.0,0.0,-0.9568,-0.8662,-0.8706,-1.0832,-1.3052,-1.5013,-1.6432,-1.7275,-1.7462,0.0,0.0,0.0,-1.7749,-1.7173,-1.6085,-1.3942,-1.2358,-1.1226,-0.9139,-0.8136,-0.7988,-0.7988,-0.7988,-0.7939,-0.7083,-0.6459,-0.5861,-0.4101,-0.3163,-0.2708,-0.2696,-0.2732,-0.2886,-0.4254,-0.4726,-0.492,-0.6279,-0.6731,-0.6883,-0.7739,-0.7988,-0.7988,-0.7988,-0.7921,-0.7867,0.0,0.0,0.0,-0.7385,-0.6631,-0.5727,-0.4772,-0.3218,-0.1859,-0.1398,-0.0596,0.0,0.0,0.1688,0.3343,0.4107,0.5248,0.6311,0.708,0.7132,0.7197,0.7353,0.7322,0.7507,0.8017,0.9669,1.1144,1.2158,1.3404,1.4342,1.4975,1.4445,1.4135,1.4242,1.4529,1.4823,1.5162,1.5591,1.5684,1.5558,1.5738,1.5732,1.5558,1.5638,1.5598,1.5531,1.5725,1.5534,1.5146,1.5635,1.5784,1.5784,1.5784,1.5784,1.5784,1.5784,1.5784,1.5784,0.0,0.0,0.0,0.0,0.0,0.0,0.0,0.0,0.0,-0.9944,0.0,0.0,0.0,0.0,-0.8885,-0.9936,-1.1672,-1.3549,-1.5427,-1.6296,-1.6794,-1.7038,-1.7146,0.0,0.0,-1.7528,-1.7016,-1.589,-1.3904,-1.2272,-1.1025,-0.9116,-0.8136,-0.7988,-0.7988,-0.7988,-0.7889,-0.6581,-0.5716,-0.513,-0.2883,-0.1748,-0.1344,-0.1346,-0.1314,-0.1433,-0.2317,-0.2931,-0.3465,-0.4364,-0.4966,-0.5575,-0.688,-0.7604,-0.7914,-0.7914,-0.7889,-0.7845,-0.7948,0.0,0.0,-0.7988,-0.7335,-0.6531,-0.6079,-0.4622,-0.3067,-0.2163,-0.1303,-0.055,-0.01,0.0668,0.1599,0.2783,0.4371,0.5686,0.649,0.6946,0.7275,0.7428,0.7448,0.7489,0.759,0.9651,1.1166,1.1675,1.3268,1.4449,1.4981,1.4445,1.4128,1.4229,1.4422,1.4663,1.5008,1.5344,1.5444,1.5251,1.5444,1.5438,1.5257,1.5451,1.5484,1.5415,1.561,1.5705,1.5784,1.5784,1.5784,1.5784,1.5784,1.5784,1.5784,1.5784,1.5784,1.5784,0.0,0.0,0.0,0.0,0.0,0.0,0.0,0.0,-0.8476,-0.8482,0.0,0.0,0.0,0.0,0.0,-1.2274,-1.2582,-1.3762,-1.6437,-1.6687,-1.6687,-1.6693,-1.7018,0.0,0.0,-1.7481,-1.7428,-1.7083,-1.4208,-1.2593,-1.2214,-0.9341,-0.7988,-0.7988,-0.7988,-0.7988,-0.7882,-0.6526,-0.5167,-0.3863,-0.2445,-0.11,0.0047,0.0097,0.0097,0.0096,0.0099,-0.0752,-0.1911,-0.1953,-0.2854,-0.4166,-0.5572,-0.6833,-0.7801,-0.7811,-0.7807,-0.7838,0.0,0.0,0.0,-0.7988,-0.7988,-0.7637,-0.6379,-0.6029,-0.5275,-0.2666,-0.2082,-0.1665,-0.0344,-0.0097,0.0334,0.1477,0.3723,0.5362,0.5565,0.6594,0.7434,0.7587,0.7607,0.7607,0.7611,0.987,1.143,1.1696,1.3444,1.4663,1.4995,1.4445,1.4215,1.4496,1.4516,1.4656,1.4981,1.5001,1.5008,1.4995,1.5008,1.5008,1.5008,1.5015,1.5129,1.5394,1.542,1.5567,1.5784,1.5784,1.5784,1.5784,1.5784,1.5784,1.5784,1.5784,1.5784,1.5784,0.0,0.0,0.0,0.0,0.0,0.0,-0.9279,-0.8702,-0.8367,0.0,0.0,0.0,-0.8316,-0.8381,-0.9087,-1.0853,-1.1805,-1.3057,-1.4868,-1.5638,-1.6166,-1.6386,-1.6522,-1.6764,-1.7192,-1.728,-1.6227,-1.4043,-1.3203,-1.1549,-0.9183,-0.8404,-0.7988,-0.7988,-0.7988,-0.7928,-0.7726,-0.5515,-0.4322,-0.3715,-0.0439,0.1118,0.1543,0.2533,0.2899,0.2918,0.2905,0.2035,0.0754,-0.025,-0.1454,-0.2958,-0.5141,-0.6637,-0.7536,-0.7746,-0.774,-0.7712,-0.7921,0.0,0.0,0.0,0.0,0.0,-0.7537,-0.6681,-0.5779,-0.5024,-0.4102,-0.3339,-0.2942,-0.2114,-0.1359,-0.1019,0.114,0.3463,0.5356,0.5878,0.6491,0.7589,0.7753,0.7797,0.7857,1.0044,1.1559,1.1839,1.3722,1.4877,1.5008,1.4445,1.4122,1.4202,1.4409,1.4462,1.4329,1.4794,1.4901,1.4643,1.4863,1.5008,1.5015,1.5177,1.5316,1.5415,1.5597,1.5738,1.5784,1.5784,1.5784,1.5784,1.5784,1.5784,1.5784,1.5784,1.5784,1.5784,0.0,0.0,-1.2309,-1.2054,0.0,-0.953,-0.8433,-0.8228,-0.8204,0.0,0.0,0.0,-0.8163,-0.8174,-0.8722,-1.0108,-1.1345,-1.2675,-1.4047,-1.5188,-1.5905,-1.6079,-1.6206,-1.6543,-1.7005,-1.7139,-1.601,-1.3625,-1.3625,-1.1971,-0.8825,-0.8825,-0.8531,-0.7985,-0.7924,-0.7896,-0.7607,-0.504,-0.3639,-0.2845,0.0589,0.2303,0.2854,0.3685,0.4011,0.407,0.4652,0.3983,0.2814,0.2555,0.0852,-0.1499,-0.3503,-0.4921,-0.6059,-0.6771,-0.6933,0.0,0.0,0.0,-0.7988,-0.7988,0.0,0.0,-0.7988,-0.7385,-0.6681,-0.6129,-0.5375,-0.467,-0.4116,-0.3386,-0.2818,-0.2818,-0.1567,0.0484,0.365,0.499,0.6043,0.6951,0.756,0.7891,0.7982,0.9746,1.1173,1.1838,1.3415,1.4475,1.479,1.4456,1.4215,1.4088,1.4249,1.4255,1.4088,1.4472,1.4509,1.4342,1.4516,1.4663,1.4783,1.495,1.5162,1.5415,1.5438,1.5577,1.5778,1.5669,1.5724,1.5784,1.5784,1.5784,1.5784,1.5784,1.5784,1.5784,0.0,0.0,-1.0795,-1.0681,-0.9447,-0.8381,-0.8035,-0.7988,-0.7988,0.0,-0.7988,-0.7988,-0.7988,-0.7988,-0.8482,-0.9657,-1.0974,-1.2285,-1.3584,-1.4902,-1.5635,-1.5778,-1.6086,-1.631,-1.644,-1.6863,-1.624,-1.455,-1.4702,-1.3202,-1.0194,-1.0047,-0.9353,-0.8202,-0.7921,-0.7794,-0.7599,-0.4917,-0.3022,-0.1508,0.1128,0.2937,0.4062,0.4299,0.4415,0.4618,0.5792,0.5372,0.4368,0.5425,0.3302,0.005,-0.1204,-0.2505,-0.3834,-0.5161,-0.5588,0.0,0.0,0.0,0.0,-0.7534,-0.7683,0.0,-0.7783,-0.7885,-0.7686,-0.6481,-0.6229,-0.5877,-0.4668,-0.4316,-0.4216,-0.4216,-0.4116,-0.2643,0.1228,0.372,0.5368,0.5917,0.7033,0.7885,0.8187,0.941,1.0681,1.1799,1.2828,1.3756,1.4555,1.4556,1.4402,1.4142,1.4108,1.4088,1.4088,1.4088,1.4088,1.4088,1.4088,1.4255,1.4569,1.4536,1.4841,1.5369,1.5126,1.5279,1.5731,1.5494,1.5561,1.5784,1.5784,1.5784,1.5784,1.5784,1.5784,1.5784,-1.2734,-1.0881,-0.945,-1.0288,-0.9375,-0.8381,-0.8035,-0.7988,-0.7988,-0.7988,-0.7988,-0.7988,-0.7988,-0.7988,-0.8088,-0.8382,-0.9608,-1.0921,-1.2188,-1.3542,-1.4752,-1.5778,-1.5838,-1.5557,-1.4776,-1.5907,-1.5301,-1.2896,-1.3884,-1.3435,-1.1507,-1.0485,-0.982,-0.9388,-0.8304,-0.7678,-0.732,-0.484,-0.2426,0.0,0.2469,0.4231,0.5538,0.6654,0.7119,0.7248,0.7528,0.6731,0.5475,0.467,0.3224,0.1562,0.0243,-0.1057,-0.2333,-0.3773,-0.419,-0.4268,-0.4694,-0.4764,-0.476,-0.476,-0.5608,0.0,-0.641,-0.7223,-0.7939,-0.7686,-0.7587,-0.7534,-0.7282,-0.6329,-0.5627,-0.5627,-0.4718,-0.2954,0.0,0.0797,0.2343,0.5622,0.6232,0.7223,0.9406,1.0779,1.1604,1.1896,1.2828,1.392,1.5139,1.4776,1.4496,1.4436,1.4208,1.4088,1.4088,1.4088,1.4088,1.4088,1.4088,1.4362,1.4914,1.4629,1.483,1.5403,1.5117,1.519,1.5451,1.5416,1.5561,1.5784,1.5784,1.5784,1.5784,1.5784,1.5784,1.5784,-1.0647,-0.9534,-0.8734,-0.9265,-0.8834,-0.8299,-0.8022,-0.7988,-0.7988,-0.7988,-0.7988,-0.7988,-0.7988,-0.7988,-0.7988,-0.7988,-0.9213,-1.0293,-1.0925,-1.2183,-1.3204,-1.3836,-1.3836,-1.3711,-1.3364,-1.4019,-1.3375,-1.1377,-1.3364,-1.3079,-1.0725,-1.0821,-1.0429,-0.9567,-0.8219,-0.7219,-0.649,-0.453,-0.187,0.1174,0.3135,0.5086,0.6888,0.7599,0.7924,0.7988,0.7988,0.7539,0.6695,0.5406,0.4555,0.3652,0.1707,0.0683,-0.0195,-0.2295,-0.2904,-0.3079,-0.3807,-0.4014,-0.4011,-0.4007,-0.4518,0.0,0.0,-0.6517,-0.7185,-0.7839,-0.7988,-0.7988,-0.7988,-0.7434,-0.6983,-0.6983,-0.6426,-0.5316,-0.3256,-0.1916,-0.0101,0.2657,0.4138,0.5713,0.7819,0.9205,1.0485,1.1804,1.2991,1.4155,1.5358,1.5117,1.489,1.4743,1.4603,1.4473,1.4284,1.4277,1.4285,1.4322,1.4279,1.4605,1.517,1.4877,1.5064,1.5585,1.515,1.5211,1.5605,1.5458,1.5571,1.5784,1.5784,1.5784,1.5784,1.5784,1.5784,1.5784,-0.865,-0.8421,-0.8394,-0.8252,-0.8252,-0.8218,-0.8012,-0.7988,-0.7889,-0.7637,-0.7637,-0.7534,-0.7282,-0.7434,-0.7637,-0.7637,-0.8821,-0.9706,-0.9998,-1.0974,-1.1653,-1.1896,-1.1896,-1.1933,-1.1964,-1.2168,-1.1765,-1.0665,-1.28,-1.2587,-1.0335,-1.0953,-1.065,-0.9461,-0.8073,-0.6824,-0.5675,-0.4241,-0.1484,0.1999,0.3434,0.5475,0.7743,0.7847,0.7904,0.7904,0.7904,0.7875,0.7594,0.6625,0.6247,0.5683,0.3171,0.2322,0.1846,-0.0839,-0.1592,-0.1862,-0.2916,-0.3215,-0.3214,-0.321,-0.3426,-0.389,0.0,0.0,0.0,-0.7335,-0.7637,-0.7686,-0.7939,-0.7988,-0.7988,-0.7988,-0.7988,-0.7637,-0.6531,-0.4628,-0.2655,-0.0655,0.1622,0.3716,0.542,0.7021,0.8989,1.1346,1.2759,1.3981,1.5059,1.5286,1.5284,1.5075,1.5038,1.487,1.4614,1.459,1.4589,1.4603,1.4588,1.4894,1.5384,1.5142,1.5251,1.5718,1.519,1.5264,1.5712,1.549,1.5567,1.5784,1.5784,1.5784,1.5784,1.5784,1.5784,1.5784,-0.8089,-0.8201,-0.8245,-0.8092,0.0,0.0,0.0,-0.7988,-0.7587,-0.6381,-0.6232,-0.5777,-0.4568,-0.5522,-0.6232,-0.6232,-0.7431,-0.8726,-0.9899,-1.0145,-1.073,-1.1848,-1.1896,-1.1375,-1.0323,-1.1399,-1.1888,-1.1741,-1.1927,-1.242,-1.3175,-1.0846,-0.9643,-0.9461,-0.8139,-0.6863,-0.5536,-0.4306,-0.1493,0.226,0.3486,0.5371,0.7438,0.759,0.7648,0.7648,0.7648,0.7638,0.7624,0.7452,0.7398,0.6928,0.4421,0.3573,0.3099,0.05,-0.0252,-0.0252,-0.0404,-0.0454,-0.0454,-0.0454,-0.1363,-0.2274,-0.2423,0.0,-0.4618,-0.5927,0.0,-0.6581,-0.7786,0.0,0.0,-0.7988,-0.7988,-0.7939,-0.7789,-0.7655,-0.6174,-0.2405,-0.0556,0.1368,0.3736,0.643,0.8614,1.0028,1.1376,1.2711,1.3981,1.4912,1.539,1.5374,1.5113,1.4971,1.4951,1.4943,1.4941,1.4957,1.4955,1.51,1.5384,1.5142,1.5137,1.5431,1.5149,1.515,1.5424,1.5402,1.5567,1.5784,1.5784,1.5784,1.5784,1.5784,1.5784,1.5784,-0.7988,-0.8092,-0.8116,-0.8002,0.0,0.0,0.0,0.0,-0.6631,-0.6079,-0.5322,-0.4618,-0.4066,-0.4518,-0.482,-0.482,-0.6077,-0.708,-0.7617,-0.8421,-0.9069,-0.9608,-0.9653,-0.941,-0.8874,-0.9311,-0.9542,-0.9542,-1.0112,-1.0649,-1.0994,-0.9899,-0.9376,-0.9334,-0.8051,-0.6426,-0.4626,-0.4065,-0.1172,0.3062,0.3647,0.5297,0.7443,0.7634,0.7672,0.76,0.76,0.7543,0.7482,0.757,0.7539,0.7164,0.5391,0.4371,0.3418,0.1605,0.0541,0.0149,0.0942,0.1151,0.1364,0.2118,0.1312,0.0101,-0.0653,-0.1858,-0.3215,-0.457,0.0,0.0,0.0,0.0,0.0,0.0,-0.7487,-0.7988,-0.7988,-0.8096,-0.7211,-0.4712,-0.3245,-0.1369,0.1269,0.404,0.6207,0.7537,0.9563,1.1657,1.3776,1.4984,1.5631,1.5638,1.553,1.5369,1.5253,1.5239,1.5252,1.5252,1.5219,1.5391,1.5645,1.5524,1.5531,1.5645,1.5518,1.5531,1.5638,1.5624,1.5712,1.5784,1.5784,1.5784,1.5784,1.5784,1.5784,1.5784,-0.7988,-0.7988,-0.7988,-0.7988,-0.7988,0.0,0.0,-0.6631,-0.5727,-0.5024,-0.4067,-0.3316,-0.2966,-0.3215,-0.3465,-0.3465,-0.467,-0.5475,-0.5475,-0.6376,-0.6927,-0.6927,-0.7232,-0.7434,-0.7434,-0.769,-0.8,-0.8334,-0.8734,-0.9038,-0.9179,-0.8861,-0.8786,-0.8855,-0.7866,-0.6172,-0.3985,-0.3909,-0.095,0.373,0.3813,0.5294,0.7451,0.7624,0.7628,0.7533,0.7489,0.7404,0.7326,0.7434,0.74,0.7102,0.5936,0.494,0.396,0.2657,0.1682,0.1216,0.2243,0.2467,0.2697,0.372,0.3257,0.2147,0.085,-0.0201,-0.1408,-0.3114,-0.3465,0.0,0.0,0.0,-0.5979,-0.5979,0.0,-0.7988,-0.7988,-0.7988,-0.765,-0.6729,-0.5565,-0.3879,-0.1471,0.0924,0.2719,0.3698,0.6894,0.9839,1.2149,1.4196,1.5452,1.5778,1.5784,1.5724,1.5514,1.5514,1.5514,1.5507,1.5511,1.5585,1.5712,1.5792,1.5738,1.5712,1.5792,1.5784,1.5784,1.5784,1.5784,1.5784,1.5784,1.5784,1.5784,1.5784,1.5784,1.5784,-0.7988,-0.7988,-0.7988,-0.7988,-0.7988,-0.7587,-0.6279,-0.6029,-0.5074,-0.2465,-0.2113,-0.1561,-0.0252,-0.131,-0.2063,-0.2063,-0.3265,-0.4066,-0.4066,-0.4116,-0.4116,-0.4116,-0.5375,-0.6079,-0.6079,-0.7198,-0.8431,-0.9714,-0.8208,-0.8173,0.0,-0.79,-0.7429,-0.7845,-0.7655,-0.6248,-0.4007,-0.3986,-0.0885,0.3999,0.3983,0.5454,0.7577,0.7438,0.7429,0.736,0.7166,0.7109,0.7105,0.7109,0.7105,0.6907,0.5769,0.5395,0.509,0.3917,0.3514,0.3526,0.3676,0.3631,0.3644,0.394,0.389,0.3406,0.22,0.1912,0.1107,-0.1509,-0.2063,-0.2464,-0.3765,-0.5072,0.0,0.0,0.0,0.0,0.0,-0.7988,-0.8046,-0.8194,-0.7185,-0.588,-0.4508,-0.2903,-0.1987,-0.195,0.3052,0.6715,0.8014,1.1821,1.455,1.5778,1.5784,1.5784,1.5778,1.5778,1.5778,1.5778,1.5771,1.5671,1.5418,1.5698,1.5678,1.5424,1.5705,1.5784,1.5784,1.5784,1.5784,1.5784,1.5784,1.5784,1.5784,1.5784,1.5784,1.5784,-0.7988,-0.7988,-0.7988,-0.7988,-0.7988,-0.7537,-0.6229,-0.4472,-0.3016,-0.2113,-0.1209,-0.0504,-0.0051,-0.0404,-0.0656,-0.0656,-0.1913,-0.2665,-0.2665,-0.3515,-0.4016,-0.4016,-0.4418,-0.5072,-0.5979,-0.6309,-0.7121,-0.8479,-0.7849,-0.7776,0.0,0.0,0.0,-0.7675,-0.7719,-0.6281,-0.3849,-0.397,-0.094,0.4042,0.5776,0.6954,0.7594,0.7543,0.7394,0.721,0.7115,0.7038,0.6957,0.6957,0.6889,0.679,0.6502,0.5835,0.5147,0.4894,0.4235,0.3823,0.4755,0.5032,0.5297,0.6282,0.5902,0.5154,0.476,0.3267,0.1761,0.0855,-0.005,-0.0807,-0.126,-0.3167,0.0,0.0,0.0,0.0,0.0,-0.7988,-0.8096,-0.8252,-0.7171,-0.6503,-0.6774,-0.4804,-0.3498,-0.3381,0.0746,0.4252,0.6516,1.0387,1.3165,1.451,1.5352,1.5784,1.5784,1.5784,1.5784,1.5778,1.5631,1.5491,1.5398,1.5498,1.5491,1.5411,1.5705,1.5784,1.5784,1.5784,1.5784,1.5784,1.5784,1.5784,1.5784,1.5784,1.5784,1.5784,-0.7988,-0.7988,-0.7988,-0.7988,-0.7587,-0.683,-0.5475,-0.3417,-0.1812,-0.136,-0.0101,0.0706,0.0706,0.1159,0.1411,0.1411,0.0654,-0.005,-0.0553,-0.1406,-0.2058,-0.2564,-0.3015,-0.3717,-0.4572,-0.5373,-0.6201,-0.7079,-0.7428,-0.7628,0.0,0.0,0.0,0.0,-0.777,-0.6298,-0.3816,-0.3935,-0.0945,0.4095,0.6804,0.7773,0.76,0.76,0.7407,0.7095,0.7095,0.7004,0.6886,0.6886,0.6827,0.6719,0.6817,0.6287,0.5698,0.5826,0.5362,0.4966,0.5895,0.6211,0.6486,0.7534,0.7189,0.6492,0.6106,0.467,0.3167,0.2213,0.131,0.0555,0.0101,-0.1812,0.0,0.0,0.0,0.0,0.0,-0.6983,-0.7319,-0.7459,-0.7263,-0.7354,-0.8113,-0.6692,-0.5647,-0.5516,-0.1797,0.1487,0.3705,0.8077,1.1332,1.3151,1.445,1.5352,1.5784,1.5784,1.5784,1.5778,1.5531,1.5398,1.5398,1.5398,1.5378,1.5417,1.5691,1.5784,1.5784,1.5784,1.5784,1.5784,1.5784,1.5784,1.5784,1.5784,1.5784,1.5798,-0.7988,-0.7939,-0.7889,-0.7836,-0.6731,-0.5425,-0.4116,-0.2714,-0.136,-0.005,0.126,0.2112,0.2111,0.3214,0.3964,0.3959,0.3959,0.346,0.2162,0.2111,0.1509,0.0151,-0.1108,-0.1861,-0.2013,-0.4441,-0.572,-0.5817,-0.7013,-0.7692,0.0,0.0,0.0,0.0,-0.7821,-0.6303,-0.3816,-0.3935,-0.0902,0.4216,0.6921,0.7855,0.76,0.759,0.74,0.7095,0.7095,0.7001,0.6876,0.6876,0.681,0.6678,0.6685,0.6688,0.6692,0.6698,0.6807,0.6913,0.7058,0.7095,0.7192,0.767,0.7684,0.7359,0.6322,0.6066,0.5275,0.2716,0.2163,0.1711,0.0353,-0.1008,-0.2363,0.0,0.0,0.0,0.0,-0.5072,-0.5877,-0.5877,-0.7358,-0.8416,-0.8462,-0.8469,-0.8414,-0.8272,-0.4498,-0.1594,-0.0247,0.4885,0.9053,1.1735,1.3151,1.4504,1.5778,1.5784,1.5784,1.5778,1.5531,1.5398,1.5398,1.5398,1.5397,1.5428,1.5665,1.5784,1.5784,1.5784,1.5784,1.5784,1.5784,1.5784,1.5784,1.5784,1.5791,1.5892,-0.7988,-0.7185,-0.6176,-0.522,-0.4718,-0.4067,-0.2715,-0.0553,0.1107,0.146,0.2665,0.3448,0.3352,0.3643,0.3798,0.3728,0.371,0.3586,0.3354,0.3322,0.2776,0.156,0.1157,0.005,-0.1962,-0.36,-0.4934,-0.5936,-0.7248,-0.7894,-0.7931,0.0,0.0,0.0,0.0,-0.6383,-0.3816,-0.3935,-0.0902,0.421,0.6822,0.776,0.7587,0.7472,0.7309,0.7095,0.7095,0.6933,0.6759,0.6759,0.6586,0.6433,0.6538,0.6569,0.6552,0.6668,0.6734,0.6774,0.691,0.7007,0.7186,0.7422,0.7641,0.7671,0.7415,0.6625,0.5827,0.5125,0.4169,0.3065,0.1712,0.0402,-0.0953,0.0,0.0,0.0,-0.4016,-0.4318,-0.4518,-0.4518,-0.5892,-0.7183,-0.8062,-0.8258,-0.8262,-0.8109,-0.6139,-0.3954,-0.1645,0.266,0.6667,1.029,1.2682,1.4504,1.5778,1.5784,1.5784,1.5778,1.5531,1.5398,1.5398,1.5398,1.5397,1.5428,1.5665,1.5784,1.5784,1.5784,1.5784,1.5784,1.5784,1.5784,1.5784,1.5784,1.5972,1.6166,-0.6274,-0.5622,-0.4516,-0.2605,-0.2255,-0.2005,-0.1255,0.0653,0.2213,0.2815,0.3988,0.4743,0.4694,0.5145,0.5419,0.5341,0.537,0.5154,0.4641,0.4604,0.3796,0.1988,0.1891,0.0949,-0.1058,-0.3015,-0.4368,-0.5122,-0.7033,-0.7988,-0.7988,0.0,0.0,0.0,0.0,-0.6413,-0.3669,-0.1442,0.1252,0.4209,0.6784,0.7726,0.0,0.7431,0.7275,0.7088,0.7024,0.6898,0.6702,0.6702,0.6505,0.6313,0.6395,0.6419,0.6436,0.6521,0.6566,0.6639,0.6707,0.6857,0.7047,0.7216,0.7432,0.768,0.7756,0.7282,0.6631,0.6129,0.5425,0.447,0.3115,0.1757,0.0452,-0.0907,-0.2264,-0.2914,-0.2314,-0.2764,-0.3115,-0.3115,-0.4916,-0.6196,-0.6232,-0.7509,-0.8208,-0.8002,-0.6832,-0.5159,-0.3006,0.0906,0.4885,0.892,1.1621,1.3921,1.5778,1.5784,1.5784,1.5778,1.5531,1.5464,1.5578,1.5464,1.545,1.5571,1.5738,1.5784,1.5784,1.5784,1.5784,1.5784,1.5784,1.5784,1.5784,1.5784,1.6019,1.6342,-0.3765,-0.3613,-0.2708,-0.02,0.0401,0.0601,0.0751,0.1753,0.2904,0.4102,0.5272,0.6037,0.601,0.694,0.7584,0.7543,0.7539,0.7073,0.5907,0.5858,0.4765,0.2387,0.2152,0.1482,0.0251,-0.236,-0.3815,-0.4016,-0.6526,-0.7839,0.0,0.0,0.0,0.0,0.0,0.0,-0.3485,0.1791,0.4016,0.4209,0.6769,0.7709,0.758,0.7407,0.7258,0.7082,0.6957,0.6848,0.6698,0.6678,0.6488,0.63,0.63,0.63,0.63,0.63,0.6383,0.6488,0.6503,0.6685,0.6913,0.7041,0.7233,0.7469,0.7703,0.7799,0.7478,0.6459,0.6268,0.5877,0.4518,0.3015,0.1611,0.0454,-0.0857,-0.131,-0.0151,-0.1008,-0.1762,-0.1762,-0.3971,0.0,-0.3865,-0.6318,-0.7927,-0.7746,-0.6827,-0.5613,-0.4067,-0.0453,0.353,0.7785,1.0492,1.3146,1.5778,1.5784,1.5784,1.5778,1.5571,1.5585,1.5771,1.5584,1.5564,1.5784,1.5784,1.5784,1.5784,1.5784,1.5784,1.5784,1.5784,1.5784,1.5784,1.5784,1.6039,1.6366,-0.2564,-0.1455,-0.02,0.1357,0.256,0.3662,0.4766,0.5053,0.5201,0.5445,0.6523,0.7241,0.7141,0.7303,0.7353,0.7196,0.7176,0.7153,0.7079,0.7102,0.6444,0.5,0.3973,0.2841,0.1527,-0.1048,-0.2914,-0.4016,-0.5575,-0.6933,0.0,0.0,0.0,0.0,0.0,0.0,-0.3597,0.1751,0.4016,0.4203,0.6675,0.7624,0.757,0.7288,0.7119,0.7092,0.7068,0.6929,0.6681,0.6556,0.6439,0.63,0.63,0.63,0.63,0.63,0.6323,0.6381,0.6595,0.6682,0.6792,0.7034,0.7233,0.7399,0.7456,0.7652,0.775,0.7531,0.7553,0.7235,0.5877,0.3668,0.1913,0.1711,0.0504,-0.0252,-0.0051,-0.0202,-0.0353,-0.0353,-0.1762,-0.2615,-0.2363,-0.4786,-0.6403,-0.6331,-0.6147,-0.5438,-0.4059,-0.1252,0.266,0.7732,1.0492,1.3146,1.5778,1.5784,1.5784,1.5784,1.5731,1.5731,1.5778,1.5765,1.5765,1.5784,1.5784,1.5784,1.5784,1.5784,1.5784,1.5784,1.5784,1.5784,1.5784,1.5784,1.6166,1.664,-0.0201,0.0603,0.1656,0.3717,0.462,0.5472,0.6731,0.6801,0.6734,0.6825,0.7241,0.7456,0.7428,0.7285,0.7208,0.7109,0.7095,0.7136,0.7233,0.7265,0.6723,0.5552,0.4951,0.3736,0.1862,-0.0099,-0.2038,-0.4016,-0.5322,-0.6681,0.0,0.0,0.0,0.0,0.0,-0.3153,-0.1603,0.3056,0.5022,0.5205,0.6894,0.76,0.7567,0.7213,0.7095,0.7078,0.6923,0.682,0.6688,0.6617,0.6484,0.63,0.63,0.63,0.63,0.63,0.63,0.6354,0.6522,0.666,0.6765,0.6949,0.7129,0.725,0.7356,0.7503,0.7641,0.7781,0.7874,0.7497,0.6218,0.4924,0.3618,0.2213,0.146,0.0807,0.0101,0.0,0.0,0.0,-0.1159,-0.1712,-0.1008,-0.2766,-0.4219,-0.492,-0.5027,-0.4474,-0.3013,-0.0466,0.3074,0.7774,1.0506,1.3146,1.5778,1.5784,1.546,1.482,1.546,1.546,1.482,1.5507,1.5784,1.5784,1.5784,1.5784,1.5784,1.5784,1.5784,1.5784,1.5784,1.5784,1.5798,1.6005,1.6333,1.6707,0.2213,0.2615,0.3468,0.5577,0.6179,0.6681,0.7633,0.7654,0.7589,0.7681,0.7492,0.733,0.7338,0.7189,0.7095,0.7095,0.7095,0.7095,0.7095,0.7095,0.6697,0.5807,0.5537,0.4424,0.2237,0.093,-0.0988,-0.3565,-0.4622,-0.5827,-0.7129,0.0,0.0,-0.5016,-0.1552,0.015,0.0651,0.4412,0.5979,0.6111,0.7187,0.76,0.7567,0.7213,0.7095,0.7061,0.6844,0.6729,0.6695,0.6664,0.6518,0.63,0.63,0.63,0.63,0.63,0.63,0.6358,0.6746,0.677,0.6856,0.7436,0.7343,0.72,0.7618,0.7538,0.7462,0.7654,0.7779,0.7514,0.6608,0.6179,0.5225,0.2815,0.2163,0.1511,0.0202,0.0,0.0,0.0,-0.0907,-0.1159,-0.0101,-0.0958,-0.2013,-0.3065,-0.3525,-0.3224,-0.2061,0.0421,0.3555,0.7371,1.036,1.304,1.5352,1.5669,1.5298,1.4343,1.5298,1.5244,1.4343,1.5352,1.5784,1.5784,1.5784,1.5784,1.5784,1.5784,1.5784,1.5784,1.5784,1.5784,1.5818,1.6166,1.646,1.6714,0.3765,0.467,0.5525,0.5777,0.6728,0.7478,0.758,0.7515,0.7419,0.7431,0.7279,0.7136,0.7125,0.7105,0.7095,0.7095,0.7095,0.7095,0.7095,0.7095,0.7058,0.6938,0.6072,0.4926,0.3474,0.2365,0.0502,-0.2163,-0.2314,-0.3065,-0.4366,-0.4366,-0.3659,-0.23,-0.0701,0.0651,0.2,0.4814,0.5979,0.6111,0.7187,0.76,0.7567,0.7213,0.7095,0.7075,0.692,0.6817,0.6678,0.6539,0.6429,0.63,0.63,0.63,0.63,0.63,0.63,0.6532,0.7593,0.7308,0.7197,0.9349,0.8484,0.7404,0.8508,0.8072,0.7388,0.7444,0.7633,0.781,0.7813,0.6833,0.5525,0.4067,0.2815,0.1511,0.0202,0.0,0.0,0.0,-0.0101,-0.0151,0.0,-0.0101,-0.0252,-0.0353,-0.1514,-0.2162,-0.1994,0.0551,0.3264,0.6114,0.9912,1.2579,1.4082,1.5244,1.573,1.5615,1.573,1.573,1.5622,1.573,1.5784,1.5784,1.5784,1.5784,1.5784,1.5784,1.5784,1.5784,1.5784,1.5784,1.5818,1.6166,1.646,1.674,0.495,0.5464,0.6027,0.6762,0.7286,0.7558,0.7495,0.7438,0.7399,0.7402,0.7217,0.7095,0.7095,0.7095,0.7095,0.7095,0.7095,0.7095,0.7095,0.7095,0.7095,0.7095,0.6709,0.5966,0.4834,0.3614,0.1718,-0.0803,-0.1609,-0.2665,-0.3966,-0.3157,-0.165,0.05,0.2652,0.3909,0.451,0.6423,0.7137,0.7095,0.7441,0.7546,0.7441,0.7176,0.7432,0.7846,0.772,0.7589,0.7456,0.7328,0.6847,0.63,0.63,0.63,0.63,0.63,0.63,0.6567,0.7696,0.7737,0.7724,0.8758,0.8454,0.7869,0.7724,0.7438,0.7234,0.737,0.7595,0.7831,0.7892,0.7526,0.6781,0.5422,0.4067,0.2715,0.141,0.0504,0.0,0.0,0.0706,0.1209,0.1209,0.1209,0.121,0.1212,-0.005,-0.0453,0.0352,0.216,0.4418,0.712,1.0248,1.256,1.3874,1.5143,1.5406,1.4659,1.5406,1.5406,1.4712,1.546,1.5784,1.5784,1.5784,1.5784,1.5784,1.5784,1.5784,1.5784,1.5784,1.5939,1.6132,1.6426,1.672,1.7014,0.63,0.6317,0.6534,0.7376,0.7506,0.7438,0.7318,0.7382,0.7404,0.7398,0.7289,0.726,0.7233,0.7189,0.7207,0.7207,0.7207,0.7142,0.7098,0.7095,0.7095,0.7095,0.7139,0.6666,0.5543,0.4707,0.3196,0.1093,0.02,-0.0702,-0.1603,-0.07,0.1,0.3253,0.5168,0.6229,0.6631,0.7587,0.7901,0.7797,0.7655,0.7509,0.7398,0.72,0.7436,0.7959,0.7824,0.7687,0.7549,0.7421,0.6868,0.63,0.63,0.63,0.63,0.63,0.6518,0.6999,0.8095,0.8467,0.8755,0.9468,0.9123,0.8447,0.8063,0.7529,0.7153,0.7337,0.7591,0.7763,0.7804,0.7887,0.7587,0.6229,0.487,0.3516,0.2213,0.0857,0.0151,0.0555,0.1411,0.2164,0.2567,0.2212,0.2013,0.2021,0.1111,0.101,0.1971,0.333,0.5286,0.7939,1.0581,1.2616,1.3874,1.5143,1.5352,1.445,1.5352,1.5345,1.4504,1.5399,1.5784,1.5784,1.5784,1.5784,1.5784,1.5784,1.5784,1.5784,1.5784,1.6012,1.6306,1.66,1.6894,1.7246,0.8037,0.758,0.7395,0.7395,0.7233,0.7102,0.7098,0.726,0.7393,0.7412,0.7535,0.76,0.7604,0.7458,0.7412,0.7412,0.7412,0.7302,0.7105,0.7095,0.7095,0.7095,0.7285,0.677,0.5438,0.5648,0.5125,0.3764,0.3882,0.3915,0.3915,0.3915,0.4668,0.5929,0.5979,0.6734,0.7988,0.7988,0.7901,0.7797,0.7655,0.7509,0.7398,0.72,0.7007,0.6909,0.6756,0.6641,0.6491,0.6347,0.63,0.63,0.63,0.63,0.63,0.63,0.6988,0.8018,0.9018,0.9556,1.0383,1.2592,1.1011,0.9196,1.032,0.8746,0.7139,0.7336,0.7492,0.7645,0.7784,0.7887,0.7587,0.6229,0.487,0.3516,0.2213,0.0857,0.0504,0.1812,0.2013,0.2517,0.3831,0.2761,0.2009,0.2021,0.1971,0.1971,0.2022,0.3407,0.5347,0.7939,1.0735,1.2725,1.3874,1.5143,1.5778,1.5778,1.5778,1.5778,1.5778,1.5778,1.5784,1.5784,1.5784,1.5784,1.5784,1.5784,1.5784,1.5784,1.5784,1.6012,1.6306,1.66,1.6894,1.7246,0.7977,0.7645,0.7624,0.756,0.7411,0.7333,0.7438,0.7402,0.7448,0.7643,0.7613,0.7661,0.7833,0.7584,0.7415,0.7415,0.7275,0.7149,0.7098,0.7095,0.7095,0.7095,0.7142,0.7082,0.677,0.5969,0.5422,0.5176,0.4275,0.4365,0.5375,0.5375,0.6077,0.7385,0.7385,0.7587,0.7982,0.788,0.7801,0.7655,0.7506,0.7353,0.7197,0.7007,0.7325,0.7779,0.7643,0.7509,0.7398,0.7342,0.6872,0.63,0.63,0.63,0.6419,0.7103,0.7559,0.8162,0.9867,1.0565,1.0967,1.166,1.079,0.9701,0.9381,0.8178,0.7109,0.7204,0.7336,0.7489,0.7641,0.7787,0.7472,0.6216,0.487,0.3516,0.2213,0.1611,0.1511,0.1963,0.3618,0.4874,0.5331,0.4962,0.4706,0.4714,0.3883,0.334,0.334,0.5732,0.7757,0.9304,1.2134,1.3699,1.3921,1.5143,1.5784,1.5784,1.5784,1.5784,1.5784,1.5784,1.5784,1.5784,1.5784,1.5784,1.5784,1.5784,1.5945,1.6132,1.6132,1.6482,1.6931,1.7025,1.7246,1.7455,0.9456,0.9149,0.9157,0.9088,0.8567,0.8195,0.8301,0.7887,0.7626,0.7785,0.7794,0.7834,0.7971,0.774,0.7516,0.7461,0.7316,0.7204,0.7098,0.7095,0.7095,0.7095,0.7095,0.7139,0.7282,0.656,0.6273,0.6475,0.5735,0.5859,0.6731,0.6731,0.7158,0.7904,0.7904,0.7874,0.782,0.7773,0.7648,0.7506,0.7456,0.7278,0.7088,0.6997,0.7257,0.763,0.7587,0.7426,0.7261,0.7285,0.6843,0.63,0.63,0.63,0.6419,0.7061,0.7522,0.8074,0.9348,1.0179,1.0709,1.0699,1.0224,0.9438,0.8354,0.7592,0.7095,0.7095,0.7261,0.7417,0.757,0.7716,0.7417,0.6211,0.487,0.3715,0.2864,0.2314,0.2563,0.4059,0.5724,0.6945,0.7447,0.7027,0.6562,0.6053,0.5227,0.4991,0.55,0.73,0.9061,1.0679,1.2998,1.4343,1.4605,1.5406,1.5784,1.5784,1.5784,1.5784,1.5784,1.5784,1.5784,1.5784,1.5784,1.5784,1.5784,1.5784,1.6005,1.6321,1.6321,1.6683,1.7199,1.7199,1.7387,1.7582,1.1967,1.1595,1.1548,1.1548,1.0473,0.9637,0.9657,0.8691,0.7958,0.7935,0.7969,0.7988,0.7988,0.7902,0.7756,0.7628,0.7465,0.7312,0.7122,0.7102,0.7105,0.7129,0.7119,0.7112,0.7112,0.7295,0.7441,0.7584,0.7868,0.7961,0.7961,0.7961,0.7884,0.7797,0.7797,0.7723,0.76,0.759,0.7502,0.7415,0.7405,0.7268,0.7095,0.7085,0.6913,0.6732,0.6865,0.6644,0.6351,0.6484,0.6433,0.6313,0.6313,0.6306,0.63,0.638,0.7071,0.7829,0.7871,0.8896,0.991,0.9902,0.94,0.8597,0.739,0.7095,0.7095,0.7095,0.7255,0.7404,0.757,0.7706,0.7359,0.6059,0.482,0.3966,0.3865,0.2864,0.3612,0.7539,0.8091,0.8678,0.9987,0.8908,0.763,0.6357,0.6294,0.6799,0.8077,0.8428,0.9668,1.1945,1.3456,1.4766,1.5778,1.5784,1.5784,1.5784,1.5784,1.5784,1.5784,1.5784,1.5784,1.5784,1.5784,1.5784,1.5784,1.5852,1.6039,1.6355,1.6375,1.673,1.7233,1.7233,1.7407,1.7582,1.1979,1.1777,1.1788,1.1788,1.1452,1.1208,1.1327,1.0193,0.9376,0.9441,0.8609,0.7988,0.7988,0.7902,0.7797,0.7763,0.7522,0.7402,0.7319,0.7207,0.72,0.7482,0.738,0.7316,0.7316,0.7398,0.7436,0.7424,0.7611,0.7702,0.7702,0.7702,0.7685,0.7648,0.7648,0.7631,0.7594,0.7475,0.745,0.7405,0.7244,0.7129,0.7085,0.6977,0.6893,0.6865,0.6783,0.6685,0.6603,0.6634,0.6546,0.6463,0.6463,0.6385,0.6458,0.7223,0.7624,0.7983,0.8751,0.943,0.9918,0.9894,0.9388,0.8572,0.7363,0.7095,0.7095,0.7095,0.7125,0.7278,0.755,0.7628,0.6957,0.4843,0.4216,0.3667,0.2614,0.3065,0.466,0.7641,0.8897,1.0053,1.1327,1.0274,0.9383,0.9072,0.9073,0.92,0.9522,1.1458,1.2828,1.3425,1.4958,1.5778,1.5784,1.5784,1.5784,1.5784,1.5784,1.5784,1.5784,1.5784,1.5784,1.5784,1.5784,1.5784,1.5798,1.6072,1.6339,1.6627,1.6904,1.7213,1.7534,1.7534,1.7522,1.7582,1.3749,1.3641,1.3692,1.3692,1.3141,1.2751,1.278,1.1144,0.9924,0.9969,0.884,0.7988,0.7988,0.7917,0.7885,0.7818,0.7604,0.7475,0.7475,0.7397,0.7424,0.7594,0.7519,0.7444,0.7419,0.7415,0.7415,0.7415,0.7522,0.76,0.76,0.76,0.7563,0.7495,0.7495,0.7455,0.7383,0.7302,0.7265,0.7258,0.7129,0.7095,0.7088,0.7011,0.6943,0.6883,0.6909,0.6814,0.6712,0.678,0.6705,0.6576,0.6576,0.6522,0.6596,0.7064,0.7223,0.7343,0.7871,0.8284,0.8561,0.8609,0.8332,0.7919,0.7234,0.7095,0.7272,0.7797,0.7489,0.7365,0.8227,0.7969,0.6822,0.4386,0.4516,0.4423,0.3127,0.4612,0.679,0.9444,1.099,1.206,1.2763,1.219,1.1546,1.0923,1.0874,1.113,1.1761,1.3115,1.3891,1.388,1.5298,1.5994,1.5784,1.5784,1.5784,1.5784,1.5784,1.5784,1.5784,1.5784,1.5784,1.5784,1.5784,1.5784,1.5852,1.6152,1.644,1.6734,1.7085,1.738,1.7582,1.7582,1.7582,1.7582,1.5784,1.5784,1.5784,1.5784,1.4902,1.419,1.4201,1.2149,1.0533,1.0311,0.9304,0.8531,0.8333,0.8482,0.8474,0.8143,0.802,0.7891,0.7634,0.7795,0.7802,0.7665,0.7645,0.757,0.7487,0.7439,0.7415,0.7415,0.7478,0.7529,0.7529,0.7529,0.7461,0.7336,0.7336,0.7261,0.7095,0.7095,0.7095,0.7095,0.7316,0.736,0.7401,0.7573,0.7454,0.7232,0.7314,0.7106,0.6787,0.6873,0.6861,0.6736,0.6736,0.6719,0.6695,0.6579,0.6546,0.656,0.6491,0.6714,0.6915,0.7051,0.7228,0.736,0.736,0.7489,0.7925,0.893,0.8208,0.7785,0.907,0.8383,0.6885,0.468,0.5268,0.5586,0.4448,0.6457,0.8958,1.1605,1.3073,1.396,1.4159,1.4028,1.3453,1.2268,1.2224,1.2678,1.3826,1.4064,1.4214,1.4189,1.5244,1.5784,1.5784,1.5784,1.5784,1.5784,1.5784,1.5784,1.5784,1.5784,1.5804,1.5899,1.5899,1.5919,1.5985,1.6279,1.6547,1.68,1.7152,1.742,1.7582,1.7582,1.7582,1.7582,1.5784,1.5784,1.5784,1.5784,1.5635,1.5527,1.5514,1.4225,1.2875,1.1741,1.1433,1.0872,0.9805,1.0632,1.0863,0.9763,0.9637,0.9077,0.7832,0.8683,0.8827,0.796,0.7848,0.7767,0.7743,0.7499,0.7415,0.7415,0.7265,0.7166,0.7166,0.7166,0.7152,0.7132,0.7132,0.7119,0.7095,0.7095,0.7095,0.7183,0.8189,0.8627,0.8715,0.9705,0.9426,0.8591,0.8619,0.7939,0.7031,0.7055,0.6967,0.6852,0.6852,0.6803,0.6709,0.6656,0.6767,0.6777,0.6561,0.6711,0.6915,0.7051,0.7885,0.8627,0.8627,0.9357,1.0091,1.0308,0.9531,0.8874,0.9241,0.8477,0.7295,0.5931,0.5874,0.5939,0.5734,0.7044,0.8951,1.1604,1.3104,1.4316,1.5419,1.4551,1.382,1.3613,1.3595,1.3682,1.3893,1.4904,1.5486,1.5514,1.5724,1.5784,1.5784,1.5784,1.5784,1.5784,1.5784,1.5784,1.5784,1.5784,1.5965,1.6206,1.6206,1.6346,1.6593,1.6945,1.7092,1.7159,1.7454,1.7542,1.7582,1.7582,1.7582,1.7582,1.5784,1.5784,1.5784,1.5784,1.5784,1.5784,1.5784,1.4712,1.3677,1.3076,1.2349,1.1702,1.1068,1.1556,1.1653,1.1072,1.1697,1.1507,1.0109,0.9878,0.986,1.0087,1.0059,0.9675,0.8908,0.7976,0.7455,0.7415,0.7299,0.7221,0.7095,0.7095,0.7095,0.7095,0.7095,0.7095,0.7095,0.7095,0.7482,0.8126,0.8694,0.9266,0.9879,1.0394,0.9879,0.889,0.889,0.8101,0.7095,0.7095,0.7051,0.7001,0.7001,0.695,0.6903,0.681,0.6832,0.6881,0.6843,0.6915,0.7007,0.7095,0.8017,0.889,0.889,0.9792,1.0814,1.1636,1.0913,1.0241,1.0471,0.9609,0.825,0.6325,0.6623,0.7099,0.7076,0.8845,1.0817,1.2742,1.4106,1.5166,1.573,1.5244,1.4927,1.4927,1.4927,1.4924,1.4929,1.5471,1.5784,1.5784,1.5784,1.5784,1.5784,1.5784,1.5784,1.5784,1.5784,1.5784,1.5784,1.5784,1.5992,1.6321,1.6321,1.644,1.6727,1.7079,1.7199,1.7233,1.7521,1.7582,1.7582,1.7582,1.7582,1.7582,1.5784,1.5784,1.5784,1.5784,1.5784,1.5784,1.5784,1.4975,1.4225,1.3962,1.3253,1.2673,1.2382,1.2624,1.2673,1.2382,1.3295,1.344,1.2431,1.1458,1.1214,1.1853,1.1604,1.0803,0.9401,0.8488,0.7833,0.7475,0.7675,0.7594,0.7203,0.7166,0.7156,0.7162,0.7115,0.7095,0.7095,0.7095,0.7782,0.8935,0.9187,0.9976,1.0994,1.0994,1.0308,0.9279,0.8978,0.8101,0.7095,0.7095,0.7095,0.7095,0.7095,0.7095,0.7095,0.6959,0.6959,0.6959,0.7051,0.7095,0.7095,0.7095,0.8189,0.9331,0.938,1.0517,1.1842,1.3065,1.2405,1.1685,1.1881,1.1059,0.9648,0.7694,0.8244,0.8882,0.8889,1.0894,1.2764,1.3773,1.5,1.5784,1.5784,1.5784,1.5784,1.5784,1.5784,1.5784,1.5784,1.5784,1.5784,1.5784,1.5784,1.5784,1.5784,1.5784,1.5865,1.5932,1.5865,1.5818,1.5925,1.5865,1.6025,1.6373,1.6373,1.658,1.6927,1.7206,1.73,1.7326,1.7495,1.7582,1.7582,1.7582,1.7582,1.7582,1.5784,1.5784,1.5784,1.5784,1.5784,1.5784,1.5784,1.5724,1.5235,1.407,1.4854,1.5051,1.3878,1.4806,1.5051,1.3878,1.383,1.3872,1.3776,1.368,1.3102,1.1945,1.0779,0.9501,0.817,0.8823,0.8722,0.778,0.8594,0.8474,0.7563,0.7421,0.7377,0.7365,0.7179,0.7095,0.7095,0.7095,0.7782,0.8978,1.0029,1.1166,1.2157,1.2157,1.1466,1.0351,0.9279,0.8101,0.7095,0.7095,0.7095,0.7095,0.7095,0.7095,0.7095,0.7095,0.7095,0.7095,0.7095,0.7095,0.7095,0.7095,0.879,1.0579,1.0873,1.2654,1.4344,1.4729,1.3987,1.3257,1.3243,1.2433,1.1673,1.1498,1.1527,1.1623,1.1595,1.287,1.3773,1.3903,1.5038,1.5784,1.5784,1.5784,1.5784,1.5784,1.5784,1.5784,1.5784,1.5784,1.5784,1.5784,1.5784,1.5784,1.5784,1.5784,1.5965,1.6239,1.5965,1.5972,1.6233,1.5952,1.6139,1.6673,1.6673,1.6994,1.7522,1.7542,1.7549,1.7555,1.7575,1.7582,1.7582,1.7582,1.7582,1.7582,1.5784,1.5784,1.5784,1.5784,1.5784,1.5784,1.5784,1.5784,1.5635,1.514,1.5486,1.5635,1.5146,1.5486,1.5635,1.5099,1.5092,1.5092,1.5092,1.5092,1.4854,1.4322,1.3102,1.2178,1.1687,1.1149,1.0284,0.9048,0.9382,0.8882,0.7597,0.7444,0.7394,0.7385,0.7186,0.7095,0.7143,0.7919,0.8867,1.0029,1.1177,1.1923,1.2285,1.2285,1.1166,0.9492,0.9061,0.8101,0.7095,0.7095,0.7095,0.7095,0.7095,0.7095,0.7095,0.7095,0.7095,0.7139,0.7233,0.7192,0.7142,0.7236,0.8468,0.9941,1.101,1.2423,1.3905,1.5027,1.493,1.4444,1.3821,1.3401,1.2875,1.2014,1.1923,1.2207,1.3019,1.3564,1.4201,1.4984,1.5486,1.5784,1.5784,1.5784,1.5784,1.5784,1.5784,1.5784,1.5784,1.5784,1.5784,1.5784,1.5784,1.5784,1.5784,1.5784,1.5838,1.5999,1.5838,1.5985,1.6321,1.6152,1.6426,1.7032,1.7032,1.7208,1.7582,1.7582,1.7582,1.7582,1.7582,1.7582,1.7582,1.7582,1.7582,1.7609,1.5784,1.5784,1.5784,1.5784,1.5784,1.5784,1.5784,1.5784,1.5784,1.5784,1.5784,1.5784,1.5784,1.5784,1.5784,1.5784,1.5784,1.5784,1.5784,1.5784,1.5642,1.5213,1.4382,1.3692,1.3295,1.2673,1.1763,1.0446,1.0768,1.0044,0.8339,0.8153,0.7839,0.7469,0.7195,0.7095,0.7187,0.838,0.9568,1.0668,1.1438,1.1983,1.2211,1.1515,1.0309,0.893,0.8537,0.7912,0.723,0.7227,0.72,0.723,0.7227,0.7203,0.724,0.724,0.7261,0.7282,0.7442,0.7349,0.7285,0.7446,0.8312,0.9561,1.1103,1.2308,1.3579,1.5186,1.5531,1.5305,1.4615,1.4504,1.4189,1.3252,1.314,1.3322,1.3814,1.4237,1.4671,1.5134,1.5581,1.5784,1.5784,1.5784,1.5784,1.5784,1.5784,1.5784,1.5784,1.5784,1.5784,1.5784,1.5784,1.5872,1.5965,1.5831,1.5831,1.5972,1.5972,1.6126,1.6413,1.6413,1.673,1.7199,1.7199,1.7367,1.7582,1.7582,1.7582,1.7582,1.7582,1.7582,1.7582,1.7582,1.7642,1.7749,1.5784,1.5784,1.5784,1.5784,1.5784,1.5784,1.5784,1.5784,1.5784,1.5784,1.5784,1.5784,1.5784,1.5784,1.5784,1.5784,1.5784,1.5784,1.5784,1.5784,1.5261,1.3979,1.3931,1.3286,1.195,1.292,1.293,1.194,1.2927,1.2236,1.0009,0.9648,0.8812,0.7604,0.727,0.7095,0.7187,0.838,0.9557,1.061,1.0593,1.1273,1.2037,0.9767,0.9,0.8935,0.7822,0.7472,0.7577,0.7424,0.7472,0.7573,0.7467,0.7478,0.76,0.76,0.7622,0.7586,0.7586,0.759,0.7593,0.7596,0.8458,0.9719,1.1325,1.2596,1.3848,1.5481,1.5784,1.5784,1.5784,1.5784,1.5784,1.5784,1.5778,1.5335,1.4085,1.4977,1.5343,1.407,1.4997,1.5784,1.5784,1.5784,1.5784,1.5784,1.5784,1.5784,1.5784,1.5784,1.5784,1.5784,1.5784,1.5979,1.6321,1.5979,1.5979,1.6321,1.6321,1.6426,1.6707,1.6707,1.6874,1.7206,1.7206,1.7367,1.7582,1.7582,1.7582,1.7582,1.7582,1.7582,1.7582,1.7589,1.7769,1.8016,1.5784,1.5784,1.5784,1.5784,1.5784,1.5784,1.5784,1.5784,1.5784,1.5784,1.5784,1.5784,1.5784,1.5784,1.5784,1.5784,1.5784,1.5784,1.5784,1.5784,1.5635,1.5261,1.5213,1.5064,1.4663,1.4908,1.4518,1.3309,1.3578,1.2437,1.0011,0.9789,0.8965,0.7604,0.7506,0.7323,0.7187,0.8472,0.92,0.9481,1.0379,1.0463,0.9969,0.9392,0.8728,0.7987,0.7669,0.756,0.7594,0.7546,0.756,0.759,0.7546,0.7563,0.76,0.76,0.7577,0.762,0.7723,0.7743,0.7717,0.7723,0.7987,0.8877,1.1313,1.2085,1.3019,1.5324,1.5784,1.5784,1.5784,1.5784,1.5784,1.5784,1.507,1.434,1.394,1.4244,1.4316,1.3974,1.4997,1.5784,1.5784,1.5784,1.5784,1.5784,1.5784,1.5784,1.5784,1.5784,1.5925,1.6132,1.6139,1.6279,1.6573,1.6079,1.5979,1.6321,1.6321,1.6426,1.6714,1.6921,1.7226,1.7507,1.7507,1.7554,1.7582,1.7582,1.7582,1.7582,1.7582,1.7582,1.7609,1.7829,1.7909,1.8042,1.5784,1.5784,1.5784,1.5784,1.5784,1.5784,1.5784,1.5784,1.5784,1.5784,1.5784,1.5784,1.5784,1.5784,1.5784,1.5784,1.5784,1.5784,1.5784,1.5784,1.5784,1.5784,1.5784,1.5784,1.5784,1.5784,1.5406,1.4659,1.4659,1.3576,1.153,1.1412,1.0319,0.8485,0.8394,0.7977,0.7393,0.8649,0.9121,0.9139,0.9909,0.9781,0.9118,0.878,0.825,0.7682,0.7682,0.7723,0.7763,0.7702,0.7682,0.7692,0.7753,0.7773,0.7773,0.7773,0.7773,0.779,0.7879,0.7899,0.7874,0.7865,0.7868,0.8454,1.0635,1.1565,1.2495,1.4613,1.546,1.5784,1.5784,1.5399,1.5035,1.5035,1.4423,1.3553,1.2503,1.3701,1.4268,1.3247,1.4704,1.5784,1.5784,1.5784,1.5784,1.5784,1.5917,1.5999,1.6001,1.5997,1.6152,1.6429,1.6375,1.6477,1.6877,1.6377,1.6284,1.6446,1.6616,1.6757,1.6894,1.7239,1.7467,1.7582,1.7582,1.7582,1.7582,1.7582,1.7582,1.7595,1.7716,1.7762,1.7802,1.811,1.8242,1.8388,1.5784,1.5784,1.5784,1.5784,1.5784,1.5784,1.5784,1.5784,1.5784,1.5784,1.5784,1.5784,1.5784,1.5784,1.5784,1.5784,1.5784,1.5784,1.5784,1.5784,1.5784,1.5784,1.5784,1.5784,1.5784,1.5784,1.5784,1.5784,1.5784,1.5082,1.3726,1.3596,1.2133,0.959,0.9432,0.8698,0.769,0.8737,0.9141,0.9157,0.9157,0.9151,0.905,0.8039,0.7694,0.7831,0.7831,0.7874,0.7968,0.7879,0.7831,0.7855,0.7944,0.7988,0.7988,0.7988,0.7988,0.7988,0.7988,0.7988,0.7988,0.7988,0.7988,0.8379,0.9833,1.1056,1.2288,1.3778,1.4981,1.5784,1.5784,1.4867,1.404,1.3927,1.388,1.301,1.0502,1.3303,1.4729,1.2382,1.4274,1.5784,1.5784,1.5832,1.5824,1.5822,1.6155,1.6348,1.6334,1.6334,1.6437,1.6731,1.6516,1.664,1.7237,1.691,1.6788,1.673,1.7027,1.7199,1.7213,1.7501,1.7582,1.7582,1.7582,1.7582,1.7582,1.7582,1.7602,1.7655,1.7882,1.8009,1.8069,1.8417,1.8698,1.8925,1.5784,1.5784,1.5784,1.5784,1.5784,1.5784,1.5784,1.5784,1.5784,1.5784,1.5784,1.5784,1.5784,1.5784,1.5784,1.5784,1.5784,1.5784,1.5784,1.5784,1.5784,1.5784,1.5784,1.5784,1.5784,1.5784,1.5784,1.5784,1.5784,1.4605,1.2321,1.2305,1.0847,0.8244,0.8297,0.8055,0.7611,0.7955,0.8069,0.7959,0.8077,0.8135,0.8088,0.7941,0.7931,0.7941,0.7941,0.7961,0.7985,0.7951,0.7941,0.7944,0.7978,0.7988,0.7988,0.7988,0.7988,0.7988,0.7988,0.7988,0.7988,0.7988,0.7988,0.8599,1.097,1.1702,1.2555,1.4908,1.5615,1.5784,1.5784,1.5568,1.5048,1.4068,1.3906,1.3346,1.1707,1.313,1.4079,1.3505,1.4854,1.5784,1.5784,1.6048,1.6213,1.6208,1.6454,1.6617,1.6627,1.6632,1.6742,1.7089,1.7022,1.7197,1.7506,1.7435,1.7311,1.7094,1.7163,1.7199,1.7213,1.7501,1.7582,1.7582,1.7582,1.7582,1.7582,1.7582,1.7722,1.7902,1.7969,1.8135,1.843,1.8724,1.8871,1.8958,1.5784,1.5784,1.5784,1.5784,1.5784,1.5784,1.5784,1.5784,1.5784,1.5784,1.5784,1.5784,1.5784,1.5784,1.5784,1.5784,1.5784,1.5784,1.5784,1.5784,1.5784,1.5784,1.5784,1.5784,1.5784,1.5784,1.5784,1.5784,1.5784,1.4766,1.2839,1.2828,1.1404,0.8862,0.8916,0.8487,0.7705,0.7855,0.7799,0.7724,0.7826,0.7885,0.7889,0.7988,0.7988,0.7988,0.7988,0.7988,0.7988,0.7988,0.7988,0.7988,0.7988,0.7988,0.7988,0.7988,0.7988,0.7988,0.7988,0.7988,0.7988,0.7988,0.8503,0.9313,1.0695,1.1457,1.2476,1.447,1.5399,1.5784,1.5784,1.5298,1.4686,1.4025,1.3886,1.3415,1.2104,1.3586,1.4569,1.3986,1.4997,1.5886,1.5994,1.6211,1.6368,1.6487,1.6773,1.6962,1.6918,1.6947,1.7067,1.7407,1.725,1.7316,1.7582,1.7582,1.7523,1.7397,1.7369,1.7407,1.7414,1.7515,1.7582,1.7582,1.7582,1.7582,1.7582,1.7582,1.7762,1.8009,1.8203,1.8437,1.8718,1.8865,1.8925,1.8945,1.5784,1.5784,1.5784,1.5784,1.5784,1.5784,1.5784,1.5784,1.5784,1.5784,1.5784,1.5784,1.5784,1.5784,1.5784,1.5784,1.5784,1.5784,1.5784,1.5784,1.5784,1.5784,1.5784,1.5784,1.5784,1.5784,1.5784,1.5784,1.5594,1.4845,1.3566,1.3362,1.1954,0.9643,0.9643,0.8966,0.7852,0.797,0.7939,0.7836,0.7939,0.8141,0.8297,0.8347,0.8453,0.866,0.866,0.8503,0.8297,0.8091,0.7988,0.7988,0.7988,0.7988,0.7988,0.7988,0.7988,0.7988,0.7988,0.7988,0.7988,0.7988,0.9019,1.0061,1.0294,1.1327,1.263,1.3963,1.5082,1.5784,1.5784,1.4927,1.4135,1.3927,1.4088,1.3775,1.2448,1.429,1.5391,1.4364,1.5185,1.5994,1.6327,1.6416,1.6538,1.6787,1.7106,1.7258,1.7268,1.7263,1.7345,1.7582,1.7397,1.7397,1.7582,1.7582,1.7582,1.7582,1.7582,1.7582,1.7582,1.7582,1.7582,1.7582,1.7582,1.7582,1.7589,1.7642,1.7842,1.8102,1.845,1.8744,1.8991,1.8945,1.8891,1.8858,1.5784,1.5784,1.5784,1.5784,1.5784,1.5784,1.5784,1.5784,1.5784,1.5784,1.5784,1.5784,1.5784,1.5784,1.5784,1.5784,1.5784,1.5784,1.5784,1.5784,1.5784,1.5784,1.5784,1.5784,1.5784,1.5784,1.5784,1.5784,1.4694,1.3473,1.2173,1.1047,0.9743,0.8247,0.8247,0.8177,0.7951,0.7978,0.7939,0.7836,0.7939,0.8606,0.959,0.9693,1.0423,1.1368,1.1368,1.0685,0.9536,0.84,0.7988,0.7988,0.7988,0.7988,0.7988,0.7988,0.7988,0.7988,0.7988,0.7988,0.7988,0.7988,0.9019,1.0291,1.137,1.267,1.4011,1.5305,1.5669,1.5784,1.5784,1.5669,1.519,1.4082,1.4845,1.5121,1.382,1.4874,1.573,1.5581,1.5956,1.6332,1.6619,1.6905,1.7089,1.7114,1.741,1.7548,1.7527,1.7535,1.7575,1.7582,1.7575,1.7575,1.7582,1.7582,1.7582,1.7582,1.7582,1.7582,1.7582,1.7582,1.7582,1.7582,1.7582,1.7582,1.7602,1.7869,1.8156,1.8464,1.8751,1.9045,1.9279,1.9018,1.8764,1.8584,1.5784,1.5784,1.5784,1.5784,1.5784,1.5784,1.5784,1.5784,1.5784,1.5784,1.5784,1.5784,1.5784,1.5784,1.5784,1.5784,1.5784,1.5784,1.5784,1.5784,1.5784,1.5784,1.5784,1.5784,1.5784,1.5784,1.5439,1.4752,1.4184,1.323,1.1869,1.0596,0.9294,0.7988,0.7988,0.7941,0.7913,0.7913,0.7865,0.7894,0.869,0.936,0.9987,1.0791,1.139,1.1905,1.1905,1.1516,1.0843,0.9536,0.9122,0.8969,0.8244,0.8506,0.9113,0.9113,0.9114,0.9275,1.0004,0.9643,0.9279,1.0004,1.121,1.233,1.2879,1.4028,1.5136,1.5669,1.5784,1.5784,1.5784,1.5784,1.5667,1.5284,1.5735,1.5956,1.5511,1.5947,1.6319,1.6319,1.6433,1.6635,1.6946,1.7117,1.7242,1.7417,1.7523,1.7582,1.7582,1.7582,1.7582,1.7582,1.7582,1.7582,1.7582,1.7582,1.7582,1.7582,1.7582,1.7582,1.7582,1.7582,1.7582,1.7582,1.7582,1.7582,1.7595,1.7736,1.8063,1.8484,1.8395,1.8517,1.8631,1.8664,1.8497,1.8283]}]]